<?xml version="1.0" encoding="UTF-8" standalone="no" ?>
<gpx xmlns="http://www.topografix.com/GPX/1/1" xmlns:xsi="http://www.w3.org/2001/XMLSchema-instance" xsi:schemaLocation="http://www.topografix.com/GPX/1/1 http://www.topografix.com/GPX/1/1/gpx.xsd" version="1.1" creator="VisuGPX - https://www.visugpx.com">
  <metadata>
    <name>2024-11-02  Randonnée TwoNav</name>
    <desc><![CDATA[2024-11-02_131832.trk]]></desc>
  </metadata>
  <trk>
    <name><![CDATA[2024-11-02  Randonnée TwoNav_1]]></name>
    <trkseg>
      <trkpt lat="48.21939" lon="6.6109">
        <ele>360</ele>
        <time>2024-11-02T12:18:32Z</time>
      </trkpt>
      <trkpt lat="48.21936" lon="6.61087">
        <ele>360</ele>
        <time>2024-11-02T12:18:33Z</time>
      </trkpt>
      <trkpt lat="48.21934" lon="6.61083">
        <ele>360</ele>
        <time>2024-11-02T12:18:34Z</time>
      </trkpt>
      <trkpt lat="48.21931" lon="6.61079">
        <ele>360.2</ele>
        <time>2024-11-02T12:18:35Z</time>
      </trkpt>
      <trkpt lat="48.21928" lon="6.61075">
        <ele>360.4</ele>
        <time>2024-11-02T12:18:36Z</time>
      </trkpt>
      <trkpt lat="48.21925" lon="6.61072">
        <ele>360.5</ele>
        <time>2024-11-02T12:18:39Z</time>
      </trkpt>
      <trkpt lat="48.21922" lon="6.61068">
        <ele>360.7</ele>
        <time>2024-11-02T12:18:40Z</time>
      </trkpt>
      <trkpt lat="48.21919" lon="6.61064">
        <ele>360.9</ele>
        <time>2024-11-02T12:18:47Z</time>
      </trkpt>
      <trkpt lat="48.21916" lon="6.61061">
        <ele>361.1</ele>
        <time>2024-11-02T12:18:55Z</time>
      </trkpt>
      <trkpt lat="48.21913" lon="6.61057">
        <ele>361.3</ele>
        <time>2024-11-02T12:19:04Z</time>
      </trkpt>
      <trkpt lat="48.2191" lon="6.61053">
        <ele>361.5</ele>
        <time>2024-11-02T12:19:13Z</time>
      </trkpt>
      <trkpt lat="48.21907" lon="6.61049">
        <ele>361.6</ele>
        <time>2024-11-02T12:19:21Z</time>
      </trkpt>
      <trkpt lat="48.21904" lon="6.61046">
        <ele>361.8</ele>
        <time>2024-11-02T12:19:33Z</time>
      </trkpt>
      <trkpt lat="48.21901" lon="6.61042">
        <ele>361.9</ele>
        <time>2024-11-02T12:19:33Z</time>
      </trkpt>
      <trkpt lat="48.21901" lon="6.61042">
        <ele>361.9</ele>
        <time>2024-11-02T12:19:34Z</time>
      </trkpt>
      <trkpt lat="48.21901" lon="6.61042">
        <ele>361.9</ele>
        <time>2024-11-02T12:19:35Z</time>
      </trkpt>
      <trkpt lat="48.21901" lon="6.61042">
        <ele>361.9</ele>
        <time>2024-11-02T12:19:36Z</time>
      </trkpt>
      <trkpt lat="48.21901" lon="6.61042">
        <ele>361.9</ele>
        <time>2024-11-02T12:19:37Z</time>
      </trkpt>
      <trkpt lat="48.21901" lon="6.61042">
        <ele>361.9</ele>
        <time>2024-11-02T12:19:38Z</time>
      </trkpt>
      <trkpt lat="48.21901" lon="6.61042">
        <ele>361.9</ele>
        <time>2024-11-02T12:19:39Z</time>
      </trkpt>
      <trkpt lat="48.21901" lon="6.61042">
        <ele>361.9</ele>
        <time>2024-11-02T12:19:40Z</time>
      </trkpt>
      <trkpt lat="48.21901" lon="6.61042">
        <ele>361.9</ele>
        <time>2024-11-02T12:19:41Z</time>
      </trkpt>
      <trkpt lat="48.21901" lon="6.61042">
        <ele>361.9</ele>
        <time>2024-11-02T12:19:42Z</time>
      </trkpt>
      <trkpt lat="48.21901" lon="6.61042">
        <ele>361.9</ele>
        <time>2024-11-02T12:19:43Z</time>
      </trkpt>
      <trkpt lat="48.21901" lon="6.61042">
        <ele>361.9</ele>
        <time>2024-11-02T12:19:44Z</time>
      </trkpt>
      <trkpt lat="48.21901" lon="6.61042">
        <ele>361.9</ele>
        <time>2024-11-02T12:19:45Z</time>
      </trkpt>
      <trkpt lat="48.21901" lon="6.61042">
        <ele>361.9</ele>
        <time>2024-11-02T12:19:46Z</time>
      </trkpt>
      <trkpt lat="48.21901" lon="6.61042">
        <ele>361.9</ele>
        <time>2024-11-02T12:19:54Z</time>
      </trkpt>
      <trkpt lat="48.21901" lon="6.61042">
        <ele>361.9</ele>
        <time>2024-11-02T12:19:55Z</time>
      </trkpt>
      <trkpt lat="48.21901" lon="6.61042">
        <ele>361.9</ele>
        <time>2024-11-02T12:19:56Z</time>
      </trkpt>
      <trkpt lat="48.21901" lon="6.61042">
        <ele>361.9</ele>
        <time>2024-11-02T12:19:57Z</time>
      </trkpt>
      <trkpt lat="48.21901" lon="6.61042">
        <ele>361.9</ele>
        <time>2024-11-02T12:19:58Z</time>
      </trkpt>
      <trkpt lat="48.21901" lon="6.61041">
        <ele>362</ele>
        <time>2024-11-02T12:20:02Z</time>
      </trkpt>
      <trkpt lat="48.21901" lon="6.6104">
        <ele>362</ele>
        <time>2024-11-02T12:20:03Z</time>
      </trkpt>
      <trkpt lat="48.21901" lon="6.61041">
        <ele>362</ele>
        <time>2024-11-02T12:20:09Z</time>
      </trkpt>
      <trkpt lat="48.21901" lon="6.61041">
        <ele>362</ele>
        <time>2024-11-02T12:20:10Z</time>
      </trkpt>
      <trkpt lat="48.21901" lon="6.61041">
        <ele>362</ele>
        <time>2024-11-02T12:20:11Z</time>
      </trkpt>
      <trkpt lat="48.21901" lon="6.61041">
        <ele>362</ele>
        <time>2024-11-02T12:20:19Z</time>
      </trkpt>
      <trkpt lat="48.21901" lon="6.61041">
        <ele>362</ele>
        <time>2024-11-02T12:20:20Z</time>
      </trkpt>
      <trkpt lat="48.21901" lon="6.61041">
        <ele>362</ele>
        <time>2024-11-02T12:20:21Z</time>
      </trkpt>
      <trkpt lat="48.21901" lon="6.61041">
        <ele>362</ele>
        <time>2024-11-02T12:20:22Z</time>
      </trkpt>
      <trkpt lat="48.21901" lon="6.61041">
        <ele>362</ele>
        <time>2024-11-02T12:20:23Z</time>
      </trkpt>
      <trkpt lat="48.21899" lon="6.61041">
        <ele>362.1</ele>
        <time>2024-11-02T12:20:36Z</time>
      </trkpt>
      <trkpt lat="48.21899" lon="6.61041">
        <ele>362.1</ele>
        <time>2024-11-02T12:20:37Z</time>
      </trkpt>
      <trkpt lat="48.21898" lon="6.61041">
        <ele>362.1</ele>
        <time>2024-11-02T12:20:38Z</time>
      </trkpt>
      <trkpt lat="48.21889" lon="6.61041">
        <ele>362.5</ele>
        <time>2024-11-02T12:20:51Z</time>
      </trkpt>
      <trkpt lat="48.21881" lon="6.61035">
        <ele>363</ele>
        <time>2024-11-02T12:20:59Z</time>
      </trkpt>
      <trkpt lat="48.21871" lon="6.61033">
        <ele>363.5</ele>
        <time>2024-11-02T12:21:08Z</time>
      </trkpt>
      <trkpt lat="48.21861" lon="6.61031">
        <ele>364.2</ele>
        <time>2024-11-02T12:21:17Z</time>
      </trkpt>
      <trkpt lat="48.21851" lon="6.61029">
        <ele>364.9</ele>
        <time>2024-11-02T12:21:26Z</time>
      </trkpt>
      <trkpt lat="48.21842" lon="6.61027">
        <ele>365.6</ele>
        <time>2024-11-02T12:21:34Z</time>
      </trkpt>
      <trkpt lat="48.21832" lon="6.61022">
        <ele>366.5</ele>
        <time>2024-11-02T12:21:42Z</time>
      </trkpt>
      <trkpt lat="48.21823" lon="6.61018">
        <ele>367.4</ele>
        <time>2024-11-02T12:21:52Z</time>
      </trkpt>
      <trkpt lat="48.21816" lon="6.61009">
        <ele>368.2</ele>
        <time>2024-11-02T12:21:59Z</time>
      </trkpt>
      <trkpt lat="48.2181" lon="6.60998">
        <ele>368.9</ele>
        <time>2024-11-02T12:22:07Z</time>
      </trkpt>
      <trkpt lat="48.21808" lon="6.60984">
        <ele>369.5</ele>
        <time>2024-11-02T12:22:15Z</time>
      </trkpt>
      <trkpt lat="48.21808" lon="6.60969">
        <ele>370.1</ele>
        <time>2024-11-02T12:22:23Z</time>
      </trkpt>
      <trkpt lat="48.21808" lon="6.60955">
        <ele>370.6</ele>
        <time>2024-11-02T12:22:31Z</time>
      </trkpt>
      <trkpt lat="48.21808" lon="6.60941">
        <ele>371.1</ele>
        <time>2024-11-02T12:22:39Z</time>
      </trkpt>
      <trkpt lat="48.21808" lon="6.60927">
        <ele>371.5</ele>
        <time>2024-11-02T12:22:47Z</time>
      </trkpt>
      <trkpt lat="48.21807" lon="6.60912">
        <ele>372</ele>
        <time>2024-11-02T12:22:55Z</time>
      </trkpt>
      <trkpt lat="48.21805" lon="6.60897">
        <ele>372.5</ele>
        <time>2024-11-02T12:23:03Z</time>
      </trkpt>
      <trkpt lat="48.21803" lon="6.60883">
        <ele>372.9</ele>
        <time>2024-11-02T12:23:11Z</time>
      </trkpt>
      <trkpt lat="48.21802" lon="6.60882">
        <ele>373</ele>
        <time>2024-11-02T12:23:16Z</time>
      </trkpt>
      <trkpt lat="48.21802" lon="6.60882">
        <ele>373</ele>
        <time>2024-11-02T12:23:17Z</time>
      </trkpt>
      <trkpt lat="48.21802" lon="6.60881">
        <ele>373</ele>
        <time>2024-11-02T12:23:18Z</time>
      </trkpt>
      <trkpt lat="48.21802" lon="6.6088">
        <ele>373.1</ele>
        <time>2024-11-02T12:23:19Z</time>
      </trkpt>
      <trkpt lat="48.21802" lon="6.60878">
        <ele>373.1</ele>
        <time>2024-11-02T12:23:20Z</time>
      </trkpt>
      <trkpt lat="48.21797" lon="6.60865">
        <ele>373.7</ele>
        <time>2024-11-02T12:23:29Z</time>
      </trkpt>
      <trkpt lat="48.21791" lon="6.60852">
        <ele>374.2</ele>
        <time>2024-11-02T12:23:37Z</time>
      </trkpt>
      <trkpt lat="48.21786" lon="6.60841">
        <ele>374.7</ele>
        <time>2024-11-02T12:23:45Z</time>
      </trkpt>
      <trkpt lat="48.21781" lon="6.60828">
        <ele>375.3</ele>
        <time>2024-11-02T12:23:53Z</time>
      </trkpt>
      <trkpt lat="48.21777" lon="6.60815">
        <ele>375.9</ele>
        <time>2024-11-02T12:24:01Z</time>
      </trkpt>
      <trkpt lat="48.21772" lon="6.60802">
        <ele>376.5</ele>
        <time>2024-11-02T12:24:09Z</time>
      </trkpt>
      <trkpt lat="48.21767" lon="6.60789">
        <ele>376.9</ele>
        <time>2024-11-02T12:24:17Z</time>
      </trkpt>
      <trkpt lat="48.21761" lon="6.60777">
        <ele>377.3</ele>
        <time>2024-11-02T12:24:25Z</time>
      </trkpt>
      <trkpt lat="48.21754" lon="6.60766">
        <ele>377.7</ele>
        <time>2024-11-02T12:24:33Z</time>
      </trkpt>
      <trkpt lat="48.21746" lon="6.60757">
        <ele>378</ele>
        <time>2024-11-02T12:24:41Z</time>
      </trkpt>
      <trkpt lat="48.21737" lon="6.60754">
        <ele>378.2</ele>
        <time>2024-11-02T12:24:48Z</time>
      </trkpt>
      <trkpt lat="48.21728" lon="6.60753">
        <ele>378.8</ele>
        <time>2024-11-02T12:24:55Z</time>
      </trkpt>
      <trkpt lat="48.21719" lon="6.60757">
        <ele>379.5</ele>
        <time>2024-11-02T12:25:03Z</time>
      </trkpt>
      <trkpt lat="48.21711" lon="6.60762">
        <ele>380.2</ele>
        <time>2024-11-02T12:25:11Z</time>
      </trkpt>
      <trkpt lat="48.21702" lon="6.60767">
        <ele>380.8</ele>
        <time>2024-11-02T12:25:19Z</time>
      </trkpt>
      <trkpt lat="48.21693" lon="6.60771">
        <ele>381.5</ele>
        <time>2024-11-02T12:25:27Z</time>
      </trkpt>
      <trkpt lat="48.21683" lon="6.60774">
        <ele>382.3</ele>
        <time>2024-11-02T12:25:35Z</time>
      </trkpt>
      <trkpt lat="48.21674" lon="6.60778">
        <ele>382.9</ele>
        <time>2024-11-02T12:25:42Z</time>
      </trkpt>
      <trkpt lat="48.21665" lon="6.60782">
        <ele>383.4</ele>
        <time>2024-11-02T12:25:50Z</time>
      </trkpt>
      <trkpt lat="48.21655" lon="6.60784">
        <ele>383.9</ele>
        <time>2024-11-02T12:25:58Z</time>
      </trkpt>
      <trkpt lat="48.21649" lon="6.60787">
        <ele>384.2</ele>
        <time>2024-11-02T12:26:08Z</time>
      </trkpt>
      <trkpt lat="48.21649" lon="6.60787">
        <ele>384.2</ele>
        <time>2024-11-02T12:26:09Z</time>
      </trkpt>
      <trkpt lat="48.21648" lon="6.60787">
        <ele>384.2</ele>
        <time>2024-11-02T12:26:10Z</time>
      </trkpt>
      <trkpt lat="48.21647" lon="6.60787">
        <ele>384.2</ele>
        <time>2024-11-02T12:26:11Z</time>
      </trkpt>
      <trkpt lat="48.21647" lon="6.60788">
        <ele>384.3</ele>
        <time>2024-11-02T12:26:12Z</time>
      </trkpt>
      <trkpt lat="48.21643" lon="6.6079">
        <ele>384.4</ele>
        <time>2024-11-02T12:26:21Z</time>
      </trkpt>
      <trkpt lat="48.21643" lon="6.6079">
        <ele>384.4</ele>
        <time>2024-11-02T12:26:22Z</time>
      </trkpt>
      <trkpt lat="48.21643" lon="6.6079">
        <ele>384.4</ele>
        <time>2024-11-02T12:26:23Z</time>
      </trkpt>
      <trkpt lat="48.2164" lon="6.60791">
        <ele>384.6</ele>
        <time>2024-11-02T12:26:41Z</time>
      </trkpt>
      <trkpt lat="48.21639" lon="6.60791">
        <ele>384.6</ele>
        <time>2024-11-02T12:26:42Z</time>
      </trkpt>
      <trkpt lat="48.21639" lon="6.60792">
        <ele>384.6</ele>
        <time>2024-11-02T12:26:43Z</time>
      </trkpt>
      <trkpt lat="48.2163" lon="6.60796">
        <ele>385</ele>
        <time>2024-11-02T12:26:52Z</time>
      </trkpt>
      <trkpt lat="48.2162" lon="6.60797">
        <ele>385.4</ele>
        <time>2024-11-02T12:27:01Z</time>
      </trkpt>
      <trkpt lat="48.21611" lon="6.60796">
        <ele>385.9</ele>
        <time>2024-11-02T12:27:09Z</time>
      </trkpt>
      <trkpt lat="48.21602" lon="6.60796">
        <ele>386.3</ele>
        <time>2024-11-02T12:27:16Z</time>
      </trkpt>
      <trkpt lat="48.21592" lon="6.60795">
        <ele>386.8</ele>
        <time>2024-11-02T12:27:24Z</time>
      </trkpt>
      <trkpt lat="48.21582" lon="6.60795">
        <ele>387.3</ele>
        <time>2024-11-02T12:27:32Z</time>
      </trkpt>
      <trkpt lat="48.21572" lon="6.60795">
        <ele>387.8</ele>
        <time>2024-11-02T12:27:40Z</time>
      </trkpt>
      <trkpt lat="48.21562" lon="6.60794">
        <ele>388.5</ele>
        <time>2024-11-02T12:27:48Z</time>
      </trkpt>
      <trkpt lat="48.21553" lon="6.60793">
        <ele>389.2</ele>
        <time>2024-11-02T12:27:56Z</time>
      </trkpt>
      <trkpt lat="48.21543" lon="6.60792">
        <ele>389.8</ele>
        <time>2024-11-02T12:28:04Z</time>
      </trkpt>
      <trkpt lat="48.21534" lon="6.60791">
        <ele>390.5</ele>
        <time>2024-11-02T12:28:13Z</time>
      </trkpt>
      <trkpt lat="48.21524" lon="6.60791">
        <ele>391.2</ele>
        <time>2024-11-02T12:28:22Z</time>
      </trkpt>
      <trkpt lat="48.21514" lon="6.60792">
        <ele>391.9</ele>
        <time>2024-11-02T12:28:31Z</time>
      </trkpt>
      <trkpt lat="48.21504" lon="6.60792">
        <ele>392.7</ele>
        <time>2024-11-02T12:28:40Z</time>
      </trkpt>
      <trkpt lat="48.21495" lon="6.60791">
        <ele>393.5</ele>
        <time>2024-11-02T12:28:49Z</time>
      </trkpt>
      <trkpt lat="48.21485" lon="6.60791">
        <ele>394.3</ele>
        <time>2024-11-02T12:28:57Z</time>
      </trkpt>
      <trkpt lat="48.21476" lon="6.60792">
        <ele>395.1</ele>
        <time>2024-11-02T12:29:05Z</time>
      </trkpt>
      <trkpt lat="48.21466" lon="6.60795">
        <ele>395.9</ele>
        <time>2024-11-02T12:29:13Z</time>
      </trkpt>
      <trkpt lat="48.21458" lon="6.60802">
        <ele>396.6</ele>
        <time>2024-11-02T12:29:21Z</time>
      </trkpt>
      <trkpt lat="48.21448" lon="6.60806">
        <ele>397.4</ele>
        <time>2024-11-02T12:29:29Z</time>
      </trkpt>
      <trkpt lat="48.21439" lon="6.60813">
        <ele>398.2</ele>
        <time>2024-11-02T12:29:37Z</time>
      </trkpt>
      <trkpt lat="48.2143" lon="6.6082">
        <ele>399</ele>
        <time>2024-11-02T12:29:45Z</time>
      </trkpt>
      <trkpt lat="48.21422" lon="6.60827">
        <ele>399.7</ele>
        <time>2024-11-02T12:29:53Z</time>
      </trkpt>
      <trkpt lat="48.21412" lon="6.60833">
        <ele>400.5</ele>
        <time>2024-11-02T12:30:01Z</time>
      </trkpt>
      <trkpt lat="48.21403" lon="6.60839">
        <ele>401.2</ele>
        <time>2024-11-02T12:30:09Z</time>
      </trkpt>
      <trkpt lat="48.21394" lon="6.60841">
        <ele>401.8</ele>
        <time>2024-11-02T12:30:17Z</time>
      </trkpt>
      <trkpt lat="48.21385" lon="6.60836">
        <ele>402.3</ele>
        <time>2024-11-02T12:30:26Z</time>
      </trkpt>
      <trkpt lat="48.21378" lon="6.60826">
        <ele>402.9</ele>
        <time>2024-11-02T12:30:34Z</time>
      </trkpt>
      <trkpt lat="48.2137" lon="6.60819">
        <ele>403.8</ele>
        <time>2024-11-02T12:30:55Z</time>
      </trkpt>
      <trkpt lat="48.21362" lon="6.60809">
        <ele>404.7</ele>
        <time>2024-11-02T12:31:03Z</time>
      </trkpt>
      <trkpt lat="48.21354" lon="6.60803">
        <ele>405.8</ele>
        <time>2024-11-02T12:31:11Z</time>
      </trkpt>
      <trkpt lat="48.21345" lon="6.60801">
        <ele>406.8</ele>
        <time>2024-11-02T12:31:24Z</time>
      </trkpt>
      <trkpt lat="48.21345" lon="6.60801">
        <ele>406.7</ele>
        <time>2024-11-02T12:31:25Z</time>
      </trkpt>
      <trkpt lat="48.21346" lon="6.60806">
        <ele>407.1</ele>
        <time>2024-11-02T12:36:51Z</time>
      </trkpt>
      <trkpt lat="48.21354" lon="6.60798">
        <ele>405.4</ele>
        <time>2024-11-02T12:37:13Z</time>
      </trkpt>
      <trkpt lat="48.21348" lon="6.60786">
        <ele>405.2</ele>
        <time>2024-11-02T12:37:21Z</time>
      </trkpt>
      <trkpt lat="48.21345" lon="6.60773">
        <ele>404.4</ele>
        <time>2024-11-02T12:37:29Z</time>
      </trkpt>
      <trkpt lat="48.21343" lon="6.60759">
        <ele>403.6</ele>
        <time>2024-11-02T12:37:37Z</time>
      </trkpt>
      <trkpt lat="48.2134" lon="6.60746">
        <ele>402.6</ele>
        <time>2024-11-02T12:37:45Z</time>
      </trkpt>
      <trkpt lat="48.21336" lon="6.60733">
        <ele>402.3</ele>
        <time>2024-11-02T12:37:53Z</time>
      </trkpt>
      <trkpt lat="48.21334" lon="6.60719">
        <ele>402.2</ele>
        <time>2024-11-02T12:38:01Z</time>
      </trkpt>
      <trkpt lat="48.21333" lon="6.60705">
        <ele>401.7</ele>
        <time>2024-11-02T12:38:10Z</time>
      </trkpt>
      <trkpt lat="48.21331" lon="6.60691">
        <ele>401.5</ele>
        <time>2024-11-02T12:38:18Z</time>
      </trkpt>
      <trkpt lat="48.21331" lon="6.60678">
        <ele>401.1</ele>
        <time>2024-11-02T12:38:26Z</time>
      </trkpt>
      <trkpt lat="48.21328" lon="6.60663">
        <ele>400.9</ele>
        <time>2024-11-02T12:38:35Z</time>
      </trkpt>
      <trkpt lat="48.21325" lon="6.60649">
        <ele>400.8</ele>
        <time>2024-11-02T12:38:44Z</time>
      </trkpt>
      <trkpt lat="48.21321" lon="6.60636">
        <ele>400.4</ele>
        <time>2024-11-02T12:38:54Z</time>
      </trkpt>
      <trkpt lat="48.21316" lon="6.60624">
        <ele>400.2</ele>
        <time>2024-11-02T12:39:01Z</time>
      </trkpt>
      <trkpt lat="48.2131" lon="6.60613">
        <ele>400.3</ele>
        <time>2024-11-02T12:39:09Z</time>
      </trkpt>
      <trkpt lat="48.21302" lon="6.60604">
        <ele>400.4</ele>
        <time>2024-11-02T12:39:17Z</time>
      </trkpt>
      <trkpt lat="48.21292" lon="6.60606">
        <ele>401.2</ele>
        <time>2024-11-02T12:39:27Z</time>
      </trkpt>
      <trkpt lat="48.21283" lon="6.60611">
        <ele>402.4</ele>
        <time>2024-11-02T12:39:35Z</time>
      </trkpt>
      <trkpt lat="48.21274" lon="6.60617">
        <ele>403.5</ele>
        <time>2024-11-02T12:39:43Z</time>
      </trkpt>
      <trkpt lat="48.21265" lon="6.60622">
        <ele>404.5</ele>
        <time>2024-11-02T12:39:50Z</time>
      </trkpt>
      <trkpt lat="48.21256" lon="6.60627">
        <ele>405.8</ele>
        <time>2024-11-02T12:39:57Z</time>
      </trkpt>
      <trkpt lat="48.21248" lon="6.60631">
        <ele>406.8</ele>
        <time>2024-11-02T12:40:04Z</time>
      </trkpt>
      <trkpt lat="48.21239" lon="6.60636">
        <ele>407.7</ele>
        <time>2024-11-02T12:40:11Z</time>
      </trkpt>
      <trkpt lat="48.2123" lon="6.60642">
        <ele>408.4</ele>
        <time>2024-11-02T12:40:19Z</time>
      </trkpt>
      <trkpt lat="48.21222" lon="6.60651">
        <ele>409.1</ele>
        <time>2024-11-02T12:40:27Z</time>
      </trkpt>
      <trkpt lat="48.21213" lon="6.60658">
        <ele>409.6</ele>
        <time>2024-11-02T12:40:35Z</time>
      </trkpt>
      <trkpt lat="48.21205" lon="6.60667">
        <ele>409.8</ele>
        <time>2024-11-02T12:40:43Z</time>
      </trkpt>
      <trkpt lat="48.21198" lon="6.60676">
        <ele>410.1</ele>
        <time>2024-11-02T12:40:51Z</time>
      </trkpt>
      <trkpt lat="48.21189" lon="6.60684">
        <ele>410.5</ele>
        <time>2024-11-02T12:40:59Z</time>
      </trkpt>
      <trkpt lat="48.21181" lon="6.60692">
        <ele>411.6</ele>
        <time>2024-11-02T12:41:07Z</time>
      </trkpt>
      <trkpt lat="48.21172" lon="6.60698">
        <ele>413.4</ele>
        <time>2024-11-02T12:41:15Z</time>
      </trkpt>
      <trkpt lat="48.21163" lon="6.60697">
        <ele>414.8</ele>
        <time>2024-11-02T12:41:23Z</time>
      </trkpt>
      <trkpt lat="48.21154" lon="6.60691">
        <ele>416</ele>
        <time>2024-11-02T12:41:31Z</time>
      </trkpt>
      <trkpt lat="48.21144" lon="6.60687">
        <ele>417.1</ele>
        <time>2024-11-02T12:41:39Z</time>
      </trkpt>
      <trkpt lat="48.21135" lon="6.60685">
        <ele>418.2</ele>
        <time>2024-11-02T12:41:47Z</time>
      </trkpt>
      <trkpt lat="48.21125" lon="6.60682">
        <ele>419.4</ele>
        <time>2024-11-02T12:41:55Z</time>
      </trkpt>
      <trkpt lat="48.21115" lon="6.6068">
        <ele>420.1</ele>
        <time>2024-11-02T12:42:02Z</time>
      </trkpt>
      <trkpt lat="48.21106" lon="6.6068">
        <ele>420.7</ele>
        <time>2024-11-02T12:42:09Z</time>
      </trkpt>
      <trkpt lat="48.21097" lon="6.60679">
        <ele>421</ele>
        <time>2024-11-02T12:42:17Z</time>
      </trkpt>
      <trkpt lat="48.21087" lon="6.6068">
        <ele>421.4</ele>
        <time>2024-11-02T12:42:25Z</time>
      </trkpt>
      <trkpt lat="48.21077" lon="6.60683">
        <ele>422.3</ele>
        <time>2024-11-02T12:42:35Z</time>
      </trkpt>
      <trkpt lat="48.21067" lon="6.60682">
        <ele>422.9</ele>
        <time>2024-11-02T12:42:44Z</time>
      </trkpt>
      <trkpt lat="48.21057" lon="6.60685">
        <ele>423.8</ele>
        <time>2024-11-02T12:42:52Z</time>
      </trkpt>
      <trkpt lat="48.21048" lon="6.6069">
        <ele>424.2</ele>
        <time>2024-11-02T12:42:59Z</time>
      </trkpt>
      <trkpt lat="48.21038" lon="6.60692">
        <ele>424.4</ele>
        <time>2024-11-02T12:43:06Z</time>
      </trkpt>
      <trkpt lat="48.21029" lon="6.6069">
        <ele>424.8</ele>
        <time>2024-11-02T12:43:19Z</time>
      </trkpt>
      <trkpt lat="48.2102" lon="6.60693">
        <ele>424.8</ele>
        <time>2024-11-02T12:43:29Z</time>
      </trkpt>
      <trkpt lat="48.21011" lon="6.60691">
        <ele>425</ele>
        <time>2024-11-02T12:43:41Z</time>
      </trkpt>
      <trkpt lat="48.21002" lon="6.60695">
        <ele>425.3</ele>
        <time>2024-11-02T12:43:50Z</time>
      </trkpt>
      <trkpt lat="48.20992" lon="6.60695">
        <ele>425.9</ele>
        <time>2024-11-02T12:43:58Z</time>
      </trkpt>
      <trkpt lat="48.20984" lon="6.607">
        <ele>426.4</ele>
        <time>2024-11-02T12:44:06Z</time>
      </trkpt>
      <trkpt lat="48.20975" lon="6.60704">
        <ele>426.8</ele>
        <time>2024-11-02T12:44:15Z</time>
      </trkpt>
      <trkpt lat="48.20965" lon="6.60706">
        <ele>427.1</ele>
        <time>2024-11-02T12:44:24Z</time>
      </trkpt>
      <trkpt lat="48.20957" lon="6.60715">
        <ele>427</ele>
        <time>2024-11-02T12:44:32Z</time>
      </trkpt>
      <trkpt lat="48.20948" lon="6.60722">
        <ele>426.7</ele>
        <time>2024-11-02T12:44:41Z</time>
      </trkpt>
      <trkpt lat="48.20939" lon="6.60727">
        <ele>426.6</ele>
        <time>2024-11-02T12:44:50Z</time>
      </trkpt>
      <trkpt lat="48.2094" lon="6.60731">
        <ele>426.4</ele>
        <time>2024-11-02T12:44:58Z</time>
      </trkpt>
      <trkpt lat="48.2094" lon="6.60732">
        <ele>426.4</ele>
        <time>2024-11-02T12:44:59Z</time>
      </trkpt>
      <trkpt lat="48.2094" lon="6.60732">
        <ele>426.4</ele>
        <time>2024-11-02T12:45:00Z</time>
      </trkpt>
      <trkpt lat="48.20939" lon="6.60732">
        <ele>426.4</ele>
        <time>2024-11-02T12:45:01Z</time>
      </trkpt>
      <trkpt lat="48.20939" lon="6.60733">
        <ele>426.3</ele>
        <time>2024-11-02T12:45:02Z</time>
      </trkpt>
      <trkpt lat="48.20939" lon="6.60733">
        <ele>426.3</ele>
        <time>2024-11-02T12:45:03Z</time>
      </trkpt>
      <trkpt lat="48.2094" lon="6.60735">
        <ele>426.2</ele>
        <time>2024-11-02T12:45:08Z</time>
      </trkpt>
      <trkpt lat="48.20939" lon="6.60735">
        <ele>426.2</ele>
        <time>2024-11-02T12:45:09Z</time>
      </trkpt>
      <trkpt lat="48.20939" lon="6.60736">
        <ele>426.1</ele>
        <time>2024-11-02T12:45:10Z</time>
      </trkpt>
      <trkpt lat="48.2094" lon="6.60736">
        <ele>426.1</ele>
        <time>2024-11-02T12:45:11Z</time>
      </trkpt>
      <trkpt lat="48.2094" lon="6.60736">
        <ele>426.1</ele>
        <time>2024-11-02T12:45:12Z</time>
      </trkpt>
      <trkpt lat="48.20941" lon="6.60736">
        <ele>426.1</ele>
        <time>2024-11-02T12:45:13Z</time>
      </trkpt>
      <trkpt lat="48.20941" lon="6.60736">
        <ele>426.1</ele>
        <time>2024-11-02T12:45:14Z</time>
      </trkpt>
      <trkpt lat="48.20941" lon="6.60736">
        <ele>426.1</ele>
        <time>2024-11-02T12:45:15Z</time>
      </trkpt>
      <trkpt lat="48.20942" lon="6.60737">
        <ele>426.1</ele>
        <time>2024-11-02T12:45:39Z</time>
      </trkpt>
      <trkpt lat="48.20942" lon="6.60737">
        <ele>426.1</ele>
        <time>2024-11-02T12:45:40Z</time>
      </trkpt>
      <trkpt lat="48.20942" lon="6.60737">
        <ele>426.1</ele>
        <time>2024-11-02T12:45:41Z</time>
      </trkpt>
      <trkpt lat="48.20942" lon="6.60737">
        <ele>426.1</ele>
        <time>2024-11-02T12:45:42Z</time>
      </trkpt>
      <trkpt lat="48.20942" lon="6.60737">
        <ele>426</ele>
        <time>2024-11-02T12:45:43Z</time>
      </trkpt>
      <trkpt lat="48.20943" lon="6.60737">
        <ele>426</ele>
        <time>2024-11-02T12:45:56Z</time>
      </trkpt>
      <trkpt lat="48.20943" lon="6.60737">
        <ele>426</ele>
        <time>2024-11-02T12:45:57Z</time>
      </trkpt>
      <trkpt lat="48.20943" lon="6.60737">
        <ele>426</ele>
        <time>2024-11-02T12:45:58Z</time>
      </trkpt>
      <trkpt lat="48.20943" lon="6.60737">
        <ele>426</ele>
        <time>2024-11-02T12:45:59Z</time>
      </trkpt>
      <trkpt lat="48.20943" lon="6.60737">
        <ele>426</ele>
        <time>2024-11-02T12:46:00Z</time>
      </trkpt>
      <trkpt lat="48.20941" lon="6.60735">
        <ele>426</ele>
        <time>2024-11-02T12:46:34Z</time>
      </trkpt>
      <trkpt lat="48.20941" lon="6.60735">
        <ele>426</ele>
        <time>2024-11-02T12:46:35Z</time>
      </trkpt>
      <trkpt lat="48.20941" lon="6.60735">
        <ele>426</ele>
        <time>2024-11-02T12:46:36Z</time>
      </trkpt>
      <trkpt lat="48.20941" lon="6.60735">
        <ele>425.9</ele>
        <time>2024-11-02T12:46:37Z</time>
      </trkpt>
      <trkpt lat="48.20941" lon="6.60735">
        <ele>425.9</ele>
        <time>2024-11-02T12:46:38Z</time>
      </trkpt>
      <trkpt lat="48.20941" lon="6.60735">
        <ele>425.9</ele>
        <time>2024-11-02T12:46:41Z</time>
      </trkpt>
      <trkpt lat="48.20941" lon="6.60735">
        <ele>425.9</ele>
        <time>2024-11-02T12:46:42Z</time>
      </trkpt>
      <trkpt lat="48.20941" lon="6.60735">
        <ele>425.9</ele>
        <time>2024-11-02T12:46:46Z</time>
      </trkpt>
      <trkpt lat="48.20941" lon="6.60735">
        <ele>425.9</ele>
        <time>2024-11-02T12:46:47Z</time>
      </trkpt>
      <trkpt lat="48.20941" lon="6.60735">
        <ele>425.9</ele>
        <time>2024-11-02T12:46:48Z</time>
      </trkpt>
      <trkpt lat="48.20942" lon="6.60734">
        <ele>425.9</ele>
        <time>2024-11-02T12:47:29Z</time>
      </trkpt>
      <trkpt lat="48.20942" lon="6.60734">
        <ele>425.9</ele>
        <time>2024-11-02T12:47:30Z</time>
      </trkpt>
      <trkpt lat="48.20941" lon="6.60719">
        <ele>426.5</ele>
        <time>2024-11-02T12:47:38Z</time>
      </trkpt>
      <trkpt lat="48.2094" lon="6.60734">
        <ele>425.8</ele>
        <time>2024-11-02T12:48:01Z</time>
      </trkpt>
      <trkpt lat="48.20942" lon="6.60749">
        <ele>425.4</ele>
        <time>2024-11-02T12:48:09Z</time>
      </trkpt>
      <trkpt lat="48.20941" lon="6.60764">
        <ele>424.8</ele>
        <time>2024-11-02T12:48:17Z</time>
      </trkpt>
      <trkpt lat="48.20933" lon="6.60753">
        <ele>425.2</ele>
        <time>2024-11-02T12:48:25Z</time>
      </trkpt>
      <trkpt lat="48.20925" lon="6.60745">
        <ele>425.6</ele>
        <time>2024-11-02T12:48:33Z</time>
      </trkpt>
      <trkpt lat="48.20917" lon="6.60738">
        <ele>426</ele>
        <time>2024-11-02T12:48:40Z</time>
      </trkpt>
      <trkpt lat="48.2091" lon="6.60729">
        <ele>426.5</ele>
        <time>2024-11-02T12:48:47Z</time>
      </trkpt>
      <trkpt lat="48.20902" lon="6.6072">
        <ele>427</ele>
        <time>2024-11-02T12:48:55Z</time>
      </trkpt>
      <trkpt lat="48.20894" lon="6.60712">
        <ele>427.1</ele>
        <time>2024-11-02T12:49:05Z</time>
      </trkpt>
      <trkpt lat="48.20889" lon="6.607">
        <ele>427.5</ele>
        <time>2024-11-02T12:49:16Z</time>
      </trkpt>
      <trkpt lat="48.20881" lon="6.60692">
        <ele>427.7</ele>
        <time>2024-11-02T12:49:24Z</time>
      </trkpt>
      <trkpt lat="48.20873" lon="6.60684">
        <ele>427.9</ele>
        <time>2024-11-02T12:49:31Z</time>
      </trkpt>
      <trkpt lat="48.20864" lon="6.60678">
        <ele>428</ele>
        <time>2024-11-02T12:49:38Z</time>
      </trkpt>
      <trkpt lat="48.2086" lon="6.60666">
        <ele>428.3</ele>
        <time>2024-11-02T12:49:46Z</time>
      </trkpt>
      <trkpt lat="48.20852" lon="6.60657">
        <ele>428.5</ele>
        <time>2024-11-02T12:49:54Z</time>
      </trkpt>
      <trkpt lat="48.20844" lon="6.60649">
        <ele>428.6</ele>
        <time>2024-11-02T12:50:02Z</time>
      </trkpt>
      <trkpt lat="48.20837" lon="6.60638">
        <ele>428.7</ele>
        <time>2024-11-02T12:50:08Z</time>
      </trkpt>
      <trkpt lat="48.20829" lon="6.60631">
        <ele>428.7</ele>
        <time>2024-11-02T12:50:15Z</time>
      </trkpt>
      <trkpt lat="48.20822" lon="6.60622">
        <ele>428.8</ele>
        <time>2024-11-02T12:50:23Z</time>
      </trkpt>
      <trkpt lat="48.20814" lon="6.60614">
        <ele>428.9</ele>
        <time>2024-11-02T12:50:32Z</time>
      </trkpt>
      <trkpt lat="48.20806" lon="6.60607">
        <ele>428.9</ele>
        <time>2024-11-02T12:50:39Z</time>
      </trkpt>
      <trkpt lat="48.20798" lon="6.60598">
        <ele>429</ele>
        <time>2024-11-02T12:50:46Z</time>
      </trkpt>
      <trkpt lat="48.20789" lon="6.6059">
        <ele>429</ele>
        <time>2024-11-02T12:50:56Z</time>
      </trkpt>
      <trkpt lat="48.20782" lon="6.60582">
        <ele>428.9</ele>
        <time>2024-11-02T12:51:02Z</time>
      </trkpt>
      <trkpt lat="48.20773" lon="6.60574">
        <ele>428.6</ele>
        <time>2024-11-02T12:51:12Z</time>
      </trkpt>
      <trkpt lat="48.20766" lon="6.60564">
        <ele>428.4</ele>
        <time>2024-11-02T12:51:21Z</time>
      </trkpt>
      <trkpt lat="48.20759" lon="6.60556">
        <ele>428.1</ele>
        <time>2024-11-02T12:51:31Z</time>
      </trkpt>
      <trkpt lat="48.20751" lon="6.60547">
        <ele>427.7</ele>
        <time>2024-11-02T12:51:43Z</time>
      </trkpt>
      <trkpt lat="48.20742" lon="6.6054">
        <ele>427.5</ele>
        <time>2024-11-02T12:51:53Z</time>
      </trkpt>
      <trkpt lat="48.20734" lon="6.60533">
        <ele>427.1</ele>
        <time>2024-11-02T12:52:01Z</time>
      </trkpt>
      <trkpt lat="48.20726" lon="6.60526">
        <ele>426.6</ele>
        <time>2024-11-02T12:52:13Z</time>
      </trkpt>
      <trkpt lat="48.20719" lon="6.60518">
        <ele>425.9</ele>
        <time>2024-11-02T12:52:20Z</time>
      </trkpt>
      <trkpt lat="48.20709" lon="6.6051">
        <ele>425.1</ele>
        <time>2024-11-02T12:52:26Z</time>
      </trkpt>
      <trkpt lat="48.20702" lon="6.60502">
        <ele>424.5</ele>
        <time>2024-11-02T12:52:32Z</time>
      </trkpt>
      <trkpt lat="48.20695" lon="6.60493">
        <ele>423.1</ele>
        <time>2024-11-02T12:52:40Z</time>
      </trkpt>
      <trkpt lat="48.20686" lon="6.60489">
        <ele>423</ele>
        <time>2024-11-02T12:52:48Z</time>
      </trkpt>
      <trkpt lat="48.20677" lon="6.60484">
        <ele>422</ele>
        <time>2024-11-02T12:52:58Z</time>
      </trkpt>
      <trkpt lat="48.20678" lon="6.6049">
        <ele>422.8</ele>
        <time>2024-11-02T12:53:14Z</time>
      </trkpt>
      <trkpt lat="48.20678" lon="6.6049">
        <ele>422.8</ele>
        <time>2024-11-02T12:53:15Z</time>
      </trkpt>
      <trkpt lat="48.20676" lon="6.60484">
        <ele>422.6</ele>
        <time>2024-11-02T12:53:37Z</time>
      </trkpt>
      <trkpt lat="48.20677" lon="6.60483">
        <ele>422.6</ele>
        <time>2024-11-02T12:53:38Z</time>
      </trkpt>
      <trkpt lat="48.2068" lon="6.6047">
        <ele>422.2</ele>
        <time>2024-11-02T12:53:45Z</time>
      </trkpt>
      <trkpt lat="48.20685" lon="6.60457">
        <ele>421.8</ele>
        <time>2024-11-02T12:53:53Z</time>
      </trkpt>
      <trkpt lat="48.2069" lon="6.60444">
        <ele>421.3</ele>
        <time>2024-11-02T12:54:01Z</time>
      </trkpt>
      <trkpt lat="48.20697" lon="6.60436">
        <ele>420.9</ele>
        <time>2024-11-02T12:54:08Z</time>
      </trkpt>
      <trkpt lat="48.20702" lon="6.60424">
        <ele>420.5</ele>
        <time>2024-11-02T12:54:17Z</time>
      </trkpt>
      <trkpt lat="48.20707" lon="6.60413">
        <ele>420.1</ele>
        <time>2024-11-02T12:54:26Z</time>
      </trkpt>
      <trkpt lat="48.20712" lon="6.60401">
        <ele>419.7</ele>
        <time>2024-11-02T12:54:34Z</time>
      </trkpt>
      <trkpt lat="48.20716" lon="6.60388">
        <ele>419.3</ele>
        <time>2024-11-02T12:54:42Z</time>
      </trkpt>
      <trkpt lat="48.20722" lon="6.60377">
        <ele>418.9</ele>
        <time>2024-11-02T12:54:50Z</time>
      </trkpt>
      <trkpt lat="48.20728" lon="6.60366">
        <ele>418.5</ele>
        <time>2024-11-02T12:54:59Z</time>
      </trkpt>
      <trkpt lat="48.20733" lon="6.60354">
        <ele>418.2</ele>
        <time>2024-11-02T12:55:12Z</time>
      </trkpt>
      <trkpt lat="48.2074" lon="6.60344">
        <ele>417.8</ele>
        <time>2024-11-02T12:55:19Z</time>
      </trkpt>
      <trkpt lat="48.20748" lon="6.60337">
        <ele>417.4</ele>
        <time>2024-11-02T12:55:26Z</time>
      </trkpt>
      <trkpt lat="48.20751" lon="6.60323">
        <ele>417.1</ele>
        <time>2024-11-02T12:55:36Z</time>
      </trkpt>
      <trkpt lat="48.20758" lon="6.60313">
        <ele>416.8</ele>
        <time>2024-11-02T12:55:43Z</time>
      </trkpt>
      <trkpt lat="48.20764" lon="6.60303">
        <ele>416.6</ele>
        <time>2024-11-02T12:55:51Z</time>
      </trkpt>
      <trkpt lat="48.20771" lon="6.60291">
        <ele>416.4</ele>
        <time>2024-11-02T12:55:59Z</time>
      </trkpt>
      <trkpt lat="48.20775" lon="6.60277">
        <ele>416.1</ele>
        <time>2024-11-02T12:56:07Z</time>
      </trkpt>
      <trkpt lat="48.2078" lon="6.60265">
        <ele>415.9</ele>
        <time>2024-11-02T12:56:15Z</time>
      </trkpt>
      <trkpt lat="48.20785" lon="6.60252">
        <ele>415.5</ele>
        <time>2024-11-02T12:56:23Z</time>
      </trkpt>
      <trkpt lat="48.2079" lon="6.6024">
        <ele>415.2</ele>
        <time>2024-11-02T12:56:31Z</time>
      </trkpt>
      <trkpt lat="48.20796" lon="6.6023">
        <ele>414.8</ele>
        <time>2024-11-02T12:56:38Z</time>
      </trkpt>
      <trkpt lat="48.20803" lon="6.60218">
        <ele>414.5</ele>
        <time>2024-11-02T12:56:46Z</time>
      </trkpt>
      <trkpt lat="48.20808" lon="6.60206">
        <ele>414.1</ele>
        <time>2024-11-02T12:56:54Z</time>
      </trkpt>
      <trkpt lat="48.20815" lon="6.60196">
        <ele>413.7</ele>
        <time>2024-11-02T12:57:01Z</time>
      </trkpt>
      <trkpt lat="48.20817" lon="6.60182">
        <ele>413.3</ele>
        <time>2024-11-02T12:57:09Z</time>
      </trkpt>
      <trkpt lat="48.20822" lon="6.6017">
        <ele>413</ele>
        <time>2024-11-02T12:57:17Z</time>
      </trkpt>
      <trkpt lat="48.20827" lon="6.60158">
        <ele>412.6</ele>
        <time>2024-11-02T12:57:25Z</time>
      </trkpt>
      <trkpt lat="48.2083" lon="6.60144">
        <ele>412.3</ele>
        <time>2024-11-02T12:57:33Z</time>
      </trkpt>
      <trkpt lat="48.20833" lon="6.60131">
        <ele>411.9</ele>
        <time>2024-11-02T12:57:41Z</time>
      </trkpt>
      <trkpt lat="48.20837" lon="6.60118">
        <ele>411.6</ele>
        <time>2024-11-02T12:57:50Z</time>
      </trkpt>
      <trkpt lat="48.20843" lon="6.60106">
        <ele>411.3</ele>
        <time>2024-11-02T12:57:58Z</time>
      </trkpt>
      <trkpt lat="48.20848" lon="6.60095">
        <ele>410.9</ele>
        <time>2024-11-02T12:58:07Z</time>
      </trkpt>
      <trkpt lat="48.20853" lon="6.60083">
        <ele>410.6</ele>
        <time>2024-11-02T12:58:16Z</time>
      </trkpt>
      <trkpt lat="48.20858" lon="6.60071">
        <ele>410.3</ele>
        <time>2024-11-02T12:58:25Z</time>
      </trkpt>
      <trkpt lat="48.20863" lon="6.60059">
        <ele>410</ele>
        <time>2024-11-02T12:58:34Z</time>
      </trkpt>
      <trkpt lat="48.20868" lon="6.60046">
        <ele>409.7</ele>
        <time>2024-11-02T12:58:42Z</time>
      </trkpt>
      <trkpt lat="48.20869" lon="6.60033">
        <ele>409.4</ele>
        <time>2024-11-02T12:58:50Z</time>
      </trkpt>
      <trkpt lat="48.20873" lon="6.60019">
        <ele>409.2</ele>
        <time>2024-11-02T12:58:58Z</time>
      </trkpt>
      <trkpt lat="48.20876" lon="6.60005">
        <ele>409</ele>
        <time>2024-11-02T12:59:06Z</time>
      </trkpt>
      <trkpt lat="48.20876" lon="6.5999">
        <ele>408.8</ele>
        <time>2024-11-02T12:59:14Z</time>
      </trkpt>
      <trkpt lat="48.20871" lon="6.59978">
        <ele>408.6</ele>
        <time>2024-11-02T12:59:21Z</time>
      </trkpt>
      <trkpt lat="48.20862" lon="6.59979">
        <ele>408.4</ele>
        <time>2024-11-02T12:59:30Z</time>
      </trkpt>
      <trkpt lat="48.20853" lon="6.59984">
        <ele>408.1</ele>
        <time>2024-11-02T12:59:37Z</time>
      </trkpt>
      <trkpt lat="48.20844" lon="6.5999">
        <ele>408</ele>
        <time>2024-11-02T12:59:44Z</time>
      </trkpt>
      <trkpt lat="48.20837" lon="6.6">
        <ele>408</ele>
        <time>2024-11-02T12:59:52Z</time>
      </trkpt>
      <trkpt lat="48.20831" lon="6.60013">
        <ele>408</ele>
        <time>2024-11-02T13:00:00Z</time>
      </trkpt>
      <trkpt lat="48.20824" lon="6.60022">
        <ele>408.1</ele>
        <time>2024-11-02T13:00:07Z</time>
      </trkpt>
      <trkpt lat="48.20816" lon="6.6003">
        <ele>408.3</ele>
        <time>2024-11-02T13:00:14Z</time>
      </trkpt>
      <trkpt lat="48.20808" lon="6.60039">
        <ele>408.5</ele>
        <time>2024-11-02T13:00:22Z</time>
      </trkpt>
      <trkpt lat="48.20801" lon="6.60047">
        <ele>408.7</ele>
        <time>2024-11-02T13:00:30Z</time>
      </trkpt>
      <trkpt lat="48.20793" lon="6.60056">
        <ele>409</ele>
        <time>2024-11-02T13:00:38Z</time>
      </trkpt>
      <trkpt lat="48.20784" lon="6.60059">
        <ele>409.4</ele>
        <time>2024-11-02T13:00:46Z</time>
      </trkpt>
      <trkpt lat="48.20775" lon="6.60063">
        <ele>409.9</ele>
        <time>2024-11-02T13:00:53Z</time>
      </trkpt>
      <trkpt lat="48.2077" lon="6.60075">
        <ele>410</ele>
        <time>2024-11-02T13:01:01Z</time>
      </trkpt>
      <trkpt lat="48.20774" lon="6.60084">
        <ele>409.7</ele>
        <time>2024-11-02T13:01:13Z</time>
      </trkpt>
      <trkpt lat="48.20774" lon="6.60084">
        <ele>409.7</ele>
        <time>2024-11-02T13:01:14Z</time>
      </trkpt>
      <trkpt lat="48.20774" lon="6.60084">
        <ele>409.7</ele>
        <time>2024-11-02T13:01:15Z</time>
      </trkpt>
      <trkpt lat="48.2078" lon="6.60082">
        <ele>409.4</ele>
        <time>2024-11-02T13:04:24Z</time>
      </trkpt>
      <trkpt lat="48.2078" lon="6.60083">
        <ele>409.4</ele>
        <time>2024-11-02T13:04:25Z</time>
      </trkpt>
      <trkpt lat="48.20781" lon="6.60082">
        <ele>409.4</ele>
        <time>2024-11-02T13:04:26Z</time>
      </trkpt>
      <trkpt lat="48.20781" lon="6.60083">
        <ele>409.4</ele>
        <time>2024-11-02T13:04:27Z</time>
      </trkpt>
      <trkpt lat="48.20781" lon="6.60083">
        <ele>409.4</ele>
        <time>2024-11-02T13:04:28Z</time>
      </trkpt>
      <trkpt lat="48.20785" lon="6.60091">
        <ele>409.1</ele>
        <time>2024-11-02T13:12:59Z</time>
      </trkpt>
      <trkpt lat="48.20785" lon="6.60091">
        <ele>409.1</ele>
        <time>2024-11-02T13:13:00Z</time>
      </trkpt>
      <trkpt lat="48.20785" lon="6.60091">
        <ele>409.1</ele>
        <time>2024-11-02T13:13:01Z</time>
      </trkpt>
      <trkpt lat="48.20785" lon="6.60091">
        <ele>409.1</ele>
        <time>2024-11-02T13:13:02Z</time>
      </trkpt>
      <trkpt lat="48.20785" lon="6.60091">
        <ele>409.1</ele>
        <time>2024-11-02T13:13:03Z</time>
      </trkpt>
      <trkpt lat="48.20786" lon="6.6009">
        <ele>409.1</ele>
        <time>2024-11-02T13:13:51Z</time>
      </trkpt>
      <trkpt lat="48.20786" lon="6.60089">
        <ele>409.1</ele>
        <time>2024-11-02T13:13:52Z</time>
      </trkpt>
      <trkpt lat="48.20789" lon="6.60076">
        <ele>408.8</ele>
        <time>2024-11-02T13:14:03Z</time>
      </trkpt>
      <trkpt lat="48.2079" lon="6.60075">
        <ele>408.8</ele>
        <time>2024-11-02T13:14:09Z</time>
      </trkpt>
      <trkpt lat="48.2079" lon="6.60075">
        <ele>408.8</ele>
        <time>2024-11-02T13:14:10Z</time>
      </trkpt>
      <trkpt lat="48.2079" lon="6.60075">
        <ele>408.8</ele>
        <time>2024-11-02T13:14:11Z</time>
      </trkpt>
      <trkpt lat="48.20789" lon="6.60075">
        <ele>408.8</ele>
        <time>2024-11-02T13:14:14Z</time>
      </trkpt>
      <trkpt lat="48.20789" lon="6.60075">
        <ele>408.8</ele>
        <time>2024-11-02T13:14:15Z</time>
      </trkpt>
      <trkpt lat="48.20789" lon="6.60075">
        <ele>408.8</ele>
        <time>2024-11-02T13:14:16Z</time>
      </trkpt>
      <trkpt lat="48.2079" lon="6.60075">
        <ele>408.7</ele>
        <time>2024-11-02T13:14:17Z</time>
      </trkpt>
      <trkpt lat="48.20789" lon="6.60075">
        <ele>408.7</ele>
        <time>2024-11-02T13:14:18Z</time>
      </trkpt>
      <trkpt lat="48.20789" lon="6.60075">
        <ele>408.7</ele>
        <time>2024-11-02T13:14:19Z</time>
      </trkpt>
      <trkpt lat="48.2079" lon="6.60074">
        <ele>408.7</ele>
        <time>2024-11-02T13:14:20Z</time>
      </trkpt>
      <trkpt lat="48.20799" lon="6.6007">
        <ele>408.5</ele>
        <time>2024-11-02T13:14:42Z</time>
      </trkpt>
      <trkpt lat="48.20807" lon="6.60061">
        <ele>408.3</ele>
        <time>2024-11-02T13:14:48Z</time>
      </trkpt>
      <trkpt lat="48.20816" lon="6.60055">
        <ele>408.2</ele>
        <time>2024-11-02T13:14:57Z</time>
      </trkpt>
      <trkpt lat="48.20824" lon="6.60047">
        <ele>408.1</ele>
        <time>2024-11-02T13:15:06Z</time>
      </trkpt>
      <trkpt lat="48.20831" lon="6.60039">
        <ele>408</ele>
        <time>2024-11-02T13:15:16Z</time>
      </trkpt>
      <trkpt lat="48.20838" lon="6.6003">
        <ele>408</ele>
        <time>2024-11-02T13:15:26Z</time>
      </trkpt>
      <trkpt lat="48.20844" lon="6.60019">
        <ele>408</ele>
        <time>2024-11-02T13:15:35Z</time>
      </trkpt>
      <trkpt lat="48.2085" lon="6.60008">
        <ele>408.1</ele>
        <time>2024-11-02T13:15:44Z</time>
      </trkpt>
      <trkpt lat="48.20857" lon="6.59998">
        <ele>408.2</ele>
        <time>2024-11-02T13:15:54Z</time>
      </trkpt>
      <trkpt lat="48.20863" lon="6.59987">
        <ele>408.4</ele>
        <time>2024-11-02T13:16:03Z</time>
      </trkpt>
      <trkpt lat="48.2087" lon="6.59978">
        <ele>408.6</ele>
        <time>2024-11-02T13:16:14Z</time>
      </trkpt>
      <trkpt lat="48.20878" lon="6.5997">
        <ele>408.6</ele>
        <time>2024-11-02T13:16:24Z</time>
      </trkpt>
      <trkpt lat="48.20886" lon="6.59963">
        <ele>408.6</ele>
        <time>2024-11-02T13:16:35Z</time>
      </trkpt>
      <trkpt lat="48.20894" lon="6.59956">
        <ele>408.6</ele>
        <time>2024-11-02T13:16:47Z</time>
      </trkpt>
      <trkpt lat="48.20902" lon="6.59948">
        <ele>408.6</ele>
        <time>2024-11-02T13:16:56Z</time>
      </trkpt>
      <trkpt lat="48.20912" lon="6.59943">
        <ele>408.5</ele>
        <time>2024-11-02T13:17:05Z</time>
      </trkpt>
      <trkpt lat="48.20921" lon="6.59939">
        <ele>408.4</ele>
        <time>2024-11-02T13:17:14Z</time>
      </trkpt>
      <trkpt lat="48.20929" lon="6.59931">
        <ele>408.2</ele>
        <time>2024-11-02T13:17:28Z</time>
      </trkpt>
      <trkpt lat="48.20936" lon="6.59922">
        <ele>408</ele>
        <time>2024-11-02T13:17:40Z</time>
      </trkpt>
      <trkpt lat="48.20943" lon="6.59913">
        <ele>407.7</ele>
        <time>2024-11-02T13:17:47Z</time>
      </trkpt>
      <trkpt lat="48.20952" lon="6.59906">
        <ele>407.3</ele>
        <time>2024-11-02T13:17:56Z</time>
      </trkpt>
      <trkpt lat="48.20961" lon="6.59901">
        <ele>406.9</ele>
        <time>2024-11-02T13:18:09Z</time>
      </trkpt>
      <trkpt lat="48.20969" lon="6.59895">
        <ele>406.6</ele>
        <time>2024-11-02T13:18:19Z</time>
      </trkpt>
      <trkpt lat="48.20977" lon="6.59889">
        <ele>406.2</ele>
        <time>2024-11-02T13:18:27Z</time>
      </trkpt>
      <trkpt lat="48.20986" lon="6.59889">
        <ele>405.8</ele>
        <time>2024-11-02T13:18:35Z</time>
      </trkpt>
      <trkpt lat="48.20996" lon="6.59885">
        <ele>405.3</ele>
        <time>2024-11-02T13:18:46Z</time>
      </trkpt>
      <trkpt lat="48.21006" lon="6.59881">
        <ele>404.7</ele>
        <time>2024-11-02T13:18:55Z</time>
      </trkpt>
      <trkpt lat="48.21015" lon="6.59879">
        <ele>404.2</ele>
        <time>2024-11-02T13:19:06Z</time>
      </trkpt>
      <trkpt lat="48.21025" lon="6.59876">
        <ele>403.7</ele>
        <time>2024-11-02T13:19:15Z</time>
      </trkpt>
      <trkpt lat="48.21034" lon="6.59873">
        <ele>403.3</ele>
        <time>2024-11-02T13:19:23Z</time>
      </trkpt>
      <trkpt lat="48.21043" lon="6.5987">
        <ele>402.9</ele>
        <time>2024-11-02T13:19:31Z</time>
      </trkpt>
      <trkpt lat="48.21053" lon="6.59869">
        <ele>402.5</ele>
        <time>2024-11-02T13:19:39Z</time>
      </trkpt>
      <trkpt lat="48.21062" lon="6.59865">
        <ele>402.1</ele>
        <time>2024-11-02T13:19:46Z</time>
      </trkpt>
      <trkpt lat="48.21071" lon="6.59861">
        <ele>401.9</ele>
        <time>2024-11-02T13:19:53Z</time>
      </trkpt>
      <trkpt lat="48.2108" lon="6.59854">
        <ele>401.6</ele>
        <time>2024-11-02T13:20:00Z</time>
      </trkpt>
      <trkpt lat="48.21089" lon="6.59847">
        <ele>401.3</ele>
        <time>2024-11-02T13:20:06Z</time>
      </trkpt>
      <trkpt lat="48.21097" lon="6.59838">
        <ele>401.1</ele>
        <time>2024-11-02T13:20:13Z</time>
      </trkpt>
      <trkpt lat="48.21104" lon="6.5983">
        <ele>400.9</ele>
        <time>2024-11-02T13:20:20Z</time>
      </trkpt>
      <trkpt lat="48.21112" lon="6.59821">
        <ele>400.8</ele>
        <time>2024-11-02T13:20:27Z</time>
      </trkpt>
      <trkpt lat="48.21119" lon="6.59813">
        <ele>400.6</ele>
        <time>2024-11-02T13:20:34Z</time>
      </trkpt>
      <trkpt lat="48.21127" lon="6.59803">
        <ele>400.5</ele>
        <time>2024-11-02T13:20:42Z</time>
      </trkpt>
      <trkpt lat="48.21134" lon="6.59795">
        <ele>400.3</ele>
        <time>2024-11-02T13:20:49Z</time>
      </trkpt>
      <trkpt lat="48.21142" lon="6.59787">
        <ele>400.2</ele>
        <time>2024-11-02T13:21:00Z</time>
      </trkpt>
      <trkpt lat="48.21149" lon="6.59779">
        <ele>400</ele>
        <time>2024-11-02T13:21:07Z</time>
      </trkpt>
      <trkpt lat="48.21154" lon="6.59774">
        <ele>400</ele>
        <time>2024-11-02T13:21:16Z</time>
      </trkpt>
      <trkpt lat="48.21154" lon="6.59774">
        <ele>400</ele>
        <time>2024-11-02T13:21:17Z</time>
      </trkpt>
      <trkpt lat="48.21155" lon="6.59769">
        <ele>399.9</ele>
        <time>2024-11-02T13:21:23Z</time>
      </trkpt>
      <trkpt lat="48.21156" lon="6.59768">
        <ele>399.9</ele>
        <time>2024-11-02T13:21:24Z</time>
      </trkpt>
      <trkpt lat="48.21157" lon="6.59767">
        <ele>399.9</ele>
        <time>2024-11-02T13:21:25Z</time>
      </trkpt>
      <trkpt lat="48.21165" lon="6.59758">
        <ele>399.7</ele>
        <time>2024-11-02T13:21:33Z</time>
      </trkpt>
      <trkpt lat="48.21172" lon="6.59748">
        <ele>399.5</ele>
        <time>2024-11-02T13:21:41Z</time>
      </trkpt>
      <trkpt lat="48.21179" lon="6.59739">
        <ele>399.2</ele>
        <time>2024-11-02T13:21:49Z</time>
      </trkpt>
      <trkpt lat="48.21187" lon="6.5973">
        <ele>399</ele>
        <time>2024-11-02T13:21:57Z</time>
      </trkpt>
      <trkpt lat="48.21196" lon="6.59721">
        <ele>398.7</ele>
        <time>2024-11-02T13:22:05Z</time>
      </trkpt>
      <trkpt lat="48.21204" lon="6.59714">
        <ele>398.5</ele>
        <time>2024-11-02T13:22:13Z</time>
      </trkpt>
      <trkpt lat="48.21212" lon="6.59705">
        <ele>398.3</ele>
        <time>2024-11-02T13:22:22Z</time>
      </trkpt>
      <trkpt lat="48.2122" lon="6.59697">
        <ele>398.1</ele>
        <time>2024-11-02T13:22:29Z</time>
      </trkpt>
      <trkpt lat="48.21227" lon="6.59689">
        <ele>397.9</ele>
        <time>2024-11-02T13:22:36Z</time>
      </trkpt>
      <trkpt lat="48.21235" lon="6.59682">
        <ele>397.6</ele>
        <time>2024-11-02T13:22:43Z</time>
      </trkpt>
      <trkpt lat="48.21242" lon="6.59674">
        <ele>397.3</ele>
        <time>2024-11-02T13:22:50Z</time>
      </trkpt>
      <trkpt lat="48.2125" lon="6.59667">
        <ele>397</ele>
        <time>2024-11-02T13:22:57Z</time>
      </trkpt>
      <trkpt lat="48.21259" lon="6.5966">
        <ele>396.7</ele>
        <time>2024-11-02T13:23:05Z</time>
      </trkpt>
      <trkpt lat="48.21267" lon="6.59652">
        <ele>396.3</ele>
        <time>2024-11-02T13:23:13Z</time>
      </trkpt>
      <trkpt lat="48.21275" lon="6.59644">
        <ele>395.9</ele>
        <time>2024-11-02T13:23:21Z</time>
      </trkpt>
      <trkpt lat="48.21283" lon="6.59637">
        <ele>395.6</ele>
        <time>2024-11-02T13:23:29Z</time>
      </trkpt>
      <trkpt lat="48.21292" lon="6.59629">
        <ele>395.2</ele>
        <time>2024-11-02T13:23:37Z</time>
      </trkpt>
      <trkpt lat="48.213" lon="6.59622">
        <ele>394.9</ele>
        <time>2024-11-02T13:23:45Z</time>
      </trkpt>
      <trkpt lat="48.21307" lon="6.59614">
        <ele>394.6</ele>
        <time>2024-11-02T13:23:53Z</time>
      </trkpt>
      <trkpt lat="48.21315" lon="6.59605">
        <ele>394.2</ele>
        <time>2024-11-02T13:24:01Z</time>
      </trkpt>
      <trkpt lat="48.21321" lon="6.59594">
        <ele>393.9</ele>
        <time>2024-11-02T13:24:09Z</time>
      </trkpt>
      <trkpt lat="48.21327" lon="6.59584">
        <ele>393.5</ele>
        <time>2024-11-02T13:24:17Z</time>
      </trkpt>
      <trkpt lat="48.21333" lon="6.59572">
        <ele>393.3</ele>
        <time>2024-11-02T13:24:25Z</time>
      </trkpt>
      <trkpt lat="48.21338" lon="6.5956">
        <ele>393.1</ele>
        <time>2024-11-02T13:24:33Z</time>
      </trkpt>
      <trkpt lat="48.21344" lon="6.59548">
        <ele>392.9</ele>
        <time>2024-11-02T13:24:41Z</time>
      </trkpt>
      <trkpt lat="48.21349" lon="6.59536">
        <ele>392.7</ele>
        <time>2024-11-02T13:24:49Z</time>
      </trkpt>
      <trkpt lat="48.21354" lon="6.59524">
        <ele>392.5</ele>
        <time>2024-11-02T13:24:57Z</time>
      </trkpt>
      <trkpt lat="48.21359" lon="6.59512">
        <ele>392.3</ele>
        <time>2024-11-02T13:25:05Z</time>
      </trkpt>
      <trkpt lat="48.21365" lon="6.595">
        <ele>392.1</ele>
        <time>2024-11-02T13:25:13Z</time>
      </trkpt>
      <trkpt lat="48.2137" lon="6.59488">
        <ele>391.9</ele>
        <time>2024-11-02T13:25:21Z</time>
      </trkpt>
      <trkpt lat="48.21376" lon="6.59477">
        <ele>391.8</ele>
        <time>2024-11-02T13:25:29Z</time>
      </trkpt>
      <trkpt lat="48.21381" lon="6.59465">
        <ele>391.6</ele>
        <time>2024-11-02T13:25:37Z</time>
      </trkpt>
      <trkpt lat="48.21387" lon="6.59452">
        <ele>391.4</ele>
        <time>2024-11-02T13:25:46Z</time>
      </trkpt>
      <trkpt lat="48.21393" lon="6.59442">
        <ele>391.2</ele>
        <time>2024-11-02T13:25:54Z</time>
      </trkpt>
      <trkpt lat="48.21399" lon="6.59431">
        <ele>391</ele>
        <time>2024-11-02T13:26:02Z</time>
      </trkpt>
      <trkpt lat="48.21405" lon="6.5942">
        <ele>390.8</ele>
        <time>2024-11-02T13:26:10Z</time>
      </trkpt>
      <trkpt lat="48.21411" lon="6.5941">
        <ele>390.6</ele>
        <time>2024-11-02T13:26:18Z</time>
      </trkpt>
      <trkpt lat="48.21418" lon="6.594">
        <ele>390.3</ele>
        <time>2024-11-02T13:26:26Z</time>
      </trkpt>
      <trkpt lat="48.21425" lon="6.59391">
        <ele>390.1</ele>
        <time>2024-11-02T13:26:34Z</time>
      </trkpt>
      <trkpt lat="48.21432" lon="6.59381">
        <ele>389.8</ele>
        <time>2024-11-02T13:26:42Z</time>
      </trkpt>
      <trkpt lat="48.21439" lon="6.5937">
        <ele>389.4</ele>
        <time>2024-11-02T13:26:50Z</time>
      </trkpt>
      <trkpt lat="48.21446" lon="6.59361">
        <ele>389.1</ele>
        <time>2024-11-02T13:26:58Z</time>
      </trkpt>
      <trkpt lat="48.21452" lon="6.59351">
        <ele>388.8</ele>
        <time>2024-11-02T13:27:06Z</time>
      </trkpt>
      <trkpt lat="48.21459" lon="6.59341">
        <ele>388.5</ele>
        <time>2024-11-02T13:27:14Z</time>
      </trkpt>
      <trkpt lat="48.21466" lon="6.59332">
        <ele>388.2</ele>
        <time>2024-11-02T13:27:22Z</time>
      </trkpt>
      <trkpt lat="48.21472" lon="6.59322">
        <ele>387.9</ele>
        <time>2024-11-02T13:27:30Z</time>
      </trkpt>
      <trkpt lat="48.2148" lon="6.59312">
        <ele>387.6</ele>
        <time>2024-11-02T13:27:38Z</time>
      </trkpt>
      <trkpt lat="48.21487" lon="6.59302">
        <ele>387.2</ele>
        <time>2024-11-02T13:27:46Z</time>
      </trkpt>
      <trkpt lat="48.21494" lon="6.59292">
        <ele>386.8</ele>
        <time>2024-11-02T13:27:55Z</time>
      </trkpt>
      <trkpt lat="48.21501" lon="6.59283">
        <ele>386.4</ele>
        <time>2024-11-02T13:28:03Z</time>
      </trkpt>
      <trkpt lat="48.21509" lon="6.59275">
        <ele>386</ele>
        <time>2024-11-02T13:28:11Z</time>
      </trkpt>
      <trkpt lat="48.21516" lon="6.59267">
        <ele>385.7</ele>
        <time>2024-11-02T13:28:19Z</time>
      </trkpt>
      <trkpt lat="48.21524" lon="6.59259">
        <ele>385.3</ele>
        <time>2024-11-02T13:28:28Z</time>
      </trkpt>
      <trkpt lat="48.21533" lon="6.5925">
        <ele>384.9</ele>
        <time>2024-11-02T13:28:37Z</time>
      </trkpt>
      <trkpt lat="48.21541" lon="6.59242">
        <ele>384.5</ele>
        <time>2024-11-02T13:28:46Z</time>
      </trkpt>
      <trkpt lat="48.21548" lon="6.59233">
        <ele>384.1</ele>
        <time>2024-11-02T13:28:54Z</time>
      </trkpt>
      <trkpt lat="48.21556" lon="6.59225">
        <ele>383.6</ele>
        <time>2024-11-02T13:29:02Z</time>
      </trkpt>
      <trkpt lat="48.21563" lon="6.59216">
        <ele>383</ele>
        <time>2024-11-02T13:29:10Z</time>
      </trkpt>
      <trkpt lat="48.2157" lon="6.59207">
        <ele>382.3</ele>
        <time>2024-11-02T13:29:18Z</time>
      </trkpt>
      <trkpt lat="48.21577" lon="6.59198">
        <ele>381.7</ele>
        <time>2024-11-02T13:29:26Z</time>
      </trkpt>
      <trkpt lat="48.21584" lon="6.5919">
        <ele>380.9</ele>
        <time>2024-11-02T13:29:34Z</time>
      </trkpt>
      <trkpt lat="48.21591" lon="6.59182">
        <ele>380.2</ele>
        <time>2024-11-02T13:29:42Z</time>
      </trkpt>
      <trkpt lat="48.21599" lon="6.59173">
        <ele>379.4</ele>
        <time>2024-11-02T13:29:50Z</time>
      </trkpt>
      <trkpt lat="48.21605" lon="6.59163">
        <ele>378.8</ele>
        <time>2024-11-02T13:29:58Z</time>
      </trkpt>
      <trkpt lat="48.21612" lon="6.59153">
        <ele>378.2</ele>
        <time>2024-11-02T13:30:08Z</time>
      </trkpt>
      <trkpt lat="48.2162" lon="6.59145">
        <ele>377.3</ele>
        <time>2024-11-02T13:30:18Z</time>
      </trkpt>
      <trkpt lat="48.2162" lon="6.59145">
        <ele>377.3</ele>
        <time>2024-11-02T13:30:24Z</time>
      </trkpt>
      <trkpt lat="48.2162" lon="6.59145">
        <ele>377.3</ele>
        <time>2024-11-02T13:30:25Z</time>
      </trkpt>
      <trkpt lat="48.2162" lon="6.59145">
        <ele>377.3</ele>
        <time>2024-11-02T13:30:26Z</time>
      </trkpt>
      <trkpt lat="48.2162" lon="6.59145">
        <ele>377.3</ele>
        <time>2024-11-02T13:30:27Z</time>
      </trkpt>
      <trkpt lat="48.2162" lon="6.59145">
        <ele>377.3</ele>
        <time>2024-11-02T13:30:28Z</time>
      </trkpt>
      <trkpt lat="48.2162" lon="6.59145">
        <ele>377.3</ele>
        <time>2024-11-02T13:30:29Z</time>
      </trkpt>
      <trkpt lat="48.2162" lon="6.59145">
        <ele>377.3</ele>
        <time>2024-11-02T13:30:30Z</time>
      </trkpt>
      <trkpt lat="48.21621" lon="6.59142">
        <ele>377.1</ele>
        <time>2024-11-02T13:30:44Z</time>
      </trkpt>
      <trkpt lat="48.21622" lon="6.59141">
        <ele>377</ele>
        <time>2024-11-02T13:30:45Z</time>
      </trkpt>
      <trkpt lat="48.2163" lon="6.59132">
        <ele>376.2</ele>
        <time>2024-11-02T13:30:53Z</time>
      </trkpt>
      <trkpt lat="48.21637" lon="6.59122">
        <ele>375.6</ele>
        <time>2024-11-02T13:31:01Z</time>
      </trkpt>
      <trkpt lat="48.21645" lon="6.59114">
        <ele>374.9</ele>
        <time>2024-11-02T13:31:09Z</time>
      </trkpt>
      <trkpt lat="48.21653" lon="6.59106">
        <ele>374.3</ele>
        <time>2024-11-02T13:31:17Z</time>
      </trkpt>
      <trkpt lat="48.21662" lon="6.59103">
        <ele>373.6</ele>
        <time>2024-11-02T13:31:25Z</time>
      </trkpt>
      <trkpt lat="48.21672" lon="6.59106">
        <ele>372.7</ele>
        <time>2024-11-02T13:31:33Z</time>
      </trkpt>
      <trkpt lat="48.21679" lon="6.59114">
        <ele>371.8</ele>
        <time>2024-11-02T13:31:41Z</time>
      </trkpt>
      <trkpt lat="48.21686" lon="6.59124">
        <ele>370.9</ele>
        <time>2024-11-02T13:31:49Z</time>
      </trkpt>
      <trkpt lat="48.21693" lon="6.59132">
        <ele>370.3</ele>
        <time>2024-11-02T13:31:57Z</time>
      </trkpt>
      <trkpt lat="48.21703" lon="6.5913">
        <ele>369.5</ele>
        <time>2024-11-02T13:32:05Z</time>
      </trkpt>
      <trkpt lat="48.21712" lon="6.59124">
        <ele>368.7</ele>
        <time>2024-11-02T13:32:13Z</time>
      </trkpt>
      <trkpt lat="48.21721" lon="6.59117">
        <ele>367.9</ele>
        <time>2024-11-02T13:32:21Z</time>
      </trkpt>
      <trkpt lat="48.21729" lon="6.59111">
        <ele>367.3</ele>
        <time>2024-11-02T13:32:29Z</time>
      </trkpt>
      <trkpt lat="48.21738" lon="6.59103">
        <ele>366.9</ele>
        <time>2024-11-02T13:32:37Z</time>
      </trkpt>
      <trkpt lat="48.21745" lon="6.59094">
        <ele>366.7</ele>
        <time>2024-11-02T13:32:45Z</time>
      </trkpt>
      <trkpt lat="48.21753" lon="6.59085">
        <ele>366.6</ele>
        <time>2024-11-02T13:32:53Z</time>
      </trkpt>
      <trkpt lat="48.21756" lon="6.59071">
        <ele>366.6</ele>
        <time>2024-11-02T13:33:02Z</time>
      </trkpt>
      <trkpt lat="48.21755" lon="6.59057">
        <ele>366.5</ele>
        <time>2024-11-02T13:33:10Z</time>
      </trkpt>
      <trkpt lat="48.21754" lon="6.59044">
        <ele>366.3</ele>
        <time>2024-11-02T13:33:18Z</time>
      </trkpt>
      <trkpt lat="48.21752" lon="6.5903">
        <ele>366</ele>
        <time>2024-11-02T13:33:26Z</time>
      </trkpt>
      <trkpt lat="48.21751" lon="6.59016">
        <ele>365.6</ele>
        <time>2024-11-02T13:33:34Z</time>
      </trkpt>
      <trkpt lat="48.21749" lon="6.59001">
        <ele>365</ele>
        <time>2024-11-02T13:33:42Z</time>
      </trkpt>
      <trkpt lat="48.2175" lon="6.58986">
        <ele>364.5</ele>
        <time>2024-11-02T13:33:50Z</time>
      </trkpt>
      <trkpt lat="48.21754" lon="6.58973">
        <ele>364.4</ele>
        <time>2024-11-02T13:33:58Z</time>
      </trkpt>
      <trkpt lat="48.21759" lon="6.5896">
        <ele>364.3</ele>
        <time>2024-11-02T13:34:06Z</time>
      </trkpt>
      <trkpt lat="48.21763" lon="6.58945">
        <ele>364.3</ele>
        <time>2024-11-02T13:34:14Z</time>
      </trkpt>
      <trkpt lat="48.21766" lon="6.58932">
        <ele>364.3</ele>
        <time>2024-11-02T13:34:21Z</time>
      </trkpt>
      <trkpt lat="48.21768" lon="6.58917">
        <ele>364.1</ele>
        <time>2024-11-02T13:34:29Z</time>
      </trkpt>
      <trkpt lat="48.21774" lon="6.58907">
        <ele>363.9</ele>
        <time>2024-11-02T13:34:37Z</time>
      </trkpt>
      <trkpt lat="48.21783" lon="6.58902">
        <ele>363.7</ele>
        <time>2024-11-02T13:34:45Z</time>
      </trkpt>
      <trkpt lat="48.21792" lon="6.58899">
        <ele>363.4</ele>
        <time>2024-11-02T13:34:53Z</time>
      </trkpt>
      <trkpt lat="48.21801" lon="6.58903">
        <ele>363.1</ele>
        <time>2024-11-02T13:35:01Z</time>
      </trkpt>
      <trkpt lat="48.2181" lon="6.58908">
        <ele>362.7</ele>
        <time>2024-11-02T13:35:10Z</time>
      </trkpt>
      <trkpt lat="48.2182" lon="6.58914">
        <ele>362.4</ele>
        <time>2024-11-02T13:35:19Z</time>
      </trkpt>
      <trkpt lat="48.21827" lon="6.58905">
        <ele>362.1</ele>
        <time>2024-11-02T13:35:28Z</time>
      </trkpt>
      <trkpt lat="48.2183" lon="6.58892">
        <ele>362.5</ele>
        <time>2024-11-02T13:35:36Z</time>
      </trkpt>
      <trkpt lat="48.21828" lon="6.58877">
        <ele>362.7</ele>
        <time>2024-11-02T13:35:44Z</time>
      </trkpt>
      <trkpt lat="48.21825" lon="6.58864">
        <ele>363</ele>
        <time>2024-11-02T13:35:52Z</time>
      </trkpt>
      <trkpt lat="48.21828" lon="6.58851">
        <ele>363.4</ele>
        <time>2024-11-02T13:36:03Z</time>
      </trkpt>
      <trkpt lat="48.2183" lon="6.58851">
        <ele>363.5</ele>
        <time>2024-11-02T13:36:09Z</time>
      </trkpt>
      <trkpt lat="48.2183" lon="6.58851">
        <ele>363.5</ele>
        <time>2024-11-02T13:36:10Z</time>
      </trkpt>
      <trkpt lat="48.21829" lon="6.58851">
        <ele>363.5</ele>
        <time>2024-11-02T13:36:11Z</time>
      </trkpt>
      <trkpt lat="48.21829" lon="6.58851">
        <ele>363.5</ele>
        <time>2024-11-02T13:36:12Z</time>
      </trkpt>
      <trkpt lat="48.21829" lon="6.5885">
        <ele>363.5</ele>
        <time>2024-11-02T13:36:13Z</time>
      </trkpt>
      <trkpt lat="48.21822" lon="6.58839">
        <ele>364</ele>
        <time>2024-11-02T13:36:22Z</time>
      </trkpt>
      <trkpt lat="48.2182" lon="6.58825">
        <ele>364.8</ele>
        <time>2024-11-02T13:36:30Z</time>
      </trkpt>
      <trkpt lat="48.21813" lon="6.58815">
        <ele>365.6</ele>
        <time>2024-11-02T13:36:38Z</time>
      </trkpt>
      <trkpt lat="48.21805" lon="6.58806">
        <ele>366.6</ele>
        <time>2024-11-02T13:36:46Z</time>
      </trkpt>
      <trkpt lat="48.21796" lon="6.58805">
        <ele>367.8</ele>
        <time>2024-11-02T13:36:53Z</time>
      </trkpt>
      <trkpt lat="48.21787" lon="6.58811">
        <ele>368.9</ele>
        <time>2024-11-02T13:37:00Z</time>
      </trkpt>
      <trkpt lat="48.21779" lon="6.58816">
        <ele>370</ele>
        <time>2024-11-02T13:37:07Z</time>
      </trkpt>
      <trkpt lat="48.21769" lon="6.5882">
        <ele>370.9</ele>
        <time>2024-11-02T13:37:15Z</time>
      </trkpt>
      <trkpt lat="48.2176" lon="6.58824">
        <ele>371.7</ele>
        <time>2024-11-02T13:37:23Z</time>
      </trkpt>
      <trkpt lat="48.21752" lon="6.58829">
        <ele>372.5</ele>
        <time>2024-11-02T13:37:30Z</time>
      </trkpt>
      <trkpt lat="48.21742" lon="6.58832">
        <ele>373.2</ele>
        <time>2024-11-02T13:37:38Z</time>
      </trkpt>
      <trkpt lat="48.21732" lon="6.5883">
        <ele>374</ele>
        <time>2024-11-02T13:37:46Z</time>
      </trkpt>
      <trkpt lat="48.21722" lon="6.58827">
        <ele>374.7</ele>
        <time>2024-11-02T13:37:54Z</time>
      </trkpt>
      <trkpt lat="48.21713" lon="6.58823">
        <ele>375.5</ele>
        <time>2024-11-02T13:38:01Z</time>
      </trkpt>
      <trkpt lat="48.21704" lon="6.5882">
        <ele>376.2</ele>
        <time>2024-11-02T13:38:08Z</time>
      </trkpt>
      <trkpt lat="48.21694" lon="6.58819">
        <ele>377</ele>
        <time>2024-11-02T13:38:16Z</time>
      </trkpt>
      <trkpt lat="48.21685" lon="6.58818">
        <ele>377.5</ele>
        <time>2024-11-02T13:38:24Z</time>
      </trkpt>
      <trkpt lat="48.21676" lon="6.58815">
        <ele>378.1</ele>
        <time>2024-11-02T13:38:32Z</time>
      </trkpt>
      <trkpt lat="48.21667" lon="6.58809">
        <ele>378.6</ele>
        <time>2024-11-02T13:38:40Z</time>
      </trkpt>
      <trkpt lat="48.21659" lon="6.58801">
        <ele>379.2</ele>
        <time>2024-11-02T13:38:48Z</time>
      </trkpt>
      <trkpt lat="48.2165" lon="6.58794">
        <ele>379.9</ele>
        <time>2024-11-02T13:38:56Z</time>
      </trkpt>
      <trkpt lat="48.21641" lon="6.58788">
        <ele>380.6</ele>
        <time>2024-11-02T13:39:04Z</time>
      </trkpt>
      <trkpt lat="48.21632" lon="6.58783">
        <ele>381</ele>
        <time>2024-11-02T13:39:11Z</time>
      </trkpt>
      <trkpt lat="48.21623" lon="6.5878">
        <ele>381.3</ele>
        <time>2024-11-02T13:39:19Z</time>
      </trkpt>
      <trkpt lat="48.21614" lon="6.58774">
        <ele>381.5</ele>
        <time>2024-11-02T13:39:27Z</time>
      </trkpt>
      <trkpt lat="48.21606" lon="6.58769">
        <ele>381.7</ele>
        <time>2024-11-02T13:39:35Z</time>
      </trkpt>
      <trkpt lat="48.21597" lon="6.58764">
        <ele>381.9</ele>
        <time>2024-11-02T13:39:43Z</time>
      </trkpt>
      <trkpt lat="48.21587" lon="6.58761">
        <ele>382.1</ele>
        <time>2024-11-02T13:39:51Z</time>
      </trkpt>
      <trkpt lat="48.21578" lon="6.58757">
        <ele>382.6</ele>
        <time>2024-11-02T13:39:58Z</time>
      </trkpt>
      <trkpt lat="48.21568" lon="6.58754">
        <ele>383.1</ele>
        <time>2024-11-02T13:40:06Z</time>
      </trkpt>
      <trkpt lat="48.21558" lon="6.58752">
        <ele>383.7</ele>
        <time>2024-11-02T13:40:14Z</time>
      </trkpt>
      <trkpt lat="48.21548" lon="6.58752">
        <ele>384.2</ele>
        <time>2024-11-02T13:40:22Z</time>
      </trkpt>
      <trkpt lat="48.21539" lon="6.58754">
        <ele>384.6</ele>
        <time>2024-11-02T13:40:30Z</time>
      </trkpt>
      <trkpt lat="48.21529" lon="6.58755">
        <ele>385</ele>
        <time>2024-11-02T13:40:38Z</time>
      </trkpt>
      <trkpt lat="48.21519" lon="6.58756">
        <ele>385.3</ele>
        <time>2024-11-02T13:40:46Z</time>
      </trkpt>
      <trkpt lat="48.2151" lon="6.5876">
        <ele>385.6</ele>
        <time>2024-11-02T13:40:55Z</time>
      </trkpt>
      <trkpt lat="48.21501" lon="6.58765">
        <ele>385.9</ele>
        <time>2024-11-02T13:41:03Z</time>
      </trkpt>
      <trkpt lat="48.21494" lon="6.58775">
        <ele>386.1</ele>
        <time>2024-11-02T13:41:11Z</time>
      </trkpt>
      <trkpt lat="48.21486" lon="6.58781">
        <ele>386.5</ele>
        <time>2024-11-02T13:41:19Z</time>
      </trkpt>
      <trkpt lat="48.21477" lon="6.58785">
        <ele>386.9</ele>
        <time>2024-11-02T13:41:27Z</time>
      </trkpt>
      <trkpt lat="48.21467" lon="6.58788">
        <ele>387.3</ele>
        <time>2024-11-02T13:41:35Z</time>
      </trkpt>
      <trkpt lat="48.21457" lon="6.58792">
        <ele>387.7</ele>
        <time>2024-11-02T13:41:43Z</time>
      </trkpt>
      <trkpt lat="48.21447" lon="6.58794">
        <ele>388.1</ele>
        <time>2024-11-02T13:41:51Z</time>
      </trkpt>
      <trkpt lat="48.21438" lon="6.58796">
        <ele>388.5</ele>
        <time>2024-11-02T13:41:58Z</time>
      </trkpt>
      <trkpt lat="48.21428" lon="6.588">
        <ele>388.9</ele>
        <time>2024-11-02T13:42:06Z</time>
      </trkpt>
      <trkpt lat="48.21419" lon="6.58802">
        <ele>389.3</ele>
        <time>2024-11-02T13:42:13Z</time>
      </trkpt>
      <trkpt lat="48.2141" lon="6.58806">
        <ele>389.7</ele>
        <time>2024-11-02T13:42:21Z</time>
      </trkpt>
      <trkpt lat="48.21401" lon="6.58809">
        <ele>390.1</ele>
        <time>2024-11-02T13:42:29Z</time>
      </trkpt>
      <trkpt lat="48.21392" lon="6.58811">
        <ele>390.5</ele>
        <time>2024-11-02T13:42:37Z</time>
      </trkpt>
      <trkpt lat="48.21382" lon="6.58815">
        <ele>390.9</ele>
        <time>2024-11-02T13:42:46Z</time>
      </trkpt>
      <trkpt lat="48.21373" lon="6.58816">
        <ele>391.4</ele>
        <time>2024-11-02T13:42:54Z</time>
      </trkpt>
      <trkpt lat="48.21363" lon="6.58818">
        <ele>391.9</ele>
        <time>2024-11-02T13:43:02Z</time>
      </trkpt>
      <trkpt lat="48.21353" lon="6.58822">
        <ele>392.5</ele>
        <time>2024-11-02T13:43:10Z</time>
      </trkpt>
      <trkpt lat="48.21345" lon="6.58824">
        <ele>393.1</ele>
        <time>2024-11-02T13:43:17Z</time>
      </trkpt>
      <trkpt lat="48.21336" lon="6.58828">
        <ele>393.7</ele>
        <time>2024-11-02T13:43:24Z</time>
      </trkpt>
      <trkpt lat="48.21327" lon="6.58833">
        <ele>394.2</ele>
        <time>2024-11-02T13:43:31Z</time>
      </trkpt>
      <trkpt lat="48.21319" lon="6.58838">
        <ele>394.7</ele>
        <time>2024-11-02T13:43:38Z</time>
      </trkpt>
      <trkpt lat="48.2131" lon="6.58844">
        <ele>395.2</ele>
        <time>2024-11-02T13:43:45Z</time>
      </trkpt>
      <trkpt lat="48.21302" lon="6.58849">
        <ele>395.8</ele>
        <time>2024-11-02T13:43:52Z</time>
      </trkpt>
      <trkpt lat="48.21293" lon="6.58854">
        <ele>396.4</ele>
        <time>2024-11-02T13:43:59Z</time>
      </trkpt>
      <trkpt lat="48.21283" lon="6.58859">
        <ele>397.1</ele>
        <time>2024-11-02T13:44:07Z</time>
      </trkpt>
      <trkpt lat="48.21274" lon="6.58865">
        <ele>397.7</ele>
        <time>2024-11-02T13:44:15Z</time>
      </trkpt>
      <trkpt lat="48.21265" lon="6.58869">
        <ele>398.3</ele>
        <time>2024-11-02T13:44:23Z</time>
      </trkpt>
      <trkpt lat="48.21256" lon="6.58872">
        <ele>398.9</ele>
        <time>2024-11-02T13:44:31Z</time>
      </trkpt>
      <trkpt lat="48.21247" lon="6.58873">
        <ele>399.4</ele>
        <time>2024-11-02T13:44:39Z</time>
      </trkpt>
      <trkpt lat="48.21237" lon="6.58876">
        <ele>399.8</ele>
        <time>2024-11-02T13:44:47Z</time>
      </trkpt>
      <trkpt lat="48.21228" lon="6.58876">
        <ele>400.2</ele>
        <time>2024-11-02T13:44:54Z</time>
      </trkpt>
      <trkpt lat="48.21218" lon="6.58876">
        <ele>400.5</ele>
        <time>2024-11-02T13:45:01Z</time>
      </trkpt>
      <trkpt lat="48.21208" lon="6.58879">
        <ele>400.9</ele>
        <time>2024-11-02T13:45:09Z</time>
      </trkpt>
      <trkpt lat="48.21199" lon="6.5888">
        <ele>401.2</ele>
        <time>2024-11-02T13:45:16Z</time>
      </trkpt>
      <trkpt lat="48.21189" lon="6.5888">
        <ele>401.5</ele>
        <time>2024-11-02T13:45:23Z</time>
      </trkpt>
      <trkpt lat="48.21179" lon="6.58881">
        <ele>401.8</ele>
        <time>2024-11-02T13:45:30Z</time>
      </trkpt>
      <trkpt lat="48.21169" lon="6.58883">
        <ele>402.1</ele>
        <time>2024-11-02T13:45:38Z</time>
      </trkpt>
      <trkpt lat="48.2116" lon="6.58885">
        <ele>402.4</ele>
        <time>2024-11-02T13:45:46Z</time>
      </trkpt>
      <trkpt lat="48.2115" lon="6.58887">
        <ele>402.5</ele>
        <time>2024-11-02T13:45:54Z</time>
      </trkpt>
      <trkpt lat="48.21141" lon="6.5889">
        <ele>402.5</ele>
        <time>2024-11-02T13:46:01Z</time>
      </trkpt>
      <trkpt lat="48.21132" lon="6.58891">
        <ele>402.4</ele>
        <time>2024-11-02T13:46:08Z</time>
      </trkpt>
      <trkpt lat="48.21122" lon="6.58893">
        <ele>402.2</ele>
        <time>2024-11-02T13:46:16Z</time>
      </trkpt>
      <trkpt lat="48.21113" lon="6.58897">
        <ele>402</ele>
        <time>2024-11-02T13:46:24Z</time>
      </trkpt>
      <trkpt lat="48.21103" lon="6.589">
        <ele>401.7</ele>
        <time>2024-11-02T13:46:32Z</time>
      </trkpt>
      <trkpt lat="48.21094" lon="6.58905">
        <ele>401.4</ele>
        <time>2024-11-02T13:46:40Z</time>
      </trkpt>
      <trkpt lat="48.21085" lon="6.5891">
        <ele>401.1</ele>
        <time>2024-11-02T13:46:48Z</time>
      </trkpt>
      <trkpt lat="48.21076" lon="6.58914">
        <ele>400.8</ele>
        <time>2024-11-02T13:46:56Z</time>
      </trkpt>
      <trkpt lat="48.21067" lon="6.58912">
        <ele>400.5</ele>
        <time>2024-11-02T13:47:02Z</time>
      </trkpt>
      <trkpt lat="48.21058" lon="6.58905">
        <ele>400</ele>
        <time>2024-11-02T13:47:10Z</time>
      </trkpt>
      <trkpt lat="48.21051" lon="6.58896">
        <ele>399.6</ele>
        <time>2024-11-02T13:47:16Z</time>
      </trkpt>
      <trkpt lat="48.21042" lon="6.5889">
        <ele>399.2</ele>
        <time>2024-11-02T13:47:24Z</time>
      </trkpt>
      <trkpt lat="48.21032" lon="6.58889">
        <ele>398.8</ele>
        <time>2024-11-02T13:47:34Z</time>
      </trkpt>
      <trkpt lat="48.21023" lon="6.58886">
        <ele>398.5</ele>
        <time>2024-11-02T13:47:40Z</time>
      </trkpt>
      <trkpt lat="48.21014" lon="6.58891">
        <ele>398.2</ele>
        <time>2024-11-02T13:47:47Z</time>
      </trkpt>
      <trkpt lat="48.21006" lon="6.58898">
        <ele>397.8</ele>
        <time>2024-11-02T13:47:54Z</time>
      </trkpt>
      <trkpt lat="48.20999" lon="6.58909">
        <ele>397.5</ele>
        <time>2024-11-02T13:48:02Z</time>
      </trkpt>
      <trkpt lat="48.20992" lon="6.5892">
        <ele>397</ele>
        <time>2024-11-02T13:48:10Z</time>
      </trkpt>
      <trkpt lat="48.20986" lon="6.58931">
        <ele>396.6</ele>
        <time>2024-11-02T13:48:18Z</time>
      </trkpt>
      <trkpt lat="48.2098" lon="6.58941">
        <ele>396.3</ele>
        <time>2024-11-02T13:48:26Z</time>
      </trkpt>
      <trkpt lat="48.20973" lon="6.58949">
        <ele>396</ele>
        <time>2024-11-02T13:48:34Z</time>
      </trkpt>
      <trkpt lat="48.20975" lon="6.58954">
        <ele>395.9</ele>
        <time>2024-11-02T13:48:43Z</time>
      </trkpt>
      <trkpt lat="48.20975" lon="6.58954">
        <ele>395.9</ele>
        <time>2024-11-02T13:48:44Z</time>
      </trkpt>
      <trkpt lat="48.20975" lon="6.58954">
        <ele>395.9</ele>
        <time>2024-11-02T13:48:45Z</time>
      </trkpt>
      <trkpt lat="48.20973" lon="6.58956">
        <ele>395.8</ele>
        <time>2024-11-02T13:48:59Z</time>
      </trkpt>
      <trkpt lat="48.20972" lon="6.58956">
        <ele>395.8</ele>
        <time>2024-11-02T13:49:00Z</time>
      </trkpt>
      <trkpt lat="48.20962" lon="6.58962">
        <ele>395.6</ele>
        <time>2024-11-02T13:49:08Z</time>
      </trkpt>
      <trkpt lat="48.20952" lon="6.58964">
        <ele>395.5</ele>
        <time>2024-11-02T13:49:15Z</time>
      </trkpt>
      <trkpt lat="48.20942" lon="6.58968">
        <ele>395.5</ele>
        <time>2024-11-02T13:49:22Z</time>
      </trkpt>
      <trkpt lat="48.20933" lon="6.5897">
        <ele>395.5</ele>
        <time>2024-11-02T13:49:29Z</time>
      </trkpt>
      <trkpt lat="48.20923" lon="6.58971">
        <ele>395.6</ele>
        <time>2024-11-02T13:49:37Z</time>
      </trkpt>
      <trkpt lat="48.20913" lon="6.58972">
        <ele>395.6</ele>
        <time>2024-11-02T13:49:43Z</time>
      </trkpt>
      <trkpt lat="48.20904" lon="6.58973">
        <ele>395.7</ele>
        <time>2024-11-02T13:49:50Z</time>
      </trkpt>
      <trkpt lat="48.20895" lon="6.58979">
        <ele>395.8</ele>
        <time>2024-11-02T13:49:57Z</time>
      </trkpt>
      <trkpt lat="48.20888" lon="6.58986">
        <ele>396</ele>
        <time>2024-11-02T13:50:04Z</time>
      </trkpt>
      <trkpt lat="48.20881" lon="6.58996">
        <ele>396.2</ele>
        <time>2024-11-02T13:50:12Z</time>
      </trkpt>
      <trkpt lat="48.20875" lon="6.59007">
        <ele>396.5</ele>
        <time>2024-11-02T13:50:20Z</time>
      </trkpt>
      <trkpt lat="48.20869" lon="6.59018">
        <ele>396.7</ele>
        <time>2024-11-02T13:50:27Z</time>
      </trkpt>
      <trkpt lat="48.20862" lon="6.59029">
        <ele>397</ele>
        <time>2024-11-02T13:50:35Z</time>
      </trkpt>
      <trkpt lat="48.20856" lon="6.5904">
        <ele>397.3</ele>
        <time>2024-11-02T13:50:43Z</time>
      </trkpt>
      <trkpt lat="48.20849" lon="6.5905">
        <ele>397.7</ele>
        <time>2024-11-02T13:50:50Z</time>
      </trkpt>
      <trkpt lat="48.20841" lon="6.5906">
        <ele>398</ele>
        <time>2024-11-02T13:50:57Z</time>
      </trkpt>
      <trkpt lat="48.20834" lon="6.5907">
        <ele>398.3</ele>
        <time>2024-11-02T13:51:05Z</time>
      </trkpt>
      <trkpt lat="48.20827" lon="6.59078">
        <ele>398.4</ele>
        <time>2024-11-02T13:51:12Z</time>
      </trkpt>
      <trkpt lat="48.2082" lon="6.59088">
        <ele>398.5</ele>
        <time>2024-11-02T13:51:19Z</time>
      </trkpt>
      <trkpt lat="48.20813" lon="6.59097">
        <ele>398.6</ele>
        <time>2024-11-02T13:51:26Z</time>
      </trkpt>
      <trkpt lat="48.20805" lon="6.59106">
        <ele>398.7</ele>
        <time>2024-11-02T13:51:34Z</time>
      </trkpt>
      <trkpt lat="48.20799" lon="6.59115">
        <ele>398.8</ele>
        <time>2024-11-02T13:51:41Z</time>
      </trkpt>
      <trkpt lat="48.20791" lon="6.59125">
        <ele>399.1</ele>
        <time>2024-11-02T13:51:49Z</time>
      </trkpt>
      <trkpt lat="48.20782" lon="6.59132">
        <ele>399.4</ele>
        <time>2024-11-02T13:51:57Z</time>
      </trkpt>
      <trkpt lat="48.20773" lon="6.59137">
        <ele>399.8</ele>
        <time>2024-11-02T13:52:05Z</time>
      </trkpt>
      <trkpt lat="48.20764" lon="6.59141">
        <ele>400.3</ele>
        <time>2024-11-02T13:52:12Z</time>
      </trkpt>
      <trkpt lat="48.20756" lon="6.59149">
        <ele>400.8</ele>
        <time>2024-11-02T13:52:20Z</time>
      </trkpt>
      <trkpt lat="48.20748" lon="6.59157">
        <ele>401.4</ele>
        <time>2024-11-02T13:52:28Z</time>
      </trkpt>
      <trkpt lat="48.20739" lon="6.59163">
        <ele>401.9</ele>
        <time>2024-11-02T13:52:36Z</time>
      </trkpt>
      <trkpt lat="48.2073" lon="6.59168">
        <ele>402.5</ele>
        <time>2024-11-02T13:52:44Z</time>
      </trkpt>
      <trkpt lat="48.20721" lon="6.59174">
        <ele>403.1</ele>
        <time>2024-11-02T13:52:52Z</time>
      </trkpt>
      <trkpt lat="48.20712" lon="6.59176">
        <ele>403.7</ele>
        <time>2024-11-02T13:52:59Z</time>
      </trkpt>
      <trkpt lat="48.20703" lon="6.59181">
        <ele>404.3</ele>
        <time>2024-11-02T13:53:06Z</time>
      </trkpt>
      <trkpt lat="48.20694" lon="6.59186">
        <ele>405</ele>
        <time>2024-11-02T13:53:13Z</time>
      </trkpt>
      <trkpt lat="48.20686" lon="6.59192">
        <ele>405.5</ele>
        <time>2024-11-02T13:53:20Z</time>
      </trkpt>
      <trkpt lat="48.20677" lon="6.59199">
        <ele>406</ele>
        <time>2024-11-02T13:53:28Z</time>
      </trkpt>
      <trkpt lat="48.20668" lon="6.59205">
        <ele>406.4</ele>
        <time>2024-11-02T13:53:36Z</time>
      </trkpt>
      <trkpt lat="48.20659" lon="6.5921">
        <ele>406.8</ele>
        <time>2024-11-02T13:53:44Z</time>
      </trkpt>
      <trkpt lat="48.20649" lon="6.59213">
        <ele>407.4</ele>
        <time>2024-11-02T13:53:51Z</time>
      </trkpt>
      <trkpt lat="48.2064" lon="6.59219">
        <ele>408</ele>
        <time>2024-11-02T13:54:03Z</time>
      </trkpt>
      <trkpt lat="48.2063" lon="6.59224">
        <ele>408.5</ele>
        <time>2024-11-02T13:54:10Z</time>
      </trkpt>
      <trkpt lat="48.20622" lon="6.59229">
        <ele>408.8</ele>
        <time>2024-11-02T13:54:17Z</time>
      </trkpt>
      <trkpt lat="48.20613" lon="6.59235">
        <ele>409.2</ele>
        <time>2024-11-02T13:54:23Z</time>
      </trkpt>
      <trkpt lat="48.20604" lon="6.5924">
        <ele>409.5</ele>
        <time>2024-11-02T13:54:30Z</time>
      </trkpt>
      <trkpt lat="48.20595" lon="6.59245">
        <ele>409.8</ele>
        <time>2024-11-02T13:54:37Z</time>
      </trkpt>
      <trkpt lat="48.20586" lon="6.5925">
        <ele>410.1</ele>
        <time>2024-11-02T13:54:45Z</time>
      </trkpt>
      <trkpt lat="48.20577" lon="6.59256">
        <ele>410.4</ele>
        <time>2024-11-02T13:54:53Z</time>
      </trkpt>
      <trkpt lat="48.20568" lon="6.59262">
        <ele>410.5</ele>
        <time>2024-11-02T13:55:00Z</time>
      </trkpt>
      <trkpt lat="48.20558" lon="6.59265">
        <ele>410.7</ele>
        <time>2024-11-02T13:55:08Z</time>
      </trkpt>
      <trkpt lat="48.20549" lon="6.5927">
        <ele>410.8</ele>
        <time>2024-11-02T13:55:16Z</time>
      </trkpt>
      <trkpt lat="48.2054" lon="6.59274">
        <ele>410.9</ele>
        <time>2024-11-02T13:55:24Z</time>
      </trkpt>
      <trkpt lat="48.20531" lon="6.59278">
        <ele>411</ele>
        <time>2024-11-02T13:55:32Z</time>
      </trkpt>
      <trkpt lat="48.20523" lon="6.59282">
        <ele>411.1</ele>
        <time>2024-11-02T13:55:40Z</time>
      </trkpt>
      <trkpt lat="48.20513" lon="6.59284">
        <ele>411.1</ele>
        <time>2024-11-02T13:55:48Z</time>
      </trkpt>
      <trkpt lat="48.20504" lon="6.59286">
        <ele>411.1</ele>
        <time>2024-11-02T13:55:56Z</time>
      </trkpt>
      <trkpt lat="48.20495" lon="6.59289">
        <ele>410.9</ele>
        <time>2024-11-02T13:56:04Z</time>
      </trkpt>
      <trkpt lat="48.20486" lon="6.59293">
        <ele>410.8</ele>
        <time>2024-11-02T13:56:12Z</time>
      </trkpt>
      <trkpt lat="48.20477" lon="6.59294">
        <ele>410.7</ele>
        <time>2024-11-02T13:56:19Z</time>
      </trkpt>
      <trkpt lat="48.20467" lon="6.59295">
        <ele>410.6</ele>
        <time>2024-11-02T13:56:26Z</time>
      </trkpt>
      <trkpt lat="48.20458" lon="6.59299">
        <ele>410.5</ele>
        <time>2024-11-02T13:56:36Z</time>
      </trkpt>
      <trkpt lat="48.20449" lon="6.59303">
        <ele>410.4</ele>
        <time>2024-11-02T13:56:44Z</time>
      </trkpt>
      <trkpt lat="48.20439" lon="6.59305">
        <ele>410.3</ele>
        <time>2024-11-02T13:56:52Z</time>
      </trkpt>
      <trkpt lat="48.20429" lon="6.59309">
        <ele>410.3</ele>
        <time>2024-11-02T13:57:00Z</time>
      </trkpt>
      <trkpt lat="48.2042" lon="6.59313">
        <ele>410.5</ele>
        <time>2024-11-02T13:57:07Z</time>
      </trkpt>
      <trkpt lat="48.20412" lon="6.59321">
        <ele>410.8</ele>
        <time>2024-11-02T13:57:15Z</time>
      </trkpt>
      <trkpt lat="48.20403" lon="6.59326">
        <ele>411.3</ele>
        <time>2024-11-02T13:57:23Z</time>
      </trkpt>
      <trkpt lat="48.20394" lon="6.59328">
        <ele>411.9</ele>
        <time>2024-11-02T13:57:31Z</time>
      </trkpt>
      <trkpt lat="48.20384" lon="6.59332">
        <ele>412.6</ele>
        <time>2024-11-02T13:57:39Z</time>
      </trkpt>
      <trkpt lat="48.20375" lon="6.59335">
        <ele>413.4</ele>
        <time>2024-11-02T13:57:47Z</time>
      </trkpt>
      <trkpt lat="48.2037" lon="6.59338">
        <ele>413.9</ele>
        <time>2024-11-02T13:58:01Z</time>
      </trkpt>
      <trkpt lat="48.2037" lon="6.59338">
        <ele>413.9</ele>
        <time>2024-11-02T13:58:02Z</time>
      </trkpt>
      <trkpt lat="48.2037" lon="6.59338">
        <ele>413.9</ele>
        <time>2024-11-02T13:58:03Z</time>
      </trkpt>
      <trkpt lat="48.20367" lon="6.5934">
        <ele>414.2</ele>
        <time>2024-11-02T13:58:07Z</time>
      </trkpt>
      <trkpt lat="48.20367" lon="6.59341">
        <ele>414.3</ele>
        <time>2024-11-02T13:58:08Z</time>
      </trkpt>
      <trkpt lat="48.20359" lon="6.5935">
        <ele>415.2</ele>
        <time>2024-11-02T13:58:18Z</time>
      </trkpt>
      <trkpt lat="48.20352" lon="6.59361">
        <ele>416.2</ele>
        <time>2024-11-02T13:58:27Z</time>
      </trkpt>
      <trkpt lat="48.20345" lon="6.5937">
        <ele>417.1</ele>
        <time>2024-11-02T13:58:35Z</time>
      </trkpt>
      <trkpt lat="48.20337" lon="6.59377">
        <ele>417.8</ele>
        <time>2024-11-02T13:58:43Z</time>
      </trkpt>
      <trkpt lat="48.20329" lon="6.59384">
        <ele>418.4</ele>
        <time>2024-11-02T13:58:50Z</time>
      </trkpt>
      <trkpt lat="48.20322" lon="6.59393">
        <ele>419</ele>
        <time>2024-11-02T13:58:58Z</time>
      </trkpt>
      <trkpt lat="48.20313" lon="6.59398">
        <ele>419.6</ele>
        <time>2024-11-02T13:59:06Z</time>
      </trkpt>
      <trkpt lat="48.20305" lon="6.59405">
        <ele>420.1</ele>
        <time>2024-11-02T13:59:15Z</time>
      </trkpt>
      <trkpt lat="48.20304" lon="6.59407">
        <ele>420.2</ele>
        <time>2024-11-02T13:59:21Z</time>
      </trkpt>
      <trkpt lat="48.20304" lon="6.59407">
        <ele>420.2</ele>
        <time>2024-11-02T13:59:22Z</time>
      </trkpt>
      <trkpt lat="48.20304" lon="6.59407">
        <ele>420.2</ele>
        <time>2024-11-02T13:59:23Z</time>
      </trkpt>
      <trkpt lat="48.20303" lon="6.59407">
        <ele>420.2</ele>
        <time>2024-11-02T13:59:31Z</time>
      </trkpt>
      <trkpt lat="48.20303" lon="6.59407">
        <ele>420.2</ele>
        <time>2024-11-02T13:59:32Z</time>
      </trkpt>
      <trkpt lat="48.20295" lon="6.59416">
        <ele>420.7</ele>
        <time>2024-11-02T13:59:42Z</time>
      </trkpt>
      <trkpt lat="48.20287" lon="6.59422">
        <ele>421</ele>
        <time>2024-11-02T13:59:50Z</time>
      </trkpt>
      <trkpt lat="48.20278" lon="6.59426">
        <ele>421.4</ele>
        <time>2024-11-02T13:59:58Z</time>
      </trkpt>
      <trkpt lat="48.20269" lon="6.59429">
        <ele>421.7</ele>
        <time>2024-11-02T14:00:06Z</time>
      </trkpt>
      <trkpt lat="48.20258" lon="6.5943">
        <ele>422.1</ele>
        <time>2024-11-02T14:00:14Z</time>
      </trkpt>
      <trkpt lat="48.20251" lon="6.59438">
        <ele>422.5</ele>
        <time>2024-11-02T14:00:23Z</time>
      </trkpt>
      <trkpt lat="48.20241" lon="6.59443">
        <ele>422.9</ele>
        <time>2024-11-02T14:00:33Z</time>
      </trkpt>
      <trkpt lat="48.20232" lon="6.59449">
        <ele>423.3</ele>
        <time>2024-11-02T14:00:44Z</time>
      </trkpt>
      <trkpt lat="48.20228" lon="6.59452">
        <ele>423.5</ele>
        <time>2024-11-02T14:00:53Z</time>
      </trkpt>
      <trkpt lat="48.20228" lon="6.59452">
        <ele>423.5</ele>
        <time>2024-11-02T14:00:54Z</time>
      </trkpt>
      <trkpt lat="48.20228" lon="6.59452">
        <ele>423.5</ele>
        <time>2024-11-02T14:00:55Z</time>
      </trkpt>
      <trkpt lat="48.20225" lon="6.59454">
        <ele>423.7</ele>
        <time>2024-11-02T14:01:04Z</time>
      </trkpt>
      <trkpt lat="48.20224" lon="6.59455">
        <ele>423.7</ele>
        <time>2024-11-02T14:01:05Z</time>
      </trkpt>
      <trkpt lat="48.20215" lon="6.5946">
        <ele>424.1</ele>
        <time>2024-11-02T14:01:12Z</time>
      </trkpt>
      <trkpt lat="48.20207" lon="6.59465">
        <ele>424.4</ele>
        <time>2024-11-02T14:01:19Z</time>
      </trkpt>
      <trkpt lat="48.20198" lon="6.59473">
        <ele>424.8</ele>
        <time>2024-11-02T14:01:27Z</time>
      </trkpt>
      <trkpt lat="48.20188" lon="6.59475">
        <ele>425.1</ele>
        <time>2024-11-02T14:01:34Z</time>
      </trkpt>
      <trkpt lat="48.20178" lon="6.59475">
        <ele>425.4</ele>
        <time>2024-11-02T14:01:41Z</time>
      </trkpt>
      <trkpt lat="48.20169" lon="6.59476">
        <ele>425.7</ele>
        <time>2024-11-02T14:01:45Z</time>
      </trkpt>
      <trkpt lat="48.20158" lon="6.59474">
        <ele>426.1</ele>
        <time>2024-11-02T14:01:49Z</time>
      </trkpt>
      <trkpt lat="48.20148" lon="6.59477">
        <ele>426.5</ele>
        <time>2024-11-02T14:01:53Z</time>
      </trkpt>
      <trkpt lat="48.20138" lon="6.59479">
        <ele>426.9</ele>
        <time>2024-11-02T14:01:56Z</time>
      </trkpt>
      <trkpt lat="48.2013" lon="6.59472">
        <ele>427.2</ele>
        <time>2024-11-02T14:02:16Z</time>
      </trkpt>
      <trkpt lat="48.2012" lon="6.59471">
        <ele>427.6</ele>
        <time>2024-11-02T14:02:26Z</time>
      </trkpt>
      <trkpt lat="48.20111" lon="6.59473">
        <ele>428</ele>
        <time>2024-11-02T14:02:36Z</time>
      </trkpt>
      <trkpt lat="48.20101" lon="6.59474">
        <ele>428.5</ele>
        <time>2024-11-02T14:02:50Z</time>
      </trkpt>
      <trkpt lat="48.20093" lon="6.59482">
        <ele>429.1</ele>
        <time>2024-11-02T14:03:03Z</time>
      </trkpt>
      <trkpt lat="48.20084" lon="6.59488">
        <ele>429.6</ele>
        <time>2024-11-02T14:03:09Z</time>
      </trkpt>
      <trkpt lat="48.20075" lon="6.59493">
        <ele>430.2</ele>
        <time>2024-11-02T14:03:15Z</time>
      </trkpt>
      <trkpt lat="48.20066" lon="6.595">
        <ele>430.7</ele>
        <time>2024-11-02T14:03:23Z</time>
      </trkpt>
      <trkpt lat="48.20058" lon="6.5951">
        <ele>431.4</ele>
        <time>2024-11-02T14:03:30Z</time>
      </trkpt>
      <trkpt lat="48.2005" lon="6.59517">
        <ele>432</ele>
        <time>2024-11-02T14:03:38Z</time>
      </trkpt>
      <trkpt lat="48.20044" lon="6.59528">
        <ele>432.6</ele>
        <time>2024-11-02T14:03:46Z</time>
      </trkpt>
      <trkpt lat="48.20036" lon="6.59538">
        <ele>433.3</ele>
        <time>2024-11-02T14:03:56Z</time>
      </trkpt>
      <trkpt lat="48.20028" lon="6.59546">
        <ele>433.8</ele>
        <time>2024-11-02T14:04:04Z</time>
      </trkpt>
      <trkpt lat="48.20022" lon="6.59556">
        <ele>434.2</ele>
        <time>2024-11-02T14:04:11Z</time>
      </trkpt>
      <trkpt lat="48.20014" lon="6.59566">
        <ele>434.5</ele>
        <time>2024-11-02T14:04:17Z</time>
      </trkpt>
      <trkpt lat="48.20005" lon="6.59571">
        <ele>434.7</ele>
        <time>2024-11-02T14:04:25Z</time>
      </trkpt>
      <trkpt lat="48.19996" lon="6.59576">
        <ele>434.6</ele>
        <time>2024-11-02T14:04:33Z</time>
      </trkpt>
      <trkpt lat="48.1999" lon="6.59588">
        <ele>434.6</ele>
        <time>2024-11-02T14:04:43Z</time>
      </trkpt>
      <trkpt lat="48.19985" lon="6.596">
        <ele>434.6</ele>
        <time>2024-11-02T14:04:51Z</time>
      </trkpt>
      <trkpt lat="48.19977" lon="6.5961">
        <ele>434.8</ele>
        <time>2024-11-02T14:04:58Z</time>
      </trkpt>
      <trkpt lat="48.19974" lon="6.59623">
        <ele>435.1</ele>
        <time>2024-11-02T14:05:06Z</time>
      </trkpt>
      <trkpt lat="48.19968" lon="6.59635">
        <ele>435.7</ele>
        <time>2024-11-02T14:05:14Z</time>
      </trkpt>
      <trkpt lat="48.19963" lon="6.59647">
        <ele>436.3</ele>
        <time>2024-11-02T14:05:22Z</time>
      </trkpt>
      <trkpt lat="48.19956" lon="6.59658">
        <ele>437.1</ele>
        <time>2024-11-02T14:05:30Z</time>
      </trkpt>
      <trkpt lat="48.1995" lon="6.59669">
        <ele>438</ele>
        <time>2024-11-02T14:05:38Z</time>
      </trkpt>
      <trkpt lat="48.19941" lon="6.59677">
        <ele>438.7</ele>
        <time>2024-11-02T14:05:46Z</time>
      </trkpt>
      <trkpt lat="48.19933" lon="6.59685">
        <ele>439.4</ele>
        <time>2024-11-02T14:05:54Z</time>
      </trkpt>
      <trkpt lat="48.19926" lon="6.59694">
        <ele>439.9</ele>
        <time>2024-11-02T14:06:02Z</time>
      </trkpt>
      <trkpt lat="48.1992" lon="6.59704">
        <ele>440.3</ele>
        <time>2024-11-02T14:06:10Z</time>
      </trkpt>
      <trkpt lat="48.19911" lon="6.59711">
        <ele>440.7</ele>
        <time>2024-11-02T14:06:18Z</time>
      </trkpt>
      <trkpt lat="48.19902" lon="6.59716">
        <ele>441.1</ele>
        <time>2024-11-02T14:06:26Z</time>
      </trkpt>
      <trkpt lat="48.19892" lon="6.59719">
        <ele>441.5</ele>
        <time>2024-11-02T14:06:34Z</time>
      </trkpt>
      <trkpt lat="48.19882" lon="6.59718">
        <ele>442</ele>
        <time>2024-11-02T14:06:42Z</time>
      </trkpt>
      <trkpt lat="48.19873" lon="6.59725">
        <ele>442.4</ele>
        <time>2024-11-02T14:06:50Z</time>
      </trkpt>
      <trkpt lat="48.19864" lon="6.59729">
        <ele>442.9</ele>
        <time>2024-11-02T14:06:58Z</time>
      </trkpt>
      <trkpt lat="48.19856" lon="6.59737">
        <ele>443.3</ele>
        <time>2024-11-02T14:07:06Z</time>
      </trkpt>
      <trkpt lat="48.19846" lon="6.59739">
        <ele>443.8</ele>
        <time>2024-11-02T14:07:13Z</time>
      </trkpt>
      <trkpt lat="48.19838" lon="6.59747">
        <ele>444.3</ele>
        <time>2024-11-02T14:07:22Z</time>
      </trkpt>
      <trkpt lat="48.19829" lon="6.59753">
        <ele>444.8</ele>
        <time>2024-11-02T14:07:30Z</time>
      </trkpt>
      <trkpt lat="48.1982" lon="6.59756">
        <ele>445.3</ele>
        <time>2024-11-02T14:07:38Z</time>
      </trkpt>
      <trkpt lat="48.19811" lon="6.59757">
        <ele>445.6</ele>
        <time>2024-11-02T14:07:46Z</time>
      </trkpt>
      <trkpt lat="48.19801" lon="6.59754">
        <ele>446</ele>
        <time>2024-11-02T14:07:53Z</time>
      </trkpt>
      <trkpt lat="48.19792" lon="6.59749">
        <ele>446.2</ele>
        <time>2024-11-02T14:08:00Z</time>
      </trkpt>
      <trkpt lat="48.19783" lon="6.59751">
        <ele>446.5</ele>
        <time>2024-11-02T14:08:09Z</time>
      </trkpt>
      <trkpt lat="48.19773" lon="6.59749">
        <ele>446.8</ele>
        <time>2024-11-02T14:08:17Z</time>
      </trkpt>
      <trkpt lat="48.19764" lon="6.5975">
        <ele>447.1</ele>
        <time>2024-11-02T14:08:25Z</time>
      </trkpt>
      <trkpt lat="48.19754" lon="6.59749">
        <ele>447.4</ele>
        <time>2024-11-02T14:08:32Z</time>
      </trkpt>
      <trkpt lat="48.19746" lon="6.59755">
        <ele>447.6</ele>
        <time>2024-11-02T14:08:40Z</time>
      </trkpt>
      <trkpt lat="48.19737" lon="6.59761">
        <ele>447.9</ele>
        <time>2024-11-02T14:08:46Z</time>
      </trkpt>
      <trkpt lat="48.1973" lon="6.59773">
        <ele>448.1</ele>
        <time>2024-11-02T14:08:53Z</time>
      </trkpt>
      <trkpt lat="48.19723" lon="6.59784">
        <ele>448.3</ele>
        <time>2024-11-02T14:09:01Z</time>
      </trkpt>
      <trkpt lat="48.19714" lon="6.59789">
        <ele>448.6</ele>
        <time>2024-11-02T14:09:11Z</time>
      </trkpt>
      <trkpt lat="48.19706" lon="6.59793">
        <ele>448.8</ele>
        <time>2024-11-02T14:09:19Z</time>
      </trkpt>
      <trkpt lat="48.19696" lon="6.59798">
        <ele>449.1</ele>
        <time>2024-11-02T14:09:27Z</time>
      </trkpt>
      <trkpt lat="48.19688" lon="6.59802">
        <ele>449.3</ele>
        <time>2024-11-02T14:09:34Z</time>
      </trkpt>
      <trkpt lat="48.1968" lon="6.59808">
        <ele>449.4</ele>
        <time>2024-11-02T14:09:41Z</time>
      </trkpt>
      <trkpt lat="48.19671" lon="6.59812">
        <ele>449.6</ele>
        <time>2024-11-02T14:09:49Z</time>
      </trkpt>
      <trkpt lat="48.19662" lon="6.59816">
        <ele>449.8</ele>
        <time>2024-11-02T14:09:57Z</time>
      </trkpt>
      <trkpt lat="48.19653" lon="6.5982">
        <ele>450.1</ele>
        <time>2024-11-02T14:10:04Z</time>
      </trkpt>
      <trkpt lat="48.19644" lon="6.59824">
        <ele>450.5</ele>
        <time>2024-11-02T14:10:15Z</time>
      </trkpt>
      <trkpt lat="48.19634" lon="6.59826">
        <ele>451.1</ele>
        <time>2024-11-02T14:10:24Z</time>
      </trkpt>
      <trkpt lat="48.19625" lon="6.59829">
        <ele>451.7</ele>
        <time>2024-11-02T14:10:30Z</time>
      </trkpt>
      <trkpt lat="48.19615" lon="6.59831">
        <ele>452.3</ele>
        <time>2024-11-02T14:10:38Z</time>
      </trkpt>
      <trkpt lat="48.19606" lon="6.59834">
        <ele>452.9</ele>
        <time>2024-11-02T14:10:46Z</time>
      </trkpt>
      <trkpt lat="48.19603" lon="6.59836">
        <ele>453.1</ele>
        <time>2024-11-02T14:10:52Z</time>
      </trkpt>
      <trkpt lat="48.19603" lon="6.59836">
        <ele>453.1</ele>
        <time>2024-11-02T14:10:53Z</time>
      </trkpt>
      <trkpt lat="48.19602" lon="6.59837">
        <ele>453.2</ele>
        <time>2024-11-02T14:10:59Z</time>
      </trkpt>
      <trkpt lat="48.19601" lon="6.59837">
        <ele>453.2</ele>
        <time>2024-11-02T14:11:00Z</time>
      </trkpt>
      <trkpt lat="48.19594" lon="6.59837">
        <ele>453.7</ele>
        <time>2024-11-02T14:11:16Z</time>
      </trkpt>
      <trkpt lat="48.19594" lon="6.59837">
        <ele>453.7</ele>
        <time>2024-11-02T14:11:17Z</time>
      </trkpt>
      <trkpt lat="48.19594" lon="6.59838">
        <ele>453.7</ele>
        <time>2024-11-02T14:11:31Z</time>
      </trkpt>
      <trkpt lat="48.19594" lon="6.59838">
        <ele>453.7</ele>
        <time>2024-11-02T14:11:32Z</time>
      </trkpt>
      <trkpt lat="48.19594" lon="6.59838">
        <ele>453.7</ele>
        <time>2024-11-02T14:11:33Z</time>
      </trkpt>
      <trkpt lat="48.19594" lon="6.59838">
        <ele>453.7</ele>
        <time>2024-11-02T14:11:34Z</time>
      </trkpt>
      <trkpt lat="48.19594" lon="6.59838">
        <ele>453.7</ele>
        <time>2024-11-02T14:11:35Z</time>
      </trkpt>
      <trkpt lat="48.19595" lon="6.59839">
        <ele>453.8</ele>
        <time>2024-11-02T14:11:36Z</time>
      </trkpt>
      <trkpt lat="48.19596" lon="6.5984">
        <ele>453.9</ele>
        <time>2024-11-02T14:11:37Z</time>
      </trkpt>
      <trkpt lat="48.19596" lon="6.5984">
        <ele>453.9</ele>
        <time>2024-11-02T14:11:38Z</time>
      </trkpt>
      <trkpt lat="48.19596" lon="6.59842">
        <ele>454</ele>
        <time>2024-11-02T14:11:48Z</time>
      </trkpt>
      <trkpt lat="48.19596" lon="6.59842">
        <ele>454</ele>
        <time>2024-11-02T14:11:49Z</time>
      </trkpt>
      <trkpt lat="48.19596" lon="6.59842">
        <ele>454</ele>
        <time>2024-11-02T14:11:50Z</time>
      </trkpt>
      <trkpt lat="48.19596" lon="6.59842">
        <ele>454</ele>
        <time>2024-11-02T14:12:21Z</time>
      </trkpt>
      <trkpt lat="48.19596" lon="6.59842">
        <ele>454</ele>
        <time>2024-11-02T14:12:22Z</time>
      </trkpt>
      <trkpt lat="48.19596" lon="6.59842">
        <ele>454</ele>
        <time>2024-11-02T14:12:23Z</time>
      </trkpt>
      <trkpt lat="48.19596" lon="6.59842">
        <ele>454</ele>
        <time>2024-11-02T14:12:24Z</time>
      </trkpt>
      <trkpt lat="48.19596" lon="6.59842">
        <ele>454</ele>
        <time>2024-11-02T14:12:25Z</time>
      </trkpt>
      <trkpt lat="48.19597" lon="6.59839">
        <ele>454.2</ele>
        <time>2024-11-02T14:12:51Z</time>
      </trkpt>
      <trkpt lat="48.19597" lon="6.59837">
        <ele>454.2</ele>
        <time>2024-11-02T14:12:52Z</time>
      </trkpt>
      <trkpt lat="48.19597" lon="6.59836">
        <ele>454.3</ele>
        <time>2024-11-02T14:12:53Z</time>
      </trkpt>
      <trkpt lat="48.1959" lon="6.59829">
        <ele>454.8</ele>
        <time>2024-11-02T14:13:04Z</time>
      </trkpt>
      <trkpt lat="48.1959" lon="6.59829">
        <ele>454.8</ele>
        <time>2024-11-02T14:13:05Z</time>
      </trkpt>
      <trkpt lat="48.1959" lon="6.59829">
        <ele>454.8</ele>
        <time>2024-11-02T14:13:06Z</time>
      </trkpt>
      <trkpt lat="48.1959" lon="6.59829">
        <ele>454.8</ele>
        <time>2024-11-02T14:13:07Z</time>
      </trkpt>
      <trkpt lat="48.1959" lon="6.59829">
        <ele>454.8</ele>
        <time>2024-11-02T14:13:08Z</time>
      </trkpt>
      <trkpt lat="48.1959" lon="6.59829">
        <ele>454.8</ele>
        <time>2024-11-02T14:13:09Z</time>
      </trkpt>
      <trkpt lat="48.1959" lon="6.59829">
        <ele>454.8</ele>
        <time>2024-11-02T14:13:10Z</time>
      </trkpt>
      <trkpt lat="48.1959" lon="6.59829">
        <ele>454.8</ele>
        <time>2024-11-02T14:13:11Z</time>
      </trkpt>
      <trkpt lat="48.1959" lon="6.59829">
        <ele>454.8</ele>
        <time>2024-11-02T14:13:18Z</time>
      </trkpt>
      <trkpt lat="48.1959" lon="6.59829">
        <ele>454.8</ele>
        <time>2024-11-02T14:13:19Z</time>
      </trkpt>
      <trkpt lat="48.1959" lon="6.59829">
        <ele>454.9</ele>
        <time>2024-11-02T14:13:22Z</time>
      </trkpt>
      <trkpt lat="48.1959" lon="6.59829">
        <ele>454.9</ele>
        <time>2024-11-02T14:13:23Z</time>
      </trkpt>
      <trkpt lat="48.1959" lon="6.59829">
        <ele>454.9</ele>
        <time>2024-11-02T14:13:57Z</time>
      </trkpt>
      <trkpt lat="48.1959" lon="6.59829">
        <ele>454.9</ele>
        <time>2024-11-02T14:13:58Z</time>
      </trkpt>
      <trkpt lat="48.1959" lon="6.59829">
        <ele>454.9</ele>
        <time>2024-11-02T14:13:59Z</time>
      </trkpt>
      <trkpt lat="48.1959" lon="6.59829">
        <ele>454.9</ele>
        <time>2024-11-02T14:14:00Z</time>
      </trkpt>
      <trkpt lat="48.1959" lon="6.59829">
        <ele>454.9</ele>
        <time>2024-11-02T14:14:01Z</time>
      </trkpt>
      <trkpt lat="48.19592" lon="6.59833">
        <ele>455.1</ele>
        <time>2024-11-02T14:14:07Z</time>
      </trkpt>
      <trkpt lat="48.19593" lon="6.59835">
        <ele>455.2</ele>
        <time>2024-11-02T14:14:08Z</time>
      </trkpt>
      <trkpt lat="48.19595" lon="6.5985">
        <ele>455.8</ele>
        <time>2024-11-02T14:14:16Z</time>
      </trkpt>
      <trkpt lat="48.19593" lon="6.59864">
        <ele>456.4</ele>
        <time>2024-11-02T14:14:23Z</time>
      </trkpt>
      <trkpt lat="48.19595" lon="6.59878">
        <ele>456.9</ele>
        <time>2024-11-02T14:14:32Z</time>
      </trkpt>
      <trkpt lat="48.19602" lon="6.59889">
        <ele>457.1</ele>
        <time>2024-11-02T14:14:40Z</time>
      </trkpt>
      <trkpt lat="48.19608" lon="6.599">
        <ele>457.2</ele>
        <time>2024-11-02T14:14:47Z</time>
      </trkpt>
      <trkpt lat="48.19614" lon="6.59911">
        <ele>457.5</ele>
        <time>2024-11-02T14:14:55Z</time>
      </trkpt>
      <trkpt lat="48.19614" lon="6.59925">
        <ele>458.1</ele>
        <time>2024-11-02T14:15:03Z</time>
      </trkpt>
      <trkpt lat="48.19612" lon="6.59939">
        <ele>458.9</ele>
        <time>2024-11-02T14:15:13Z</time>
      </trkpt>
      <trkpt lat="48.19606" lon="6.5995">
        <ele>460</ele>
        <time>2024-11-02T14:15:22Z</time>
      </trkpt>
      <trkpt lat="48.19598" lon="6.59959">
        <ele>461.3</ele>
        <time>2024-11-02T14:15:30Z</time>
      </trkpt>
      <trkpt lat="48.1959" lon="6.59968">
        <ele>462.6</ele>
        <time>2024-11-02T14:15:39Z</time>
      </trkpt>
      <trkpt lat="48.19582" lon="6.59976">
        <ele>463.9</ele>
        <time>2024-11-02T14:15:46Z</time>
      </trkpt>
      <trkpt lat="48.19573" lon="6.59981">
        <ele>465.2</ele>
        <time>2024-11-02T14:15:55Z</time>
      </trkpt>
      <trkpt lat="48.19565" lon="6.59986">
        <ele>466.5</ele>
        <time>2024-11-02T14:16:02Z</time>
      </trkpt>
      <trkpt lat="48.19556" lon="6.59995">
        <ele>468</ele>
        <time>2024-11-02T14:16:11Z</time>
      </trkpt>
      <trkpt lat="48.19548" lon="6.60003">
        <ele>469.4</ele>
        <time>2024-11-02T14:16:18Z</time>
      </trkpt>
      <trkpt lat="48.1954" lon="6.60009">
        <ele>470.7</ele>
        <time>2024-11-02T14:16:26Z</time>
      </trkpt>
      <trkpt lat="48.19531" lon="6.60014">
        <ele>472</ele>
        <time>2024-11-02T14:16:36Z</time>
      </trkpt>
      <trkpt lat="48.19523" lon="6.60021">
        <ele>473.3</ele>
        <time>2024-11-02T14:16:45Z</time>
      </trkpt>
      <trkpt lat="48.19513" lon="6.60024">
        <ele>474.7</ele>
        <time>2024-11-02T14:16:54Z</time>
      </trkpt>
      <trkpt lat="48.19504" lon="6.60025">
        <ele>475.9</ele>
        <time>2024-11-02T14:17:01Z</time>
      </trkpt>
      <trkpt lat="48.19495" lon="6.60029">
        <ele>476.9</ele>
        <time>2024-11-02T14:17:08Z</time>
      </trkpt>
      <trkpt lat="48.19485" lon="6.60031">
        <ele>478</ele>
        <time>2024-11-02T14:17:18Z</time>
      </trkpt>
      <trkpt lat="48.19475" lon="6.60033">
        <ele>478.9</ele>
        <time>2024-11-02T14:17:26Z</time>
      </trkpt>
      <trkpt lat="48.19466" lon="6.60035">
        <ele>479.7</ele>
        <time>2024-11-02T14:17:34Z</time>
      </trkpt>
      <trkpt lat="48.19457" lon="6.60037">
        <ele>480.4</ele>
        <time>2024-11-02T14:17:42Z</time>
      </trkpt>
      <trkpt lat="48.19447" lon="6.60038">
        <ele>481.1</ele>
        <time>2024-11-02T14:17:50Z</time>
      </trkpt>
      <trkpt lat="48.19438" lon="6.6004">
        <ele>481.8</ele>
        <time>2024-11-02T14:17:57Z</time>
      </trkpt>
      <trkpt lat="48.1943" lon="6.60048">
        <ele>482.5</ele>
        <time>2024-11-02T14:18:06Z</time>
      </trkpt>
      <trkpt lat="48.19429" lon="6.60062">
        <ele>483</ele>
        <time>2024-11-02T14:18:16Z</time>
      </trkpt>
      <trkpt lat="48.19434" lon="6.60075">
        <ele>483.3</ele>
        <time>2024-11-02T14:18:25Z</time>
      </trkpt>
      <trkpt lat="48.19438" lon="6.60088">
        <ele>483.3</ele>
        <time>2024-11-02T14:18:34Z</time>
      </trkpt>
      <trkpt lat="48.19428" lon="6.60094">
        <ele>483.9</ele>
        <time>2024-11-02T14:18:42Z</time>
      </trkpt>
      <trkpt lat="48.19418" lon="6.60096">
        <ele>484.2</ele>
        <time>2024-11-02T14:18:49Z</time>
      </trkpt>
      <trkpt lat="48.19408" lon="6.60097">
        <ele>484.4</ele>
        <time>2024-11-02T14:18:58Z</time>
      </trkpt>
      <trkpt lat="48.19399" lon="6.60093">
        <ele>484.7</ele>
        <time>2024-11-02T14:19:08Z</time>
      </trkpt>
      <trkpt lat="48.1939" lon="6.60088">
        <ele>484.9</ele>
        <time>2024-11-02T14:19:13Z</time>
      </trkpt>
      <trkpt lat="48.19382" lon="6.60084">
        <ele>485.1</ele>
        <time>2024-11-02T14:19:19Z</time>
      </trkpt>
      <trkpt lat="48.19372" lon="6.60081">
        <ele>485.4</ele>
        <time>2024-11-02T14:19:26Z</time>
      </trkpt>
      <trkpt lat="48.19363" lon="6.60081">
        <ele>485.7</ele>
        <time>2024-11-02T14:19:37Z</time>
      </trkpt>
      <trkpt lat="48.19353" lon="6.6008">
        <ele>485.9</ele>
        <time>2024-11-02T14:19:43Z</time>
      </trkpt>
      <trkpt lat="48.19344" lon="6.60075">
        <ele>486.2</ele>
        <time>2024-11-02T14:19:49Z</time>
      </trkpt>
      <trkpt lat="48.19335" lon="6.60073">
        <ele>486.5</ele>
        <time>2024-11-02T14:19:58Z</time>
      </trkpt>
      <trkpt lat="48.19326" lon="6.60069">
        <ele>486.8</ele>
        <time>2024-11-02T14:20:07Z</time>
      </trkpt>
      <trkpt lat="48.19317" lon="6.60066">
        <ele>487.1</ele>
        <time>2024-11-02T14:20:15Z</time>
      </trkpt>
      <trkpt lat="48.19307" lon="6.60064">
        <ele>487.5</ele>
        <time>2024-11-02T14:20:23Z</time>
      </trkpt>
      <trkpt lat="48.19297" lon="6.60063">
        <ele>487.8</ele>
        <time>2024-11-02T14:20:31Z</time>
      </trkpt>
      <trkpt lat="48.19287" lon="6.6006">
        <ele>488.1</ele>
        <time>2024-11-02T14:20:40Z</time>
      </trkpt>
      <trkpt lat="48.19278" lon="6.60055">
        <ele>488.5</ele>
        <time>2024-11-02T14:20:47Z</time>
      </trkpt>
      <trkpt lat="48.19269" lon="6.60054">
        <ele>488.8</ele>
        <time>2024-11-02T14:20:53Z</time>
      </trkpt>
      <trkpt lat="48.19259" lon="6.60053">
        <ele>489.2</ele>
        <time>2024-11-02T14:21:02Z</time>
      </trkpt>
      <trkpt lat="48.19249" lon="6.60054">
        <ele>489.6</ele>
        <time>2024-11-02T14:21:11Z</time>
      </trkpt>
      <trkpt lat="48.19239" lon="6.60053">
        <ele>489.9</ele>
        <time>2024-11-02T14:21:18Z</time>
      </trkpt>
      <trkpt lat="48.19229" lon="6.60051">
        <ele>490.2</ele>
        <time>2024-11-02T14:21:25Z</time>
      </trkpt>
      <trkpt lat="48.1922" lon="6.60049">
        <ele>490.4</ele>
        <time>2024-11-02T14:21:31Z</time>
      </trkpt>
      <trkpt lat="48.1921" lon="6.60052">
        <ele>490.5</ele>
        <time>2024-11-02T14:21:41Z</time>
      </trkpt>
      <trkpt lat="48.19201" lon="6.60057">
        <ele>490.6</ele>
        <time>2024-11-02T14:21:49Z</time>
      </trkpt>
      <trkpt lat="48.19192" lon="6.60063">
        <ele>490.7</ele>
        <time>2024-11-02T14:21:55Z</time>
      </trkpt>
      <trkpt lat="48.19183" lon="6.60068">
        <ele>490.8</ele>
        <time>2024-11-02T14:22:02Z</time>
      </trkpt>
      <trkpt lat="48.19176" lon="6.60077">
        <ele>491</ele>
        <time>2024-11-02T14:22:07Z</time>
      </trkpt>
      <trkpt lat="48.1917" lon="6.60088">
        <ele>491.2</ele>
        <time>2024-11-02T14:22:15Z</time>
      </trkpt>
      <trkpt lat="48.19164" lon="6.601">
        <ele>491.5</ele>
        <time>2024-11-02T14:22:24Z</time>
      </trkpt>
      <trkpt lat="48.19157" lon="6.6011">
        <ele>491.8</ele>
        <time>2024-11-02T14:22:33Z</time>
      </trkpt>
      <trkpt lat="48.19149" lon="6.6012">
        <ele>492.2</ele>
        <time>2024-11-02T14:22:40Z</time>
      </trkpt>
      <trkpt lat="48.19145" lon="6.60132">
        <ele>492.5</ele>
        <time>2024-11-02T14:22:47Z</time>
      </trkpt>
      <trkpt lat="48.19139" lon="6.60144">
        <ele>492.8</ele>
        <time>2024-11-02T14:22:54Z</time>
      </trkpt>
      <trkpt lat="48.19132" lon="6.60154">
        <ele>493.2</ele>
        <time>2024-11-02T14:23:01Z</time>
      </trkpt>
      <trkpt lat="48.19125" lon="6.60163">
        <ele>493.6</ele>
        <time>2024-11-02T14:23:09Z</time>
      </trkpt>
      <trkpt lat="48.19116" lon="6.60171">
        <ele>493.9</ele>
        <time>2024-11-02T14:23:16Z</time>
      </trkpt>
      <trkpt lat="48.19109" lon="6.6018">
        <ele>494.3</ele>
        <time>2024-11-02T14:23:23Z</time>
      </trkpt>
      <trkpt lat="48.19107" lon="6.60193">
        <ele>494.7</ele>
        <time>2024-11-02T14:23:30Z</time>
      </trkpt>
      <trkpt lat="48.191" lon="6.60202">
        <ele>495.2</ele>
        <time>2024-11-02T14:23:39Z</time>
      </trkpt>
      <trkpt lat="48.19093" lon="6.60212">
        <ele>495.7</ele>
        <time>2024-11-02T14:23:48Z</time>
      </trkpt>
      <trkpt lat="48.19084" lon="6.6022">
        <ele>496.2</ele>
        <time>2024-11-02T14:23:57Z</time>
      </trkpt>
      <trkpt lat="48.19077" lon="6.6023">
        <ele>496.6</ele>
        <time>2024-11-02T14:24:07Z</time>
      </trkpt>
      <trkpt lat="48.1907" lon="6.60241">
        <ele>497.1</ele>
        <time>2024-11-02T14:24:15Z</time>
      </trkpt>
      <trkpt lat="48.19065" lon="6.60253">
        <ele>497.5</ele>
        <time>2024-11-02T14:24:23Z</time>
      </trkpt>
      <trkpt lat="48.19058" lon="6.60262">
        <ele>497.9</ele>
        <time>2024-11-02T14:24:31Z</time>
      </trkpt>
      <trkpt lat="48.19052" lon="6.60272">
        <ele>498.3</ele>
        <time>2024-11-02T14:24:40Z</time>
      </trkpt>
      <trkpt lat="48.19044" lon="6.60281">
        <ele>498.7</ele>
        <time>2024-11-02T14:24:49Z</time>
      </trkpt>
      <trkpt lat="48.19039" lon="6.60293">
        <ele>499.1</ele>
        <time>2024-11-02T14:24:58Z</time>
      </trkpt>
      <trkpt lat="48.19032" lon="6.60303">
        <ele>499.6</ele>
        <time>2024-11-02T14:25:06Z</time>
      </trkpt>
      <trkpt lat="48.19024" lon="6.60312">
        <ele>500</ele>
        <time>2024-11-02T14:25:14Z</time>
      </trkpt>
      <trkpt lat="48.19016" lon="6.60322">
        <ele>500.3</ele>
        <time>2024-11-02T14:25:23Z</time>
      </trkpt>
      <trkpt lat="48.19011" lon="6.60333">
        <ele>500.6</ele>
        <time>2024-11-02T14:25:31Z</time>
      </trkpt>
      <trkpt lat="48.19003" lon="6.60342">
        <ele>500.9</ele>
        <time>2024-11-02T14:25:41Z</time>
      </trkpt>
      <trkpt lat="48.18996" lon="6.60352">
        <ele>501.3</ele>
        <time>2024-11-02T14:25:49Z</time>
      </trkpt>
      <trkpt lat="48.18989" lon="6.60362">
        <ele>501.6</ele>
        <time>2024-11-02T14:25:56Z</time>
      </trkpt>
      <trkpt lat="48.18983" lon="6.60373">
        <ele>501.8</ele>
        <time>2024-11-02T14:26:04Z</time>
      </trkpt>
      <trkpt lat="48.18976" lon="6.60383">
        <ele>502.1</ele>
        <time>2024-11-02T14:26:12Z</time>
      </trkpt>
      <trkpt lat="48.18968" lon="6.60392">
        <ele>502.4</ele>
        <time>2024-11-02T14:26:20Z</time>
      </trkpt>
      <trkpt lat="48.18962" lon="6.60403">
        <ele>502.7</ele>
        <time>2024-11-02T14:26:28Z</time>
      </trkpt>
      <trkpt lat="48.18954" lon="6.60411">
        <ele>502.9</ele>
        <time>2024-11-02T14:26:35Z</time>
      </trkpt>
      <trkpt lat="48.18948" lon="6.60422">
        <ele>503.2</ele>
        <time>2024-11-02T14:26:43Z</time>
      </trkpt>
      <trkpt lat="48.1894" lon="6.60431">
        <ele>503.5</ele>
        <time>2024-11-02T14:26:51Z</time>
      </trkpt>
      <trkpt lat="48.18932" lon="6.6044">
        <ele>503.9</ele>
        <time>2024-11-02T14:26:59Z</time>
      </trkpt>
      <trkpt lat="48.18927" lon="6.60452">
        <ele>504.2</ele>
        <time>2024-11-02T14:27:08Z</time>
      </trkpt>
      <trkpt lat="48.18922" lon="6.60465">
        <ele>504.5</ele>
        <time>2024-11-02T14:27:18Z</time>
      </trkpt>
      <trkpt lat="48.18915" lon="6.60477">
        <ele>504.9</ele>
        <time>2024-11-02T14:27:27Z</time>
      </trkpt>
      <trkpt lat="48.18909" lon="6.60489">
        <ele>505.3</ele>
        <time>2024-11-02T14:27:35Z</time>
      </trkpt>
      <trkpt lat="48.18904" lon="6.60501">
        <ele>505.7</ele>
        <time>2024-11-02T14:27:42Z</time>
      </trkpt>
      <trkpt lat="48.189" lon="6.60514">
        <ele>506.1</ele>
        <time>2024-11-02T14:27:50Z</time>
      </trkpt>
      <trkpt lat="48.18896" lon="6.60526">
        <ele>506.6</ele>
        <time>2024-11-02T14:27:59Z</time>
      </trkpt>
      <trkpt lat="48.18892" lon="6.60539">
        <ele>507</ele>
        <time>2024-11-02T14:28:08Z</time>
      </trkpt>
      <trkpt lat="48.18887" lon="6.60551">
        <ele>507.5</ele>
        <time>2024-11-02T14:28:17Z</time>
      </trkpt>
      <trkpt lat="48.18882" lon="6.60564">
        <ele>508</ele>
        <time>2024-11-02T14:28:27Z</time>
      </trkpt>
      <trkpt lat="48.18878" lon="6.60577">
        <ele>508.5</ele>
        <time>2024-11-02T14:28:35Z</time>
      </trkpt>
      <trkpt lat="48.18873" lon="6.60587">
        <ele>508.9</ele>
        <time>2024-11-02T14:28:43Z</time>
      </trkpt>
      <trkpt lat="48.18868" lon="6.606">
        <ele>509.3</ele>
        <time>2024-11-02T14:28:52Z</time>
      </trkpt>
      <trkpt lat="48.18864" lon="6.60612">
        <ele>509.6</ele>
        <time>2024-11-02T14:29:01Z</time>
      </trkpt>
      <trkpt lat="48.18858" lon="6.60624">
        <ele>509.8</ele>
        <time>2024-11-02T14:29:09Z</time>
      </trkpt>
      <trkpt lat="48.18851" lon="6.60635">
        <ele>510</ele>
        <time>2024-11-02T14:29:18Z</time>
      </trkpt>
      <trkpt lat="48.18848" lon="6.60648">
        <ele>510.1</ele>
        <time>2024-11-02T14:29:27Z</time>
      </trkpt>
      <trkpt lat="48.18842" lon="6.60661">
        <ele>510.2</ele>
        <time>2024-11-02T14:29:36Z</time>
      </trkpt>
      <trkpt lat="48.18837" lon="6.60674">
        <ele>510.2</ele>
        <time>2024-11-02T14:29:44Z</time>
      </trkpt>
      <trkpt lat="48.18835" lon="6.60687">
        <ele>510.3</ele>
        <time>2024-11-02T14:29:52Z</time>
      </trkpt>
      <trkpt lat="48.18835" lon="6.60702">
        <ele>510.3</ele>
        <time>2024-11-02T14:29:59Z</time>
      </trkpt>
      <trkpt lat="48.18835" lon="6.60716">
        <ele>510.3</ele>
        <time>2024-11-02T14:30:06Z</time>
      </trkpt>
      <trkpt lat="48.18834" lon="6.6073">
        <ele>510.3</ele>
        <time>2024-11-02T14:30:14Z</time>
      </trkpt>
      <trkpt lat="48.18834" lon="6.60744">
        <ele>510.3</ele>
        <time>2024-11-02T14:30:22Z</time>
      </trkpt>
      <trkpt lat="48.18833" lon="6.60757">
        <ele>510.4</ele>
        <time>2024-11-02T14:30:30Z</time>
      </trkpt>
      <trkpt lat="48.18831" lon="6.60772">
        <ele>510.4</ele>
        <time>2024-11-02T14:30:38Z</time>
      </trkpt>
      <trkpt lat="48.18828" lon="6.60784">
        <ele>510.5</ele>
        <time>2024-11-02T14:30:46Z</time>
      </trkpt>
      <trkpt lat="48.18825" lon="6.60799">
        <ele>510.5</ele>
        <time>2024-11-02T14:30:54Z</time>
      </trkpt>
      <trkpt lat="48.18822" lon="6.60813">
        <ele>510.6</ele>
        <time>2024-11-02T14:31:04Z</time>
      </trkpt>
      <trkpt lat="48.18815" lon="6.60823">
        <ele>510.8</ele>
        <time>2024-11-02T14:31:12Z</time>
      </trkpt>
      <trkpt lat="48.18808" lon="6.60834">
        <ele>510.9</ele>
        <time>2024-11-02T14:31:21Z</time>
      </trkpt>
      <trkpt lat="48.18802" lon="6.60843">
        <ele>511</ele>
        <time>2024-11-02T14:31:29Z</time>
      </trkpt>
      <trkpt lat="48.18792" lon="6.60843">
        <ele>511.1</ele>
        <time>2024-11-02T14:31:39Z</time>
      </trkpt>
      <trkpt lat="48.18782" lon="6.60841">
        <ele>511.1</ele>
        <time>2024-11-02T14:31:50Z</time>
      </trkpt>
      <trkpt lat="48.18773" lon="6.60835">
        <ele>511.1</ele>
        <time>2024-11-02T14:31:57Z</time>
      </trkpt>
      <trkpt lat="48.18764" lon="6.60829">
        <ele>511</ele>
        <time>2024-11-02T14:32:05Z</time>
      </trkpt>
      <trkpt lat="48.18756" lon="6.60823">
        <ele>511</ele>
        <time>2024-11-02T14:32:12Z</time>
      </trkpt>
      <trkpt lat="48.18747" lon="6.60816">
        <ele>511</ele>
        <time>2024-11-02T14:32:19Z</time>
      </trkpt>
      <trkpt lat="48.1874" lon="6.60808">
        <ele>511</ele>
        <time>2024-11-02T14:32:27Z</time>
      </trkpt>
      <trkpt lat="48.18733" lon="6.60798">
        <ele>511</ele>
        <time>2024-11-02T14:32:38Z</time>
      </trkpt>
      <trkpt lat="48.18725" lon="6.60789">
        <ele>511.1</ele>
        <time>2024-11-02T14:32:46Z</time>
      </trkpt>
      <trkpt lat="48.18718" lon="6.60777">
        <ele>511.2</ele>
        <time>2024-11-02T14:32:54Z</time>
      </trkpt>
      <trkpt lat="48.18711" lon="6.60768">
        <ele>511.3</ele>
        <time>2024-11-02T14:33:05Z</time>
      </trkpt>
      <trkpt lat="48.18703" lon="6.60761">
        <ele>511.5</ele>
        <time>2024-11-02T14:33:12Z</time>
      </trkpt>
      <trkpt lat="48.18697" lon="6.60751">
        <ele>511.6</ele>
        <time>2024-11-02T14:33:21Z</time>
      </trkpt>
      <trkpt lat="48.18689" lon="6.60742">
        <ele>511.7</ele>
        <time>2024-11-02T14:33:28Z</time>
      </trkpt>
      <trkpt lat="48.18681" lon="6.60735">
        <ele>511.9</ele>
        <time>2024-11-02T14:33:35Z</time>
      </trkpt>
      <trkpt lat="48.18672" lon="6.6073">
        <ele>512.1</ele>
        <time>2024-11-02T14:33:43Z</time>
      </trkpt>
      <trkpt lat="48.18663" lon="6.60725">
        <ele>512.3</ele>
        <time>2024-11-02T14:33:51Z</time>
      </trkpt>
      <trkpt lat="48.18655" lon="6.60717">
        <ele>512.5</ele>
        <time>2024-11-02T14:33:58Z</time>
      </trkpt>
      <trkpt lat="48.18646" lon="6.60713">
        <ele>512.6</ele>
        <time>2024-11-02T14:34:05Z</time>
      </trkpt>
      <trkpt lat="48.18637" lon="6.60709">
        <ele>512.7</ele>
        <time>2024-11-02T14:34:12Z</time>
      </trkpt>
      <trkpt lat="48.18628" lon="6.60705">
        <ele>512.8</ele>
        <time>2024-11-02T14:34:20Z</time>
      </trkpt>
      <trkpt lat="48.18619" lon="6.60703">
        <ele>512.9</ele>
        <time>2024-11-02T14:34:27Z</time>
      </trkpt>
      <trkpt lat="48.18609" lon="6.60701">
        <ele>513</ele>
        <time>2024-11-02T14:34:35Z</time>
      </trkpt>
      <trkpt lat="48.186" lon="6.60696">
        <ele>513.3</ele>
        <time>2024-11-02T14:34:43Z</time>
      </trkpt>
      <trkpt lat="48.18591" lon="6.60692">
        <ele>513.5</ele>
        <time>2024-11-02T14:34:51Z</time>
      </trkpt>
      <trkpt lat="48.18583" lon="6.60687">
        <ele>513.7</ele>
        <time>2024-11-02T14:34:58Z</time>
      </trkpt>
      <trkpt lat="48.18573" lon="6.60681">
        <ele>514</ele>
        <time>2024-11-02T14:35:06Z</time>
      </trkpt>
      <trkpt lat="48.18565" lon="6.60675">
        <ele>514.2</ele>
        <time>2024-11-02T14:35:14Z</time>
      </trkpt>
      <trkpt lat="48.18555" lon="6.60672">
        <ele>514.4</ele>
        <time>2024-11-02T14:35:22Z</time>
      </trkpt>
      <trkpt lat="48.18546" lon="6.60668">
        <ele>514.5</ele>
        <time>2024-11-02T14:35:32Z</time>
      </trkpt>
      <trkpt lat="48.18539" lon="6.60677">
        <ele>514.6</ele>
        <time>2024-11-02T14:35:43Z</time>
      </trkpt>
      <trkpt lat="48.18539" lon="6.60677">
        <ele>514.6</ele>
        <time>2024-11-02T14:35:44Z</time>
      </trkpt>
      <trkpt lat="48.18539" lon="6.60677">
        <ele>514.6</ele>
        <time>2024-11-02T14:35:45Z</time>
      </trkpt>
      <trkpt lat="48.18538" lon="6.60678">
        <ele>514.6</ele>
        <time>2024-11-02T14:35:53Z</time>
      </trkpt>
      <trkpt lat="48.18538" lon="6.60678">
        <ele>514.6</ele>
        <time>2024-11-02T14:35:54Z</time>
      </trkpt>
      <trkpt lat="48.18538" lon="6.60678">
        <ele>514.6</ele>
        <time>2024-11-02T14:35:55Z</time>
      </trkpt>
      <trkpt lat="48.18538" lon="6.60678">
        <ele>514.6</ele>
        <time>2024-11-02T14:35:56Z</time>
      </trkpt>
      <trkpt lat="48.18538" lon="6.60678">
        <ele>514.6</ele>
        <time>2024-11-02T14:35:57Z</time>
      </trkpt>
      <trkpt lat="48.18537" lon="6.60681">
        <ele>514.6</ele>
        <time>2024-11-02T14:37:33Z</time>
      </trkpt>
      <trkpt lat="48.18537" lon="6.60682">
        <ele>514.6</ele>
        <time>2024-11-02T14:37:34Z</time>
      </trkpt>
      <trkpt lat="48.18537" lon="6.60682">
        <ele>514.6</ele>
        <time>2024-11-02T14:37:35Z</time>
      </trkpt>
      <trkpt lat="48.18537" lon="6.60682">
        <ele>514.6</ele>
        <time>2024-11-02T14:37:38Z</time>
      </trkpt>
      <trkpt lat="48.18537" lon="6.60682">
        <ele>514.6</ele>
        <time>2024-11-02T14:37:39Z</time>
      </trkpt>
      <trkpt lat="48.18537" lon="6.60682">
        <ele>514.6</ele>
        <time>2024-11-02T14:37:40Z</time>
      </trkpt>
      <trkpt lat="48.18537" lon="6.60683">
        <ele>514.6</ele>
        <time>2024-11-02T14:38:26Z</time>
      </trkpt>
      <trkpt lat="48.18538" lon="6.60685">
        <ele>514.7</ele>
        <time>2024-11-02T14:38:27Z</time>
      </trkpt>
      <trkpt lat="48.18539" lon="6.60687">
        <ele>514.7</ele>
        <time>2024-11-02T14:38:28Z</time>
      </trkpt>
      <trkpt lat="48.18543" lon="6.60701">
        <ele>514.8</ele>
        <time>2024-11-02T14:38:35Z</time>
      </trkpt>
      <trkpt lat="48.18547" lon="6.60713">
        <ele>514.9</ele>
        <time>2024-11-02T14:38:42Z</time>
      </trkpt>
      <trkpt lat="48.18552" lon="6.60725">
        <ele>515.1</ele>
        <time>2024-11-02T14:38:49Z</time>
      </trkpt>
      <trkpt lat="48.18557" lon="6.60737">
        <ele>515.2</ele>
        <time>2024-11-02T14:38:56Z</time>
      </trkpt>
      <trkpt lat="48.18562" lon="6.60749">
        <ele>515.4</ele>
        <time>2024-11-02T14:39:04Z</time>
      </trkpt>
      <trkpt lat="48.18567" lon="6.60761">
        <ele>515.6</ele>
        <time>2024-11-02T14:39:11Z</time>
      </trkpt>
      <trkpt lat="48.18572" lon="6.60773">
        <ele>515.8</ele>
        <time>2024-11-02T14:39:18Z</time>
      </trkpt>
      <trkpt lat="48.18579" lon="6.60785">
        <ele>516</ele>
        <time>2024-11-02T14:39:26Z</time>
      </trkpt>
      <trkpt lat="48.18584" lon="6.60796">
        <ele>516.2</ele>
        <time>2024-11-02T14:39:34Z</time>
      </trkpt>
      <trkpt lat="48.18589" lon="6.60808">
        <ele>516.5</ele>
        <time>2024-11-02T14:39:42Z</time>
      </trkpt>
      <trkpt lat="48.18593" lon="6.60821">
        <ele>516.7</ele>
        <time>2024-11-02T14:39:50Z</time>
      </trkpt>
      <trkpt lat="48.18598" lon="6.60833">
        <ele>517</ele>
        <time>2024-11-02T14:39:58Z</time>
      </trkpt>
      <trkpt lat="48.18602" lon="6.60845">
        <ele>517.2</ele>
        <time>2024-11-02T14:40:06Z</time>
      </trkpt>
      <trkpt lat="48.18606" lon="6.60858">
        <ele>517.5</ele>
        <time>2024-11-02T14:40:14Z</time>
      </trkpt>
      <trkpt lat="48.1861" lon="6.6087">
        <ele>517.8</ele>
        <time>2024-11-02T14:40:22Z</time>
      </trkpt>
      <trkpt lat="48.18615" lon="6.60883">
        <ele>518.1</ele>
        <time>2024-11-02T14:40:30Z</time>
      </trkpt>
      <trkpt lat="48.18619" lon="6.60895">
        <ele>518.4</ele>
        <time>2024-11-02T14:40:38Z</time>
      </trkpt>
      <trkpt lat="48.18625" lon="6.60907">
        <ele>518.7</ele>
        <time>2024-11-02T14:40:47Z</time>
      </trkpt>
      <trkpt lat="48.18629" lon="6.60921">
        <ele>519</ele>
        <time>2024-11-02T14:40:56Z</time>
      </trkpt>
      <trkpt lat="48.18633" lon="6.60933">
        <ele>519.2</ele>
        <time>2024-11-02T14:41:04Z</time>
      </trkpt>
      <trkpt lat="48.18639" lon="6.60946">
        <ele>519.4</ele>
        <time>2024-11-02T14:41:12Z</time>
      </trkpt>
      <trkpt lat="48.1864" lon="6.6096">
        <ele>519.6</ele>
        <time>2024-11-02T14:41:20Z</time>
      </trkpt>
      <trkpt lat="48.18643" lon="6.60974">
        <ele>519.8</ele>
        <time>2024-11-02T14:41:28Z</time>
      </trkpt>
      <trkpt lat="48.18645" lon="6.60987">
        <ele>520</ele>
        <time>2024-11-02T14:41:35Z</time>
      </trkpt>
      <trkpt lat="48.18645" lon="6.61001">
        <ele>520.2</ele>
        <time>2024-11-02T14:41:42Z</time>
      </trkpt>
      <trkpt lat="48.18647" lon="6.61016">
        <ele>520.5</ele>
        <time>2024-11-02T14:41:50Z</time>
      </trkpt>
      <trkpt lat="48.1865" lon="6.6103">
        <ele>520.9</ele>
        <time>2024-11-02T14:41:58Z</time>
      </trkpt>
      <trkpt lat="48.18654" lon="6.61042">
        <ele>521.3</ele>
        <time>2024-11-02T14:42:05Z</time>
      </trkpt>
      <trkpt lat="48.18658" lon="6.61055">
        <ele>521.6</ele>
        <time>2024-11-02T14:42:13Z</time>
      </trkpt>
      <trkpt lat="48.18662" lon="6.61067">
        <ele>522</ele>
        <time>2024-11-02T14:42:20Z</time>
      </trkpt>
      <trkpt lat="48.18667" lon="6.61078">
        <ele>522.4</ele>
        <time>2024-11-02T14:42:28Z</time>
      </trkpt>
      <trkpt lat="48.18672" lon="6.6109">
        <ele>522.7</ele>
        <time>2024-11-02T14:42:37Z</time>
      </trkpt>
      <trkpt lat="48.18676" lon="6.61103">
        <ele>523</ele>
        <time>2024-11-02T14:42:45Z</time>
      </trkpt>
      <trkpt lat="48.18678" lon="6.61118">
        <ele>523.3</ele>
        <time>2024-11-02T14:42:53Z</time>
      </trkpt>
      <trkpt lat="48.18682" lon="6.61132">
        <ele>523.6</ele>
        <time>2024-11-02T14:43:02Z</time>
      </trkpt>
      <trkpt lat="48.18683" lon="6.61145">
        <ele>523.9</ele>
        <time>2024-11-02T14:43:09Z</time>
      </trkpt>
      <trkpt lat="48.18685" lon="6.61159">
        <ele>524.2</ele>
        <time>2024-11-02T14:43:17Z</time>
      </trkpt>
      <trkpt lat="48.18685" lon="6.61174">
        <ele>524.7</ele>
        <time>2024-11-02T14:43:31Z</time>
      </trkpt>
      <trkpt lat="48.1869" lon="6.61187">
        <ele>525</ele>
        <time>2024-11-02T14:43:37Z</time>
      </trkpt>
      <trkpt lat="48.18694" lon="6.612">
        <ele>525.4</ele>
        <time>2024-11-02T14:43:45Z</time>
      </trkpt>
      <trkpt lat="48.18697" lon="6.61213">
        <ele>525.7</ele>
        <time>2024-11-02T14:43:52Z</time>
      </trkpt>
      <trkpt lat="48.18703" lon="6.61225">
        <ele>526.1</ele>
        <time>2024-11-02T14:43:59Z</time>
      </trkpt>
      <trkpt lat="48.18704" lon="6.61239">
        <ele>526.4</ele>
        <time>2024-11-02T14:44:07Z</time>
      </trkpt>
      <trkpt lat="48.18703" lon="6.61254">
        <ele>526.7</ele>
        <time>2024-11-02T14:44:16Z</time>
      </trkpt>
      <trkpt lat="48.18701" lon="6.61268">
        <ele>526.9</ele>
        <time>2024-11-02T14:44:25Z</time>
      </trkpt>
      <trkpt lat="48.18697" lon="6.6128">
        <ele>527.1</ele>
        <time>2024-11-02T14:44:35Z</time>
      </trkpt>
      <trkpt lat="48.18695" lon="6.61296">
        <ele>527.3</ele>
        <time>2024-11-02T14:44:41Z</time>
      </trkpt>
      <trkpt lat="48.18699" lon="6.61309">
        <ele>527.4</ele>
        <time>2024-11-02T14:44:47Z</time>
      </trkpt>
      <trkpt lat="48.18705" lon="6.61319">
        <ele>527.6</ele>
        <time>2024-11-02T14:44:53Z</time>
      </trkpt>
      <trkpt lat="48.18704" lon="6.61332">
        <ele>527.8</ele>
        <time>2024-11-02T14:45:00Z</time>
      </trkpt>
      <trkpt lat="48.18708" lon="6.61346">
        <ele>528.1</ele>
        <time>2024-11-02T14:45:07Z</time>
      </trkpt>
      <trkpt lat="48.18709" lon="6.61361">
        <ele>528.5</ele>
        <time>2024-11-02T14:45:15Z</time>
      </trkpt>
      <trkpt lat="48.18711" lon="6.61375">
        <ele>528.8</ele>
        <time>2024-11-02T14:45:26Z</time>
      </trkpt>
      <trkpt lat="48.18715" lon="6.61387">
        <ele>529.2</ele>
        <time>2024-11-02T14:45:34Z</time>
      </trkpt>
      <trkpt lat="48.1872" lon="6.61399">
        <ele>529.5</ele>
        <time>2024-11-02T14:45:42Z</time>
      </trkpt>
      <trkpt lat="48.1872" lon="6.61414">
        <ele>529.8</ele>
        <time>2024-11-02T14:45:51Z</time>
      </trkpt>
      <trkpt lat="48.18722" lon="6.61428">
        <ele>530.1</ele>
        <time>2024-11-02T14:46:00Z</time>
      </trkpt>
      <trkpt lat="48.18721" lon="6.61443">
        <ele>530.4</ele>
        <time>2024-11-02T14:46:09Z</time>
      </trkpt>
      <trkpt lat="48.18718" lon="6.61456">
        <ele>530.8</ele>
        <time>2024-11-02T14:46:17Z</time>
      </trkpt>
      <trkpt lat="48.18715" lon="6.61471">
        <ele>531.2</ele>
        <time>2024-11-02T14:46:27Z</time>
      </trkpt>
      <trkpt lat="48.18717" lon="6.61479">
        <ele>531.4</ele>
        <time>2024-11-02T14:46:39Z</time>
      </trkpt>
      <trkpt lat="48.18717" lon="6.61479">
        <ele>531.4</ele>
        <time>2024-11-02T14:46:40Z</time>
      </trkpt>
      <trkpt lat="48.18718" lon="6.61479">
        <ele>531.4</ele>
        <time>2024-11-02T14:46:41Z</time>
      </trkpt>
      <trkpt lat="48.18719" lon="6.61482">
        <ele>531.5</ele>
        <time>2024-11-02T14:47:23Z</time>
      </trkpt>
      <trkpt lat="48.18719" lon="6.61482">
        <ele>531.5</ele>
        <time>2024-11-02T14:47:24Z</time>
      </trkpt>
      <trkpt lat="48.18719" lon="6.61482">
        <ele>531.5</ele>
        <time>2024-11-02T14:47:25Z</time>
      </trkpt>
      <trkpt lat="48.18719" lon="6.61482">
        <ele>531.5</ele>
        <time>2024-11-02T14:47:26Z</time>
      </trkpt>
      <trkpt lat="48.18719" lon="6.61482">
        <ele>531.5</ele>
        <time>2024-11-02T14:47:27Z</time>
      </trkpt>
      <trkpt lat="48.18719" lon="6.61482">
        <ele>531.5</ele>
        <time>2024-11-02T14:47:28Z</time>
      </trkpt>
      <trkpt lat="48.1872" lon="6.61486">
        <ele>531.6</ele>
        <time>2024-11-02T14:47:51Z</time>
      </trkpt>
      <trkpt lat="48.1872" lon="6.61487">
        <ele>531.7</ele>
        <time>2024-11-02T14:47:52Z</time>
      </trkpt>
      <trkpt lat="48.18723" lon="6.615">
        <ele>531.9</ele>
        <time>2024-11-02T14:48:02Z</time>
      </trkpt>
      <trkpt lat="48.18725" lon="6.61511">
        <ele>532.1</ele>
        <time>2024-11-02T14:48:13Z</time>
      </trkpt>
      <trkpt lat="48.18725" lon="6.61511">
        <ele>532.1</ele>
        <time>2024-11-02T14:48:14Z</time>
      </trkpt>
      <trkpt lat="48.18725" lon="6.61511">
        <ele>532.1</ele>
        <time>2024-11-02T14:48:15Z</time>
      </trkpt>
      <trkpt lat="48.18726" lon="6.61513">
        <ele>532.2</ele>
        <time>2024-11-02T14:48:18Z</time>
      </trkpt>
      <trkpt lat="48.18726" lon="6.61515">
        <ele>532.2</ele>
        <time>2024-11-02T14:48:19Z</time>
      </trkpt>
      <trkpt lat="48.18726" lon="6.61516">
        <ele>532.2</ele>
        <time>2024-11-02T14:48:20Z</time>
      </trkpt>
      <trkpt lat="48.18726" lon="6.61531">
        <ele>532.5</ele>
        <time>2024-11-02T14:48:28Z</time>
      </trkpt>
      <trkpt lat="48.18725" lon="6.61545">
        <ele>532.8</ele>
        <time>2024-11-02T14:48:36Z</time>
      </trkpt>
      <trkpt lat="48.18726" lon="6.6156">
        <ele>533.1</ele>
        <time>2024-11-02T14:48:43Z</time>
      </trkpt>
      <trkpt lat="48.18726" lon="6.61574">
        <ele>533.4</ele>
        <time>2024-11-02T14:48:50Z</time>
      </trkpt>
      <trkpt lat="48.1873" lon="6.61587">
        <ele>533.6</ele>
        <time>2024-11-02T14:48:56Z</time>
      </trkpt>
      <trkpt lat="48.18734" lon="6.616">
        <ele>533.8</ele>
        <time>2024-11-02T14:49:05Z</time>
      </trkpt>
      <trkpt lat="48.18736" lon="6.61614">
        <ele>534</ele>
        <time>2024-11-02T14:49:13Z</time>
      </trkpt>
      <trkpt lat="48.18742" lon="6.61626">
        <ele>534.3</ele>
        <time>2024-11-02T14:49:21Z</time>
      </trkpt>
      <trkpt lat="48.18748" lon="6.61638">
        <ele>534.6</ele>
        <time>2024-11-02T14:49:29Z</time>
      </trkpt>
      <trkpt lat="48.18753" lon="6.61651">
        <ele>535</ele>
        <time>2024-11-02T14:49:37Z</time>
      </trkpt>
      <trkpt lat="48.18756" lon="6.61665">
        <ele>535.3</ele>
        <time>2024-11-02T14:49:46Z</time>
      </trkpt>
      <trkpt lat="48.18761" lon="6.61678">
        <ele>535.7</ele>
        <time>2024-11-02T14:49:54Z</time>
      </trkpt>
      <trkpt lat="48.18765" lon="6.61691">
        <ele>536</ele>
        <time>2024-11-02T14:50:01Z</time>
      </trkpt>
      <trkpt lat="48.18767" lon="6.61705">
        <ele>536.2</ele>
        <time>2024-11-02T14:50:09Z</time>
      </trkpt>
      <trkpt lat="48.18767" lon="6.61719">
        <ele>536.3</ele>
        <time>2024-11-02T14:50:17Z</time>
      </trkpt>
      <trkpt lat="48.18769" lon="6.61734">
        <ele>536.4</ele>
        <time>2024-11-02T14:50:26Z</time>
      </trkpt>
      <trkpt lat="48.18774" lon="6.61746">
        <ele>536.4</ele>
        <time>2024-11-02T14:50:34Z</time>
      </trkpt>
      <trkpt lat="48.18778" lon="6.61759">
        <ele>536.3</ele>
        <time>2024-11-02T14:50:41Z</time>
      </trkpt>
      <trkpt lat="48.18781" lon="6.61772">
        <ele>536.2</ele>
        <time>2024-11-02T14:50:49Z</time>
      </trkpt>
      <trkpt lat="48.18784" lon="6.61786">
        <ele>536.1</ele>
        <time>2024-11-02T14:50:58Z</time>
      </trkpt>
      <trkpt lat="48.18781" lon="6.61801">
        <ele>535.9</ele>
        <time>2024-11-02T14:51:08Z</time>
      </trkpt>
      <trkpt lat="48.18778" lon="6.61814">
        <ele>535.8</ele>
        <time>2024-11-02T14:51:17Z</time>
      </trkpt>
      <trkpt lat="48.18776" lon="6.61828">
        <ele>535.7</ele>
        <time>2024-11-02T14:51:24Z</time>
      </trkpt>
      <trkpt lat="48.18774" lon="6.61842">
        <ele>535.7</ele>
        <time>2024-11-02T14:51:32Z</time>
      </trkpt>
      <trkpt lat="48.18776" lon="6.61856">
        <ele>535.6</ele>
        <time>2024-11-02T14:51:38Z</time>
      </trkpt>
      <trkpt lat="48.18774" lon="6.61871">
        <ele>535.6</ele>
        <time>2024-11-02T14:51:47Z</time>
      </trkpt>
      <trkpt lat="48.1877" lon="6.61885">
        <ele>535.6</ele>
        <time>2024-11-02T14:51:55Z</time>
      </trkpt>
      <trkpt lat="48.18767" lon="6.61898">
        <ele>535.6</ele>
        <time>2024-11-02T14:52:04Z</time>
      </trkpt>
      <trkpt lat="48.18765" lon="6.61912">
        <ele>535.5</ele>
        <time>2024-11-02T14:52:11Z</time>
      </trkpt>
      <trkpt lat="48.18767" lon="6.61926">
        <ele>535.5</ele>
        <time>2024-11-02T14:52:19Z</time>
      </trkpt>
      <trkpt lat="48.18769" lon="6.6194">
        <ele>535.4</ele>
        <time>2024-11-02T14:52:27Z</time>
      </trkpt>
      <trkpt lat="48.18767" lon="6.61953">
        <ele>535.4</ele>
        <time>2024-11-02T14:52:36Z</time>
      </trkpt>
      <trkpt lat="48.1877" lon="6.61968">
        <ele>535.5</ele>
        <time>2024-11-02T14:52:43Z</time>
      </trkpt>
      <trkpt lat="48.1877" lon="6.61982">
        <ele>535.5</ele>
        <time>2024-11-02T14:52:50Z</time>
      </trkpt>
      <trkpt lat="48.18769" lon="6.61996">
        <ele>535.6</ele>
        <time>2024-11-02T14:52:58Z</time>
      </trkpt>
      <trkpt lat="48.18768" lon="6.62011">
        <ele>535.8</ele>
        <time>2024-11-02T14:53:06Z</time>
      </trkpt>
      <trkpt lat="48.18769" lon="6.62025">
        <ele>536.1</ele>
        <time>2024-11-02T14:53:14Z</time>
      </trkpt>
      <trkpt lat="48.18772" lon="6.6204">
        <ele>536.4</ele>
        <time>2024-11-02T14:53:22Z</time>
      </trkpt>
      <trkpt lat="48.18776" lon="6.62053">
        <ele>536.8</ele>
        <time>2024-11-02T14:53:30Z</time>
      </trkpt>
      <trkpt lat="48.18782" lon="6.62064">
        <ele>537.2</ele>
        <time>2024-11-02T14:53:37Z</time>
      </trkpt>
      <trkpt lat="48.18789" lon="6.62076">
        <ele>537.5</ele>
        <time>2024-11-02T14:53:45Z</time>
      </trkpt>
      <trkpt lat="48.18795" lon="6.62087">
        <ele>537.9</ele>
        <time>2024-11-02T14:53:53Z</time>
      </trkpt>
      <trkpt lat="48.188" lon="6.62099">
        <ele>538.1</ele>
        <time>2024-11-02T14:54:02Z</time>
      </trkpt>
      <trkpt lat="48.18805" lon="6.62112">
        <ele>538.5</ele>
        <time>2024-11-02T14:54:10Z</time>
      </trkpt>
      <trkpt lat="48.18809" lon="6.62124">
        <ele>538.8</ele>
        <time>2024-11-02T14:54:18Z</time>
      </trkpt>
      <trkpt lat="48.18815" lon="6.62137">
        <ele>539.2</ele>
        <time>2024-11-02T14:54:26Z</time>
      </trkpt>
      <trkpt lat="48.1882" lon="6.62149">
        <ele>539.5</ele>
        <time>2024-11-02T14:54:34Z</time>
      </trkpt>
      <trkpt lat="48.18825" lon="6.62161">
        <ele>539.9</ele>
        <time>2024-11-02T14:54:45Z</time>
      </trkpt>
      <trkpt lat="48.1883" lon="6.62173">
        <ele>540.2</ele>
        <time>2024-11-02T14:54:53Z</time>
      </trkpt>
      <trkpt lat="48.18836" lon="6.62185">
        <ele>540.5</ele>
        <time>2024-11-02T14:55:01Z</time>
      </trkpt>
      <trkpt lat="48.18843" lon="6.62196">
        <ele>540.7</ele>
        <time>2024-11-02T14:55:09Z</time>
      </trkpt>
      <trkpt lat="48.18849" lon="6.62208">
        <ele>540.8</ele>
        <time>2024-11-02T14:55:18Z</time>
      </trkpt>
      <trkpt lat="48.18854" lon="6.62219">
        <ele>540.8</ele>
        <time>2024-11-02T14:55:27Z</time>
      </trkpt>
      <trkpt lat="48.18858" lon="6.62232">
        <ele>540.7</ele>
        <time>2024-11-02T14:55:36Z</time>
      </trkpt>
      <trkpt lat="48.18864" lon="6.62244">
        <ele>540.6</ele>
        <time>2024-11-02T14:55:47Z</time>
      </trkpt>
      <trkpt lat="48.18871" lon="6.62254">
        <ele>540.3</ele>
        <time>2024-11-02T14:55:56Z</time>
      </trkpt>
      <trkpt lat="48.18876" lon="6.62266">
        <ele>540.1</ele>
        <time>2024-11-02T14:56:05Z</time>
      </trkpt>
      <trkpt lat="48.18881" lon="6.62278">
        <ele>539.7</ele>
        <time>2024-11-02T14:56:14Z</time>
      </trkpt>
      <trkpt lat="48.18878" lon="6.6228">
        <ele>539.6</ele>
        <time>2024-11-02T14:56:34Z</time>
      </trkpt>
      <trkpt lat="48.18878" lon="6.6228">
        <ele>539.6</ele>
        <time>2024-11-02T14:56:35Z</time>
      </trkpt>
      <trkpt lat="48.18878" lon="6.6228">
        <ele>539.6</ele>
        <time>2024-11-02T14:56:36Z</time>
      </trkpt>
      <trkpt lat="48.18878" lon="6.6228">
        <ele>539.6</ele>
        <time>2024-11-02T14:56:39Z</time>
      </trkpt>
      <trkpt lat="48.18878" lon="6.6228">
        <ele>539.6</ele>
        <time>2024-11-02T14:56:40Z</time>
      </trkpt>
      <trkpt lat="48.18878" lon="6.6228">
        <ele>539.6</ele>
        <time>2024-11-02T14:56:41Z</time>
      </trkpt>
      <trkpt lat="48.18878" lon="6.6228">
        <ele>539.6</ele>
        <time>2024-11-02T14:56:42Z</time>
      </trkpt>
      <trkpt lat="48.18879" lon="6.62279">
        <ele>539.5</ele>
        <time>2024-11-02T14:56:46Z</time>
      </trkpt>
      <trkpt lat="48.18879" lon="6.62279">
        <ele>539.5</ele>
        <time>2024-11-02T14:56:47Z</time>
      </trkpt>
      <trkpt lat="48.18886" lon="6.62288">
        <ele>538.9</ele>
        <time>2024-11-02T14:57:00Z</time>
      </trkpt>
      <trkpt lat="48.18886" lon="6.62303">
        <ele>538.2</ele>
        <time>2024-11-02T14:57:10Z</time>
      </trkpt>
      <trkpt lat="48.18883" lon="6.62317">
        <ele>537.4</ele>
        <time>2024-11-02T14:57:19Z</time>
      </trkpt>
      <trkpt lat="48.1888" lon="6.62332">
        <ele>536.4</ele>
        <time>2024-11-02T14:57:28Z</time>
      </trkpt>
      <trkpt lat="48.18877" lon="6.62345">
        <ele>535.6</ele>
        <time>2024-11-02T14:57:36Z</time>
      </trkpt>
      <trkpt lat="48.18875" lon="6.6236">
        <ele>534.7</ele>
        <time>2024-11-02T14:57:44Z</time>
      </trkpt>
      <trkpt lat="48.18874" lon="6.62374">
        <ele>534</ele>
        <time>2024-11-02T14:57:52Z</time>
      </trkpt>
      <trkpt lat="48.18872" lon="6.62388">
        <ele>533.3</ele>
        <time>2024-11-02T14:58:00Z</time>
      </trkpt>
      <trkpt lat="48.18872" lon="6.62403">
        <ele>532.9</ele>
        <time>2024-11-02T14:58:08Z</time>
      </trkpt>
      <trkpt lat="48.18873" lon="6.62417">
        <ele>532.5</ele>
        <time>2024-11-02T14:58:17Z</time>
      </trkpt>
      <trkpt lat="48.18872" lon="6.62432">
        <ele>532.3</ele>
        <time>2024-11-02T14:58:25Z</time>
      </trkpt>
      <trkpt lat="48.18874" lon="6.62447">
        <ele>532.1</ele>
        <time>2024-11-02T14:58:32Z</time>
      </trkpt>
      <trkpt lat="48.18874" lon="6.62461">
        <ele>532</ele>
        <time>2024-11-02T14:58:40Z</time>
      </trkpt>
      <trkpt lat="48.18872" lon="6.62476">
        <ele>531.9</ele>
        <time>2024-11-02T14:58:49Z</time>
      </trkpt>
      <trkpt lat="48.18872" lon="6.62481">
        <ele>531.9</ele>
        <time>2024-11-02T14:59:01Z</time>
      </trkpt>
      <trkpt lat="48.18872" lon="6.62481">
        <ele>531.9</ele>
        <time>2024-11-02T14:59:02Z</time>
      </trkpt>
      <trkpt lat="48.18872" lon="6.62482">
        <ele>531.9</ele>
        <time>2024-11-02T14:59:03Z</time>
      </trkpt>
      <trkpt lat="48.18873" lon="6.62483">
        <ele>531.9</ele>
        <time>2024-11-02T14:59:04Z</time>
      </trkpt>
      <trkpt lat="48.18873" lon="6.62485">
        <ele>531.9</ele>
        <time>2024-11-02T14:59:05Z</time>
      </trkpt>
      <trkpt lat="48.18876" lon="6.6249">
        <ele>532</ele>
        <time>2024-11-02T14:59:17Z</time>
      </trkpt>
      <trkpt lat="48.18876" lon="6.6249">
        <ele>532</ele>
        <time>2024-11-02T14:59:18Z</time>
      </trkpt>
      <trkpt lat="48.18878" lon="6.62491">
        <ele>532</ele>
        <time>2024-11-02T15:00:23Z</time>
      </trkpt>
      <trkpt lat="48.18878" lon="6.62491">
        <ele>532</ele>
        <time>2024-11-02T15:00:24Z</time>
      </trkpt>
      <trkpt lat="48.18879" lon="6.6249">
        <ele>532</ele>
        <time>2024-11-02T15:00:25Z</time>
      </trkpt>
      <trkpt lat="48.18885" lon="6.62484">
        <ele>532</ele>
        <time>2024-11-02T15:00:34Z</time>
      </trkpt>
      <trkpt lat="48.18885" lon="6.62484">
        <ele>532</ele>
        <time>2024-11-02T15:00:35Z</time>
      </trkpt>
      <trkpt lat="48.18885" lon="6.62484">
        <ele>532</ele>
        <time>2024-11-02T15:00:36Z</time>
      </trkpt>
      <trkpt lat="48.18884" lon="6.62485">
        <ele>532</ele>
        <time>2024-11-02T15:00:41Z</time>
      </trkpt>
      <trkpt lat="48.18884" lon="6.62485">
        <ele>532</ele>
        <time>2024-11-02T15:00:42Z</time>
      </trkpt>
      <trkpt lat="48.18884" lon="6.62485">
        <ele>532</ele>
        <time>2024-11-02T15:00:43Z</time>
      </trkpt>
      <trkpt lat="48.18884" lon="6.62485">
        <ele>532</ele>
        <time>2024-11-02T15:00:44Z</time>
      </trkpt>
      <trkpt lat="48.18884" lon="6.62485">
        <ele>532</ele>
        <time>2024-11-02T15:00:45Z</time>
      </trkpt>
      <trkpt lat="48.18883" lon="6.62484">
        <ele>532</ele>
        <time>2024-11-02T15:01:29Z</time>
      </trkpt>
      <trkpt lat="48.18883" lon="6.62484">
        <ele>532</ele>
        <time>2024-11-02T15:01:30Z</time>
      </trkpt>
      <trkpt lat="48.18883" lon="6.62485">
        <ele>532</ele>
        <time>2024-11-02T15:01:33Z</time>
      </trkpt>
      <trkpt lat="48.18883" lon="6.62486">
        <ele>532</ele>
        <time>2024-11-02T15:01:34Z</time>
      </trkpt>
      <trkpt lat="48.18883" lon="6.62486">
        <ele>532</ele>
        <time>2024-11-02T15:01:35Z</time>
      </trkpt>
      <trkpt lat="48.18884" lon="6.62487">
        <ele>531.9</ele>
        <time>2024-11-02T15:03:18Z</time>
      </trkpt>
      <trkpt lat="48.18884" lon="6.62487">
        <ele>531.9</ele>
        <time>2024-11-02T15:03:19Z</time>
      </trkpt>
      <trkpt lat="48.18884" lon="6.62487">
        <ele>531.9</ele>
        <time>2024-11-02T15:03:20Z</time>
      </trkpt>
      <trkpt lat="48.18884" lon="6.62487">
        <ele>531.9</ele>
        <time>2024-11-02T15:03:21Z</time>
      </trkpt>
      <trkpt lat="48.18884" lon="6.62487">
        <ele>531.9</ele>
        <time>2024-11-02T15:03:22Z</time>
      </trkpt>
      <trkpt lat="48.18889" lon="6.62485">
        <ele>531.6</ele>
        <time>2024-11-02T15:04:07Z</time>
      </trkpt>
      <trkpt lat="48.18888" lon="6.62485">
        <ele>531.6</ele>
        <time>2024-11-02T15:04:08Z</time>
      </trkpt>
      <trkpt lat="48.18889" lon="6.62485">
        <ele>531.6</ele>
        <time>2024-11-02T15:04:11Z</time>
      </trkpt>
      <trkpt lat="48.18888" lon="6.62485">
        <ele>531.6</ele>
        <time>2024-11-02T15:04:12Z</time>
      </trkpt>
      <trkpt lat="48.18887" lon="6.62484">
        <ele>531.5</ele>
        <time>2024-11-02T15:09:18Z</time>
      </trkpt>
      <trkpt lat="48.18887" lon="6.62483">
        <ele>531.5</ele>
        <time>2024-11-02T15:09:19Z</time>
      </trkpt>
      <trkpt lat="48.18888" lon="6.62482">
        <ele>531.4</ele>
        <time>2024-11-02T15:09:20Z</time>
      </trkpt>
      <trkpt lat="48.18892" lon="6.62479">
        <ele>531.2</ele>
        <time>2024-11-02T15:09:29Z</time>
      </trkpt>
      <trkpt lat="48.18892" lon="6.62479">
        <ele>531.2</ele>
        <time>2024-11-02T15:09:30Z</time>
      </trkpt>
      <trkpt lat="48.18892" lon="6.62479">
        <ele>531.2</ele>
        <time>2024-11-02T15:09:31Z</time>
      </trkpt>
      <trkpt lat="48.18891" lon="6.62478">
        <ele>531.2</ele>
        <time>2024-11-02T15:10:04Z</time>
      </trkpt>
      <trkpt lat="48.18892" lon="6.62477">
        <ele>531.2</ele>
        <time>2024-11-02T15:10:05Z</time>
      </trkpt>
      <trkpt lat="48.18892" lon="6.62476">
        <ele>531.1</ele>
        <time>2024-11-02T15:10:06Z</time>
      </trkpt>
      <trkpt lat="48.18901" lon="6.62469">
        <ele>530.9</ele>
        <time>2024-11-02T15:10:13Z</time>
      </trkpt>
      <trkpt lat="48.18904" lon="6.62466">
        <ele>530.8</ele>
        <time>2024-11-02T15:10:21Z</time>
      </trkpt>
      <trkpt lat="48.18904" lon="6.62466">
        <ele>530.8</ele>
        <time>2024-11-02T15:10:22Z</time>
      </trkpt>
      <trkpt lat="48.18903" lon="6.62466">
        <ele>530.8</ele>
        <time>2024-11-02T15:10:31Z</time>
      </trkpt>
      <trkpt lat="48.18903" lon="6.62466">
        <ele>530.8</ele>
        <time>2024-11-02T15:10:32Z</time>
      </trkpt>
      <trkpt lat="48.18903" lon="6.62466">
        <ele>530.8</ele>
        <time>2024-11-02T15:10:33Z</time>
      </trkpt>
      <trkpt lat="48.18903" lon="6.62466">
        <ele>530.8</ele>
        <time>2024-11-02T15:10:34Z</time>
      </trkpt>
      <trkpt lat="48.18903" lon="6.62466">
        <ele>530.8</ele>
        <time>2024-11-02T15:10:35Z</time>
      </trkpt>
      <trkpt lat="48.18902" lon="6.62466">
        <ele>530.8</ele>
        <time>2024-11-02T15:10:43Z</time>
      </trkpt>
      <trkpt lat="48.18902" lon="6.62466">
        <ele>530.8</ele>
        <time>2024-11-02T15:10:44Z</time>
      </trkpt>
      <trkpt lat="48.18902" lon="6.62466">
        <ele>530.8</ele>
        <time>2024-11-02T15:10:45Z</time>
      </trkpt>
      <trkpt lat="48.1891" lon="6.62458">
        <ele>530.7</ele>
        <time>2024-11-02T15:10:53Z</time>
      </trkpt>
      <trkpt lat="48.18917" lon="6.62447">
        <ele>530.6</ele>
        <time>2024-11-02T15:11:00Z</time>
      </trkpt>
      <trkpt lat="48.18922" lon="6.62435">
        <ele>530.7</ele>
        <time>2024-11-02T15:11:07Z</time>
      </trkpt>
      <trkpt lat="48.18926" lon="6.62422">
        <ele>530.9</ele>
        <time>2024-11-02T15:11:14Z</time>
      </trkpt>
      <trkpt lat="48.18931" lon="6.6241">
        <ele>531.2</ele>
        <time>2024-11-02T15:11:22Z</time>
      </trkpt>
      <trkpt lat="48.18938" lon="6.62399">
        <ele>531.7</ele>
        <time>2024-11-02T15:11:30Z</time>
      </trkpt>
      <trkpt lat="48.18944" lon="6.62389">
        <ele>532.3</ele>
        <time>2024-11-02T15:11:38Z</time>
      </trkpt>
      <trkpt lat="48.18949" lon="6.62384">
        <ele>532.7</ele>
        <time>2024-11-02T15:11:48Z</time>
      </trkpt>
      <trkpt lat="48.18949" lon="6.62384">
        <ele>532.7</ele>
        <time>2024-11-02T15:11:49Z</time>
      </trkpt>
      <trkpt lat="48.18949" lon="6.62384">
        <ele>532.7</ele>
        <time>2024-11-02T15:11:50Z</time>
      </trkpt>
      <trkpt lat="48.18949" lon="6.62383">
        <ele>532.8</ele>
        <time>2024-11-02T15:11:53Z</time>
      </trkpt>
      <trkpt lat="48.18949" lon="6.62383">
        <ele>532.8</ele>
        <time>2024-11-02T15:11:54Z</time>
      </trkpt>
      <trkpt lat="48.18949" lon="6.62382">
        <ele>532.8</ele>
        <time>2024-11-02T15:11:55Z</time>
      </trkpt>
      <trkpt lat="48.18955" lon="6.6237">
        <ele>533.6</ele>
        <time>2024-11-02T15:12:03Z</time>
      </trkpt>
      <trkpt lat="48.1896" lon="6.62357">
        <ele>534.3</ele>
        <time>2024-11-02T15:12:09Z</time>
      </trkpt>
      <trkpt lat="48.18964" lon="6.62344">
        <ele>534.8</ele>
        <time>2024-11-02T15:12:17Z</time>
      </trkpt>
      <trkpt lat="48.18971" lon="6.62333">
        <ele>535</ele>
        <time>2024-11-02T15:12:24Z</time>
      </trkpt>
      <trkpt lat="48.18976" lon="6.62321">
        <ele>535</ele>
        <time>2024-11-02T15:12:33Z</time>
      </trkpt>
      <trkpt lat="48.18979" lon="6.62308">
        <ele>534.9</ele>
        <time>2024-11-02T15:12:40Z</time>
      </trkpt>
      <trkpt lat="48.18984" lon="6.62295">
        <ele>534.7</ele>
        <time>2024-11-02T15:12:48Z</time>
      </trkpt>
      <trkpt lat="48.18991" lon="6.62285">
        <ele>534.4</ele>
        <time>2024-11-02T15:12:57Z</time>
      </trkpt>
      <trkpt lat="48.18997" lon="6.62274">
        <ele>534.2</ele>
        <time>2024-11-02T15:13:05Z</time>
      </trkpt>
      <trkpt lat="48.19003" lon="6.62263">
        <ele>533.9</ele>
        <time>2024-11-02T15:13:17Z</time>
      </trkpt>
      <trkpt lat="48.19009" lon="6.62251">
        <ele>533.7</ele>
        <time>2024-11-02T15:13:25Z</time>
      </trkpt>
      <trkpt lat="48.19015" lon="6.62241">
        <ele>533.5</ele>
        <time>2024-11-02T15:13:32Z</time>
      </trkpt>
      <trkpt lat="48.19022" lon="6.62232">
        <ele>533.3</ele>
        <time>2024-11-02T15:13:40Z</time>
      </trkpt>
      <trkpt lat="48.19028" lon="6.62222">
        <ele>533.2</ele>
        <time>2024-11-02T15:13:48Z</time>
      </trkpt>
      <trkpt lat="48.19037" lon="6.62216">
        <ele>533.1</ele>
        <time>2024-11-02T15:13:55Z</time>
      </trkpt>
      <trkpt lat="48.19045" lon="6.62209">
        <ele>532.9</ele>
        <time>2024-11-02T15:14:03Z</time>
      </trkpt>
      <trkpt lat="48.19054" lon="6.62204">
        <ele>532.7</ele>
        <time>2024-11-02T15:14:15Z</time>
      </trkpt>
      <trkpt lat="48.19063" lon="6.62197">
        <ele>532.3</ele>
        <time>2024-11-02T15:14:29Z</time>
      </trkpt>
      <trkpt lat="48.19072" lon="6.62191">
        <ele>531.9</ele>
        <time>2024-11-02T15:14:36Z</time>
      </trkpt>
      <trkpt lat="48.1908" lon="6.62185">
        <ele>531.4</ele>
        <time>2024-11-02T15:14:43Z</time>
      </trkpt>
      <trkpt lat="48.1909" lon="6.62181">
        <ele>530.7</ele>
        <time>2024-11-02T15:14:52Z</time>
      </trkpt>
      <trkpt lat="48.19099" lon="6.62176">
        <ele>530.1</ele>
        <time>2024-11-02T15:14:59Z</time>
      </trkpt>
      <trkpt lat="48.19108" lon="6.62172">
        <ele>529.4</ele>
        <time>2024-11-02T15:15:07Z</time>
      </trkpt>
      <trkpt lat="48.19118" lon="6.62169">
        <ele>528.8</ele>
        <time>2024-11-02T15:15:14Z</time>
      </trkpt>
      <trkpt lat="48.19127" lon="6.62164">
        <ele>528.1</ele>
        <time>2024-11-02T15:15:22Z</time>
      </trkpt>
      <trkpt lat="48.19136" lon="6.62159">
        <ele>527.5</ele>
        <time>2024-11-02T15:15:30Z</time>
      </trkpt>
      <trkpt lat="48.19145" lon="6.62153">
        <ele>526.9</ele>
        <time>2024-11-02T15:15:39Z</time>
      </trkpt>
      <trkpt lat="48.19154" lon="6.62147">
        <ele>526.4</ele>
        <time>2024-11-02T15:15:47Z</time>
      </trkpt>
      <trkpt lat="48.19163" lon="6.62142">
        <ele>525.9</ele>
        <time>2024-11-02T15:15:55Z</time>
      </trkpt>
      <trkpt lat="48.19173" lon="6.62137">
        <ele>525.4</ele>
        <time>2024-11-02T15:16:02Z</time>
      </trkpt>
      <trkpt lat="48.19175" lon="6.62135">
        <ele>522</ele>
        <time>2024-11-02T15:16:06Z</time>
      </trkpt>
      <trkpt lat="48.19175" lon="6.62135">
        <ele>522</ele>
        <time>2024-11-02T15:16:07Z</time>
      </trkpt>
      <trkpt lat="48.19175" lon="6.62135">
        <ele>521.3</ele>
        <time>2024-11-02T15:16:11Z</time>
      </trkpt>
      <trkpt lat="48.19176" lon="6.62134">
        <ele>519.8</ele>
        <time>2024-11-02T15:16:12Z</time>
      </trkpt>
      <trkpt lat="48.19186" lon="6.62133">
        <ele>519.3</ele>
        <time>2024-11-02T15:16:22Z</time>
      </trkpt>
      <trkpt lat="48.19195" lon="6.62132">
        <ele>519.1</ele>
        <time>2024-11-02T15:16:29Z</time>
      </trkpt>
      <trkpt lat="48.19204" lon="6.62131">
        <ele>519</ele>
        <time>2024-11-02T15:16:38Z</time>
      </trkpt>
      <trkpt lat="48.19214" lon="6.62134">
        <ele>518.8</ele>
        <time>2024-11-02T15:16:47Z</time>
      </trkpt>
      <trkpt lat="48.19224" lon="6.62136">
        <ele>518.7</ele>
        <time>2024-11-02T15:16:55Z</time>
      </trkpt>
      <trkpt lat="48.19233" lon="6.62142">
        <ele>518.5</ele>
        <time>2024-11-02T15:17:02Z</time>
      </trkpt>
      <trkpt lat="48.19242" lon="6.62147">
        <ele>518.3</ele>
        <time>2024-11-02T15:17:10Z</time>
      </trkpt>
      <trkpt lat="48.19251" lon="6.62153">
        <ele>518.2</ele>
        <time>2024-11-02T15:17:19Z</time>
      </trkpt>
      <trkpt lat="48.19259" lon="6.62162">
        <ele>518</ele>
        <time>2024-11-02T15:17:27Z</time>
      </trkpt>
      <trkpt lat="48.19268" lon="6.62168">
        <ele>517.8</ele>
        <time>2024-11-02T15:17:34Z</time>
      </trkpt>
      <trkpt lat="48.19277" lon="6.62175">
        <ele>517.6</ele>
        <time>2024-11-02T15:17:42Z</time>
      </trkpt>
      <trkpt lat="48.19285" lon="6.6218">
        <ele>517.5</ele>
        <time>2024-11-02T15:17:50Z</time>
      </trkpt>
      <trkpt lat="48.19295" lon="6.62185">
        <ele>517.3</ele>
        <time>2024-11-02T15:17:59Z</time>
      </trkpt>
      <trkpt lat="48.19304" lon="6.6219">
        <ele>517.1</ele>
        <time>2024-11-02T15:18:07Z</time>
      </trkpt>
      <trkpt lat="48.19313" lon="6.62195">
        <ele>516.9</ele>
        <time>2024-11-02T15:18:16Z</time>
      </trkpt>
      <trkpt lat="48.19321" lon="6.62201">
        <ele>516.6</ele>
        <time>2024-11-02T15:18:25Z</time>
      </trkpt>
      <trkpt lat="48.1933" lon="6.62208">
        <ele>516.2</ele>
        <time>2024-11-02T15:18:34Z</time>
      </trkpt>
      <trkpt lat="48.19337" lon="6.62216">
        <ele>515.8</ele>
        <time>2024-11-02T15:18:42Z</time>
      </trkpt>
      <trkpt lat="48.19345" lon="6.62221">
        <ele>515.4</ele>
        <time>2024-11-02T15:18:50Z</time>
      </trkpt>
      <trkpt lat="48.19355" lon="6.62225">
        <ele>515</ele>
        <time>2024-11-02T15:18:58Z</time>
      </trkpt>
      <trkpt lat="48.19363" lon="6.62232">
        <ele>514.5</ele>
        <time>2024-11-02T15:19:06Z</time>
      </trkpt>
      <trkpt lat="48.1937" lon="6.62241">
        <ele>514.2</ele>
        <time>2024-11-02T15:19:14Z</time>
      </trkpt>
      <trkpt lat="48.19378" lon="6.6225">
        <ele>513.9</ele>
        <time>2024-11-02T15:19:22Z</time>
      </trkpt>
      <trkpt lat="48.19386" lon="6.62257">
        <ele>513.7</ele>
        <time>2024-11-02T15:19:30Z</time>
      </trkpt>
      <trkpt lat="48.19395" lon="6.62262">
        <ele>513.5</ele>
        <time>2024-11-02T15:19:37Z</time>
      </trkpt>
      <trkpt lat="48.19404" lon="6.62265">
        <ele>513.4</ele>
        <time>2024-11-02T15:19:46Z</time>
      </trkpt>
      <trkpt lat="48.19414" lon="6.62269">
        <ele>513.3</ele>
        <time>2024-11-02T15:19:56Z</time>
      </trkpt>
      <trkpt lat="48.19423" lon="6.6227">
        <ele>513.2</ele>
        <time>2024-11-02T15:20:05Z</time>
      </trkpt>
      <trkpt lat="48.19425" lon="6.62269">
        <ele>513.2</ele>
        <time>2024-11-02T15:20:13Z</time>
      </trkpt>
      <trkpt lat="48.19425" lon="6.62269">
        <ele>513.2</ele>
        <time>2024-11-02T15:20:14Z</time>
      </trkpt>
      <trkpt lat="48.19425" lon="6.62269">
        <ele>513.2</ele>
        <time>2024-11-02T15:20:15Z</time>
      </trkpt>
      <trkpt lat="48.19426" lon="6.62268">
        <ele>513.2</ele>
        <time>2024-11-02T15:20:31Z</time>
      </trkpt>
      <trkpt lat="48.19426" lon="6.62268">
        <ele>513.2</ele>
        <time>2024-11-02T15:20:32Z</time>
      </trkpt>
      <trkpt lat="48.19436" lon="6.62267">
        <ele>513</ele>
        <time>2024-11-02T15:20:41Z</time>
      </trkpt>
      <trkpt lat="48.19442" lon="6.6227">
        <ele>512.9</ele>
        <time>2024-11-02T15:20:51Z</time>
      </trkpt>
      <trkpt lat="48.19442" lon="6.6227">
        <ele>512.9</ele>
        <time>2024-11-02T15:20:52Z</time>
      </trkpt>
      <trkpt lat="48.19443" lon="6.6227">
        <ele>512.9</ele>
        <time>2024-11-02T15:20:53Z</time>
      </trkpt>
      <trkpt lat="48.19444" lon="6.6227">
        <ele>512.9</ele>
        <time>2024-11-02T15:20:54Z</time>
      </trkpt>
      <trkpt lat="48.19445" lon="6.6227">
        <ele>512.9</ele>
        <time>2024-11-02T15:20:55Z</time>
      </trkpt>
      <trkpt lat="48.19453" lon="6.62267">
        <ele>512.8</ele>
        <time>2024-11-02T15:21:02Z</time>
      </trkpt>
      <trkpt lat="48.19463" lon="6.62269">
        <ele>512.7</ele>
        <time>2024-11-02T15:21:09Z</time>
      </trkpt>
      <trkpt lat="48.19473" lon="6.6227">
        <ele>512.6</ele>
        <time>2024-11-02T15:21:17Z</time>
      </trkpt>
      <trkpt lat="48.19482" lon="6.6227">
        <ele>512.6</ele>
        <time>2024-11-02T15:21:25Z</time>
      </trkpt>
      <trkpt lat="48.1949" lon="6.62275">
        <ele>512.5</ele>
        <time>2024-11-02T15:21:33Z</time>
      </trkpt>
      <trkpt lat="48.19499" lon="6.62277">
        <ele>512.5</ele>
        <time>2024-11-02T15:21:41Z</time>
      </trkpt>
      <trkpt lat="48.19507" lon="6.62275">
        <ele>512.5</ele>
        <time>2024-11-02T15:21:54Z</time>
      </trkpt>
      <trkpt lat="48.19507" lon="6.62275">
        <ele>512.5</ele>
        <time>2024-11-02T15:21:55Z</time>
      </trkpt>
      <trkpt lat="48.19509" lon="6.62275">
        <ele>512.5</ele>
        <time>2024-11-02T15:21:58Z</time>
      </trkpt>
      <trkpt lat="48.1951" lon="6.62274">
        <ele>512.5</ele>
        <time>2024-11-02T15:21:59Z</time>
      </trkpt>
      <trkpt lat="48.19511" lon="6.62274">
        <ele>512.5</ele>
        <time>2024-11-02T15:22:00Z</time>
      </trkpt>
      <trkpt lat="48.1952" lon="6.62276">
        <ele>512.6</ele>
        <time>2024-11-02T15:22:09Z</time>
      </trkpt>
      <trkpt lat="48.1953" lon="6.62279">
        <ele>512.6</ele>
        <time>2024-11-02T15:22:17Z</time>
      </trkpt>
      <trkpt lat="48.19539" lon="6.62281">
        <ele>512.6</ele>
        <time>2024-11-02T15:22:24Z</time>
      </trkpt>
      <trkpt lat="48.19549" lon="6.62285">
        <ele>512.7</ele>
        <time>2024-11-02T15:22:32Z</time>
      </trkpt>
      <trkpt lat="48.19558" lon="6.62286">
        <ele>512.7</ele>
        <time>2024-11-02T15:22:39Z</time>
      </trkpt>
      <trkpt lat="48.19568" lon="6.62283">
        <ele>512.7</ele>
        <time>2024-11-02T15:22:49Z</time>
      </trkpt>
      <trkpt lat="48.19577" lon="6.62283">
        <ele>512.8</ele>
        <time>2024-11-02T15:22:55Z</time>
      </trkpt>
      <trkpt lat="48.19587" lon="6.6228">
        <ele>512.9</ele>
        <time>2024-11-02T15:23:02Z</time>
      </trkpt>
      <trkpt lat="48.19595" lon="6.62273">
        <ele>513</ele>
        <time>2024-11-02T15:23:09Z</time>
      </trkpt>
      <trkpt lat="48.19604" lon="6.62272">
        <ele>513.2</ele>
        <time>2024-11-02T15:23:19Z</time>
      </trkpt>
      <trkpt lat="48.19614" lon="6.62272">
        <ele>513.4</ele>
        <time>2024-11-02T15:23:25Z</time>
      </trkpt>
      <trkpt lat="48.19623" lon="6.62272">
        <ele>513.5</ele>
        <time>2024-11-02T15:23:32Z</time>
      </trkpt>
      <trkpt lat="48.19633" lon="6.6227">
        <ele>513.6</ele>
        <time>2024-11-02T15:23:40Z</time>
      </trkpt>
      <trkpt lat="48.19643" lon="6.62269">
        <ele>513.7</ele>
        <time>2024-11-02T15:23:47Z</time>
      </trkpt>
      <trkpt lat="48.19652" lon="6.62263">
        <ele>513.7</ele>
        <time>2024-11-02T15:23:55Z</time>
      </trkpt>
      <trkpt lat="48.19661" lon="6.62257">
        <ele>513.7</ele>
        <time>2024-11-02T15:24:02Z</time>
      </trkpt>
      <trkpt lat="48.19669" lon="6.62251">
        <ele>513.7</ele>
        <time>2024-11-02T15:24:09Z</time>
      </trkpt>
      <trkpt lat="48.19678" lon="6.62246">
        <ele>513.7</ele>
        <time>2024-11-02T15:24:18Z</time>
      </trkpt>
      <trkpt lat="48.19687" lon="6.62242">
        <ele>513.7</ele>
        <time>2024-11-02T15:24:25Z</time>
      </trkpt>
      <trkpt lat="48.19696" lon="6.62235">
        <ele>513.7</ele>
        <time>2024-11-02T15:24:32Z</time>
      </trkpt>
      <trkpt lat="48.19705" lon="6.6223">
        <ele>513.6</ele>
        <time>2024-11-02T15:24:40Z</time>
      </trkpt>
      <trkpt lat="48.19715" lon="6.62228">
        <ele>513.5</ele>
        <time>2024-11-02T15:24:48Z</time>
      </trkpt>
      <trkpt lat="48.19725" lon="6.62227">
        <ele>513.2</ele>
        <time>2024-11-02T15:24:57Z</time>
      </trkpt>
      <trkpt lat="48.19734" lon="6.62227">
        <ele>513</ele>
        <time>2024-11-02T15:25:05Z</time>
      </trkpt>
      <trkpt lat="48.19744" lon="6.62225">
        <ele>512.7</ele>
        <time>2024-11-02T15:25:12Z</time>
      </trkpt>
      <trkpt lat="48.19753" lon="6.62225">
        <ele>512.4</ele>
        <time>2024-11-02T15:25:19Z</time>
      </trkpt>
      <trkpt lat="48.19759" lon="6.62227">
        <ele>512.2</ele>
        <time>2024-11-02T15:25:27Z</time>
      </trkpt>
      <trkpt lat="48.19759" lon="6.62227">
        <ele>512.2</ele>
        <time>2024-11-02T15:25:28Z</time>
      </trkpt>
      <trkpt lat="48.19761" lon="6.62228">
        <ele>512.1</ele>
        <time>2024-11-02T15:25:32Z</time>
      </trkpt>
      <trkpt lat="48.19763" lon="6.62228">
        <ele>512</ele>
        <time>2024-11-02T15:25:33Z</time>
      </trkpt>
      <trkpt lat="48.19772" lon="6.62227">
        <ele>511.7</ele>
        <time>2024-11-02T15:25:41Z</time>
      </trkpt>
      <trkpt lat="48.19781" lon="6.6223">
        <ele>511.3</ele>
        <time>2024-11-02T15:25:51Z</time>
      </trkpt>
      <trkpt lat="48.19791" lon="6.62232">
        <ele>510.7</ele>
        <time>2024-11-02T15:25:59Z</time>
      </trkpt>
      <trkpt lat="48.19801" lon="6.62228">
        <ele>510</ele>
        <time>2024-11-02T15:26:06Z</time>
      </trkpt>
      <trkpt lat="48.19809" lon="6.62223">
        <ele>509.2</ele>
        <time>2024-11-02T15:26:13Z</time>
      </trkpt>
      <trkpt lat="48.19819" lon="6.62219">
        <ele>508.4</ele>
        <time>2024-11-02T15:26:20Z</time>
      </trkpt>
      <trkpt lat="48.19828" lon="6.62213">
        <ele>507.6</ele>
        <time>2024-11-02T15:26:28Z</time>
      </trkpt>
      <trkpt lat="48.19836" lon="6.62204">
        <ele>506.8</ele>
        <time>2024-11-02T15:26:36Z</time>
      </trkpt>
      <trkpt lat="48.19845" lon="6.62196">
        <ele>505.9</ele>
        <time>2024-11-02T15:26:43Z</time>
      </trkpt>
      <trkpt lat="48.19853" lon="6.6219">
        <ele>505</ele>
        <time>2024-11-02T15:26:51Z</time>
      </trkpt>
      <trkpt lat="48.19863" lon="6.62187">
        <ele>503.9</ele>
        <time>2024-11-02T15:26:59Z</time>
      </trkpt>
      <trkpt lat="48.19873" lon="6.62188">
        <ele>502.8</ele>
        <time>2024-11-02T15:27:08Z</time>
      </trkpt>
      <trkpt lat="48.19883" lon="6.62191">
        <ele>501.7</ele>
        <time>2024-11-02T15:27:15Z</time>
      </trkpt>
      <trkpt lat="48.19892" lon="6.62192">
        <ele>500.7</ele>
        <time>2024-11-02T15:27:23Z</time>
      </trkpt>
      <trkpt lat="48.19901" lon="6.62185">
        <ele>499.6</ele>
        <time>2024-11-02T15:27:31Z</time>
      </trkpt>
      <trkpt lat="48.1991" lon="6.62179">
        <ele>498.6</ele>
        <time>2024-11-02T15:27:38Z</time>
      </trkpt>
      <trkpt lat="48.19919" lon="6.62175">
        <ele>497.6</ele>
        <time>2024-11-02T15:27:47Z</time>
      </trkpt>
      <trkpt lat="48.19929" lon="6.62169">
        <ele>496.6</ele>
        <time>2024-11-02T15:27:54Z</time>
      </trkpt>
      <trkpt lat="48.19938" lon="6.62164">
        <ele>495.6</ele>
        <time>2024-11-02T15:28:02Z</time>
      </trkpt>
      <trkpt lat="48.19947" lon="6.62162">
        <ele>494.6</ele>
        <time>2024-11-02T15:28:10Z</time>
      </trkpt>
      <trkpt lat="48.19957" lon="6.62158">
        <ele>493.5</ele>
        <time>2024-11-02T15:28:19Z</time>
      </trkpt>
      <trkpt lat="48.19966" lon="6.62154">
        <ele>492.5</ele>
        <time>2024-11-02T15:28:27Z</time>
      </trkpt>
      <trkpt lat="48.19976" lon="6.6215">
        <ele>491.4</ele>
        <time>2024-11-02T15:28:35Z</time>
      </trkpt>
      <trkpt lat="48.19985" lon="6.62148">
        <ele>490.3</ele>
        <time>2024-11-02T15:28:45Z</time>
      </trkpt>
      <trkpt lat="48.19996" lon="6.62147">
        <ele>488.8</ele>
        <time>2024-11-02T15:28:54Z</time>
      </trkpt>
      <trkpt lat="48.20004" lon="6.62143">
        <ele>487.8</ele>
        <time>2024-11-02T15:28:59Z</time>
      </trkpt>
      <trkpt lat="48.20013" lon="6.62137">
        <ele>486.6</ele>
        <time>2024-11-02T15:29:06Z</time>
      </trkpt>
      <trkpt lat="48.20022" lon="6.62131">
        <ele>485.4</ele>
        <time>2024-11-02T15:29:13Z</time>
      </trkpt>
      <trkpt lat="48.20031" lon="6.62126">
        <ele>484.2</ele>
        <time>2024-11-02T15:29:21Z</time>
      </trkpt>
      <trkpt lat="48.2004" lon="6.62119">
        <ele>483.1</ele>
        <time>2024-11-02T15:29:29Z</time>
      </trkpt>
      <trkpt lat="48.20049" lon="6.62114">
        <ele>481.9</ele>
        <time>2024-11-02T15:29:36Z</time>
      </trkpt>
      <trkpt lat="48.20058" lon="6.62106">
        <ele>480.7</ele>
        <time>2024-11-02T15:29:45Z</time>
      </trkpt>
      <trkpt lat="48.20066" lon="6.62098">
        <ele>479.6</ele>
        <time>2024-11-02T15:29:53Z</time>
      </trkpt>
      <trkpt lat="48.20076" lon="6.62096">
        <ele>478.5</ele>
        <time>2024-11-02T15:30:02Z</time>
      </trkpt>
      <trkpt lat="48.20085" lon="6.62092">
        <ele>477.6</ele>
        <time>2024-11-02T15:30:09Z</time>
      </trkpt>
      <trkpt lat="48.20094" lon="6.62085">
        <ele>476.6</ele>
        <time>2024-11-02T15:30:16Z</time>
      </trkpt>
      <trkpt lat="48.20103" lon="6.62078">
        <ele>475.8</ele>
        <time>2024-11-02T15:30:24Z</time>
      </trkpt>
      <trkpt lat="48.2011" lon="6.62067">
        <ele>474.9</ele>
        <time>2024-11-02T15:30:35Z</time>
      </trkpt>
      <trkpt lat="48.20116" lon="6.62055">
        <ele>474.4</ele>
        <time>2024-11-02T15:30:41Z</time>
      </trkpt>
      <trkpt lat="48.20123" lon="6.62043">
        <ele>474</ele>
        <time>2024-11-02T15:30:48Z</time>
      </trkpt>
      <trkpt lat="48.2013" lon="6.62033">
        <ele>473.6</ele>
        <time>2024-11-02T15:30:56Z</time>
      </trkpt>
      <trkpt lat="48.20136" lon="6.62023">
        <ele>473.4</ele>
        <time>2024-11-02T15:31:03Z</time>
      </trkpt>
      <trkpt lat="48.20142" lon="6.62011">
        <ele>473.1</ele>
        <time>2024-11-02T15:31:11Z</time>
      </trkpt>
      <trkpt lat="48.20148" lon="6.62">
        <ele>472.8</ele>
        <time>2024-11-02T15:31:19Z</time>
      </trkpt>
      <trkpt lat="48.20153" lon="6.61989">
        <ele>472.5</ele>
        <time>2024-11-02T15:31:26Z</time>
      </trkpt>
      <trkpt lat="48.2016" lon="6.61979">
        <ele>472.2</ele>
        <time>2024-11-02T15:31:32Z</time>
      </trkpt>
      <trkpt lat="48.20167" lon="6.6197">
        <ele>471.9</ele>
        <time>2024-11-02T15:31:40Z</time>
      </trkpt>
      <trkpt lat="48.20173" lon="6.61959">
        <ele>471.5</ele>
        <time>2024-11-02T15:31:48Z</time>
      </trkpt>
      <trkpt lat="48.20178" lon="6.61948">
        <ele>471.2</ele>
        <time>2024-11-02T15:31:54Z</time>
      </trkpt>
      <trkpt lat="48.20182" lon="6.61933">
        <ele>470.7</ele>
        <time>2024-11-02T15:32:03Z</time>
      </trkpt>
      <trkpt lat="48.20186" lon="6.61919">
        <ele>470.1</ele>
        <time>2024-11-02T15:32:10Z</time>
      </trkpt>
      <trkpt lat="48.20191" lon="6.61905">
        <ele>469.5</ele>
        <time>2024-11-02T15:32:19Z</time>
      </trkpt>
      <trkpt lat="48.20193" lon="6.61897">
        <ele>469</ele>
        <time>2024-11-02T15:32:31Z</time>
      </trkpt>
      <trkpt lat="48.20193" lon="6.61897">
        <ele>469</ele>
        <time>2024-11-02T15:32:32Z</time>
      </trkpt>
      <trkpt lat="48.20194" lon="6.61897">
        <ele>469</ele>
        <time>2024-11-02T15:32:43Z</time>
      </trkpt>
      <trkpt lat="48.20194" lon="6.61896">
        <ele>468.9</ele>
        <time>2024-11-02T15:32:44Z</time>
      </trkpt>
      <trkpt lat="48.20195" lon="6.61895">
        <ele>468.9</ele>
        <time>2024-11-02T15:32:45Z</time>
      </trkpt>
      <trkpt lat="48.20203" lon="6.61886">
        <ele>468.1</ele>
        <time>2024-11-02T15:32:53Z</time>
      </trkpt>
      <trkpt lat="48.20212" lon="6.6188">
        <ele>467.3</ele>
        <time>2024-11-02T15:33:00Z</time>
      </trkpt>
      <trkpt lat="48.20218" lon="6.6187">
        <ele>466.4</ele>
        <time>2024-11-02T15:33:08Z</time>
      </trkpt>
      <trkpt lat="48.20227" lon="6.61861">
        <ele>465.5</ele>
        <time>2024-11-02T15:33:15Z</time>
      </trkpt>
      <trkpt lat="48.20233" lon="6.61851">
        <ele>464.6</ele>
        <time>2024-11-02T15:33:21Z</time>
      </trkpt>
      <trkpt lat="48.2024" lon="6.6184">
        <ele>463.7</ele>
        <time>2024-11-02T15:33:27Z</time>
      </trkpt>
      <trkpt lat="48.20246" lon="6.61827">
        <ele>462.8</ele>
        <time>2024-11-02T15:33:35Z</time>
      </trkpt>
      <trkpt lat="48.20251" lon="6.61815">
        <ele>461.9</ele>
        <time>2024-11-02T15:33:43Z</time>
      </trkpt>
      <trkpt lat="48.20257" lon="6.61804">
        <ele>461.2</ele>
        <time>2024-11-02T15:33:51Z</time>
      </trkpt>
      <trkpt lat="48.20265" lon="6.61795">
        <ele>460.4</ele>
        <time>2024-11-02T15:33:59Z</time>
      </trkpt>
      <trkpt lat="48.2027" lon="6.61783">
        <ele>459.6</ele>
        <time>2024-11-02T15:34:07Z</time>
      </trkpt>
      <trkpt lat="48.20277" lon="6.61773">
        <ele>458.8</ele>
        <time>2024-11-02T15:34:14Z</time>
      </trkpt>
      <trkpt lat="48.20284" lon="6.61763">
        <ele>458</ele>
        <time>2024-11-02T15:34:21Z</time>
      </trkpt>
      <trkpt lat="48.20291" lon="6.61752">
        <ele>457.1</ele>
        <time>2024-11-02T15:34:29Z</time>
      </trkpt>
      <trkpt lat="48.20296" lon="6.6174">
        <ele>456.1</ele>
        <time>2024-11-02T15:34:35Z</time>
      </trkpt>
      <trkpt lat="48.20302" lon="6.61728">
        <ele>455</ele>
        <time>2024-11-02T15:34:42Z</time>
      </trkpt>
      <trkpt lat="48.20308" lon="6.61718">
        <ele>453.8</ele>
        <time>2024-11-02T15:34:49Z</time>
      </trkpt>
      <trkpt lat="48.20317" lon="6.6171">
        <ele>452.4</ele>
        <time>2024-11-02T15:35:01Z</time>
      </trkpt>
      <trkpt lat="48.20325" lon="6.61703">
        <ele>451.3</ele>
        <time>2024-11-02T15:35:07Z</time>
      </trkpt>
      <trkpt lat="48.20333" lon="6.61695">
        <ele>450.1</ele>
        <time>2024-11-02T15:35:14Z</time>
      </trkpt>
      <trkpt lat="48.2034" lon="6.61685">
        <ele>448.9</ele>
        <time>2024-11-02T15:35:21Z</time>
      </trkpt>
      <trkpt lat="48.20347" lon="6.61676">
        <ele>447.7</ele>
        <time>2024-11-02T15:35:32Z</time>
      </trkpt>
      <trkpt lat="48.20354" lon="6.61667">
        <ele>446.4</ele>
        <time>2024-11-02T15:35:37Z</time>
      </trkpt>
      <trkpt lat="48.20361" lon="6.61658">
        <ele>445</ele>
        <time>2024-11-02T15:35:43Z</time>
      </trkpt>
      <trkpt lat="48.20368" lon="6.61649">
        <ele>443.6</ele>
        <time>2024-11-02T15:35:50Z</time>
      </trkpt>
      <trkpt lat="48.20375" lon="6.61638">
        <ele>442.2</ele>
        <time>2024-11-02T15:35:58Z</time>
      </trkpt>
      <trkpt lat="48.20383" lon="6.61628">
        <ele>440.8</ele>
        <time>2024-11-02T15:36:06Z</time>
      </trkpt>
      <trkpt lat="48.20389" lon="6.61617">
        <ele>439.6</ele>
        <time>2024-11-02T15:36:16Z</time>
      </trkpt>
      <trkpt lat="48.20397" lon="6.61608">
        <ele>438.4</ele>
        <time>2024-11-02T15:36:25Z</time>
      </trkpt>
      <trkpt lat="48.20399" lon="6.61607">
        <ele>438.2</ele>
        <time>2024-11-02T15:36:31Z</time>
      </trkpt>
      <trkpt lat="48.20399" lon="6.61607">
        <ele>438.2</ele>
        <time>2024-11-02T15:36:32Z</time>
      </trkpt>
      <trkpt lat="48.20399" lon="6.61606">
        <ele>438.1</ele>
        <time>2024-11-02T15:36:36Z</time>
      </trkpt>
      <trkpt lat="48.204" lon="6.61605">
        <ele>438</ele>
        <time>2024-11-02T15:36:37Z</time>
      </trkpt>
      <trkpt lat="48.20408" lon="6.61598">
        <ele>436.9</ele>
        <time>2024-11-02T15:36:45Z</time>
      </trkpt>
      <trkpt lat="48.20416" lon="6.6159">
        <ele>435.8</ele>
        <time>2024-11-02T15:36:53Z</time>
      </trkpt>
      <trkpt lat="48.20423" lon="6.6158">
        <ele>434.7</ele>
        <time>2024-11-02T15:37:01Z</time>
      </trkpt>
      <trkpt lat="48.2043" lon="6.61569">
        <ele>433.7</ele>
        <time>2024-11-02T15:37:11Z</time>
      </trkpt>
      <trkpt lat="48.20438" lon="6.61563">
        <ele>432.7</ele>
        <time>2024-11-02T15:37:18Z</time>
      </trkpt>
      <trkpt lat="48.20446" lon="6.61555">
        <ele>431.7</ele>
        <time>2024-11-02T15:37:24Z</time>
      </trkpt>
      <trkpt lat="48.20455" lon="6.61548">
        <ele>430.6</ele>
        <time>2024-11-02T15:37:31Z</time>
      </trkpt>
      <trkpt lat="48.20463" lon="6.61542">
        <ele>429.6</ele>
        <time>2024-11-02T15:37:38Z</time>
      </trkpt>
      <trkpt lat="48.20472" lon="6.61535">
        <ele>428.6</ele>
        <time>2024-11-02T15:37:45Z</time>
      </trkpt>
      <trkpt lat="48.2048" lon="6.61528">
        <ele>427.6</ele>
        <time>2024-11-02T15:37:54Z</time>
      </trkpt>
      <trkpt lat="48.20489" lon="6.61522">
        <ele>426.6</ele>
        <time>2024-11-02T15:38:03Z</time>
      </trkpt>
      <trkpt lat="48.20498" lon="6.61516">
        <ele>425.7</ele>
        <time>2024-11-02T15:38:10Z</time>
      </trkpt>
      <trkpt lat="48.20506" lon="6.6151">
        <ele>424.8</ele>
        <time>2024-11-02T15:38:18Z</time>
      </trkpt>
      <trkpt lat="48.20515" lon="6.61506">
        <ele>423.9</ele>
        <time>2024-11-02T15:38:25Z</time>
      </trkpt>
      <trkpt lat="48.20524" lon="6.61502">
        <ele>423.1</ele>
        <time>2024-11-02T15:38:32Z</time>
      </trkpt>
      <trkpt lat="48.20533" lon="6.61498">
        <ele>422.4</ele>
        <time>2024-11-02T15:38:39Z</time>
      </trkpt>
      <trkpt lat="48.20542" lon="6.61494">
        <ele>421.7</ele>
        <time>2024-11-02T15:38:47Z</time>
      </trkpt>
      <trkpt lat="48.20551" lon="6.61488">
        <ele>421</ele>
        <time>2024-11-02T15:38:53Z</time>
      </trkpt>
      <trkpt lat="48.2056" lon="6.61482">
        <ele>420.4</ele>
        <time>2024-11-02T15:39:00Z</time>
      </trkpt>
      <trkpt lat="48.20569" lon="6.61476">
        <ele>419.8</ele>
        <time>2024-11-02T15:39:08Z</time>
      </trkpt>
      <trkpt lat="48.20577" lon="6.6147">
        <ele>419.4</ele>
        <time>2024-11-02T15:39:14Z</time>
      </trkpt>
      <trkpt lat="48.20584" lon="6.61462">
        <ele>418.9</ele>
        <time>2024-11-02T15:39:23Z</time>
      </trkpt>
      <trkpt lat="48.20594" lon="6.6146">
        <ele>418.1</ele>
        <time>2024-11-02T15:39:31Z</time>
      </trkpt>
      <trkpt lat="48.20603" lon="6.61454">
        <ele>417.3</ele>
        <time>2024-11-02T15:39:39Z</time>
      </trkpt>
      <trkpt lat="48.20611" lon="6.61444">
        <ele>416.5</ele>
        <time>2024-11-02T15:39:45Z</time>
      </trkpt>
      <trkpt lat="48.20617" lon="6.61433">
        <ele>416.4</ele>
        <time>2024-11-02T15:39:57Z</time>
      </trkpt>
      <trkpt lat="48.20618" lon="6.61429">
        <ele>416.6</ele>
        <time>2024-11-02T15:40:08Z</time>
      </trkpt>
      <trkpt lat="48.20618" lon="6.61429">
        <ele>416.6</ele>
        <time>2024-11-02T15:40:09Z</time>
      </trkpt>
      <trkpt lat="48.20619" lon="6.61429">
        <ele>416.6</ele>
        <time>2024-11-02T15:40:10Z</time>
      </trkpt>
      <trkpt lat="48.20622" lon="6.61427">
        <ele>416.8</ele>
        <time>2024-11-02T15:40:14Z</time>
      </trkpt>
      <trkpt lat="48.20623" lon="6.61427">
        <ele>416.8</ele>
        <time>2024-11-02T15:40:15Z</time>
      </trkpt>
      <trkpt lat="48.2063" lon="6.61418">
        <ele>417.5</ele>
        <time>2024-11-02T15:40:24Z</time>
      </trkpt>
      <trkpt lat="48.20636" lon="6.61407">
        <ele>418.3</ele>
        <time>2024-11-02T15:40:30Z</time>
      </trkpt>
      <trkpt lat="48.20638" lon="6.614">
        <ele>418.6</ele>
        <time>2024-11-02T15:40:39Z</time>
      </trkpt>
      <trkpt lat="48.20638" lon="6.614">
        <ele>418.6</ele>
        <time>2024-11-02T15:40:40Z</time>
      </trkpt>
      <trkpt lat="48.20638" lon="6.614">
        <ele>418.6</ele>
        <time>2024-11-02T15:40:41Z</time>
      </trkpt>
      <trkpt lat="48.20639" lon="6.61399">
        <ele>418.7</ele>
        <time>2024-11-02T15:40:47Z</time>
      </trkpt>
      <trkpt lat="48.2064" lon="6.61397">
        <ele>418.8</ele>
        <time>2024-11-02T15:40:48Z</time>
      </trkpt>
      <trkpt lat="48.20647" lon="6.61388">
        <ele>419.3</ele>
        <time>2024-11-02T15:40:56Z</time>
      </trkpt>
      <trkpt lat="48.20655" lon="6.6138">
        <ele>419.6</ele>
        <time>2024-11-02T15:41:05Z</time>
      </trkpt>
      <trkpt lat="48.20664" lon="6.61376">
        <ele>420.1</ele>
        <time>2024-11-02T15:41:13Z</time>
      </trkpt>
      <trkpt lat="48.20673" lon="6.61374">
        <ele>420.7</ele>
        <time>2024-11-02T15:41:22Z</time>
      </trkpt>
      <trkpt lat="48.20682" lon="6.61371">
        <ele>421.3</ele>
        <time>2024-11-02T15:41:31Z</time>
      </trkpt>
      <trkpt lat="48.20692" lon="6.61365">
        <ele>422.1</ele>
        <time>2024-11-02T15:41:39Z</time>
      </trkpt>
      <trkpt lat="48.20701" lon="6.61362">
        <ele>422.7</ele>
        <time>2024-11-02T15:41:47Z</time>
      </trkpt>
      <trkpt lat="48.2071" lon="6.61356">
        <ele>423.4</ele>
        <time>2024-11-02T15:41:55Z</time>
      </trkpt>
      <trkpt lat="48.2072" lon="6.61353">
        <ele>423.9</ele>
        <time>2024-11-02T15:42:03Z</time>
      </trkpt>
      <trkpt lat="48.2073" lon="6.6135">
        <ele>424.4</ele>
        <time>2024-11-02T15:42:11Z</time>
      </trkpt>
      <trkpt lat="48.20738" lon="6.61343">
        <ele>424.7</ele>
        <time>2024-11-02T15:42:21Z</time>
      </trkpt>
      <trkpt lat="48.20748" lon="6.61339">
        <ele>424.9</ele>
        <time>2024-11-02T15:42:29Z</time>
      </trkpt>
      <trkpt lat="48.20758" lon="6.61337">
        <ele>425.1</ele>
        <time>2024-11-02T15:42:36Z</time>
      </trkpt>
      <trkpt lat="48.20768" lon="6.61332">
        <ele>425.1</ele>
        <time>2024-11-02T15:42:44Z</time>
      </trkpt>
      <trkpt lat="48.20775" lon="6.61323">
        <ele>424.9</ele>
        <time>2024-11-02T15:42:53Z</time>
      </trkpt>
      <trkpt lat="48.20782" lon="6.61312">
        <ele>424.7</ele>
        <time>2024-11-02T15:43:00Z</time>
      </trkpt>
      <trkpt lat="48.20791" lon="6.61305">
        <ele>424.2</ele>
        <time>2024-11-02T15:43:07Z</time>
      </trkpt>
      <trkpt lat="48.20801" lon="6.61303">
        <ele>423.7</ele>
        <time>2024-11-02T15:43:14Z</time>
      </trkpt>
      <trkpt lat="48.20811" lon="6.61301">
        <ele>423.1</ele>
        <time>2024-11-02T15:43:22Z</time>
      </trkpt>
      <trkpt lat="48.2082" lon="6.61295">
        <ele>422.6</ele>
        <time>2024-11-02T15:43:29Z</time>
      </trkpt>
      <trkpt lat="48.20827" lon="6.61287">
        <ele>422.1</ele>
        <time>2024-11-02T15:43:35Z</time>
      </trkpt>
      <trkpt lat="48.20835" lon="6.61278">
        <ele>421.5</ele>
        <time>2024-11-02T15:43:46Z</time>
      </trkpt>
      <trkpt lat="48.20844" lon="6.61273">
        <ele>420.9</ele>
        <time>2024-11-02T15:43:52Z</time>
      </trkpt>
      <trkpt lat="48.20853" lon="6.61266">
        <ele>420.2</ele>
        <time>2024-11-02T15:44:03Z</time>
      </trkpt>
      <trkpt lat="48.20861" lon="6.61257">
        <ele>419.6</ele>
        <time>2024-11-02T15:44:15Z</time>
      </trkpt>
      <trkpt lat="48.2087" lon="6.61251">
        <ele>418.8</ele>
        <time>2024-11-02T15:44:22Z</time>
      </trkpt>
      <trkpt lat="48.20879" lon="6.61247">
        <ele>418.1</ele>
        <time>2024-11-02T15:44:29Z</time>
      </trkpt>
      <trkpt lat="48.20888" lon="6.61245">
        <ele>417.4</ele>
        <time>2024-11-02T15:44:36Z</time>
      </trkpt>
      <trkpt lat="48.20897" lon="6.61244">
        <ele>416.7</ele>
        <time>2024-11-02T15:44:43Z</time>
      </trkpt>
      <trkpt lat="48.20907" lon="6.61237">
        <ele>415.9</ele>
        <time>2024-11-02T15:44:51Z</time>
      </trkpt>
      <trkpt lat="48.20916" lon="6.61234">
        <ele>415.1</ele>
        <time>2024-11-02T15:44:58Z</time>
      </trkpt>
      <trkpt lat="48.20927" lon="6.61234">
        <ele>414.2</ele>
        <time>2024-11-02T15:45:05Z</time>
      </trkpt>
      <trkpt lat="48.20937" lon="6.61235">
        <ele>413.4</ele>
        <time>2024-11-02T15:45:16Z</time>
      </trkpt>
      <trkpt lat="48.20946" lon="6.61234">
        <ele>412.6</ele>
        <time>2024-11-02T15:45:22Z</time>
      </trkpt>
      <trkpt lat="48.20956" lon="6.61235">
        <ele>411.8</ele>
        <time>2024-11-02T15:45:27Z</time>
      </trkpt>
      <trkpt lat="48.20965" lon="6.61237">
        <ele>411.1</ele>
        <time>2024-11-02T15:45:35Z</time>
      </trkpt>
      <trkpt lat="48.20976" lon="6.61239">
        <ele>410.4</ele>
        <time>2024-11-02T15:45:44Z</time>
      </trkpt>
      <trkpt lat="48.20985" lon="6.61243">
        <ele>409.9</ele>
        <time>2024-11-02T15:45:52Z</time>
      </trkpt>
      <trkpt lat="48.20995" lon="6.61246">
        <ele>409.4</ele>
        <time>2024-11-02T15:46:01Z</time>
      </trkpt>
      <trkpt lat="48.21003" lon="6.61249">
        <ele>409</ele>
        <time>2024-11-02T15:46:08Z</time>
      </trkpt>
      <trkpt lat="48.21012" lon="6.61255">
        <ele>408.6</ele>
        <time>2024-11-02T15:46:15Z</time>
      </trkpt>
      <trkpt lat="48.21021" lon="6.61256">
        <ele>408.2</ele>
        <time>2024-11-02T15:46:23Z</time>
      </trkpt>
      <trkpt lat="48.21031" lon="6.61259">
        <ele>407.8</ele>
        <time>2024-11-02T15:46:31Z</time>
      </trkpt>
      <trkpt lat="48.2104" lon="6.6126">
        <ele>407.4</ele>
        <time>2024-11-02T15:46:37Z</time>
      </trkpt>
      <trkpt lat="48.2105" lon="6.61265">
        <ele>406.9</ele>
        <time>2024-11-02T15:46:45Z</time>
      </trkpt>
      <trkpt lat="48.21059" lon="6.61265">
        <ele>406.5</ele>
        <time>2024-11-02T15:46:53Z</time>
      </trkpt>
      <trkpt lat="48.21068" lon="6.61269">
        <ele>406.1</ele>
        <time>2024-11-02T15:47:02Z</time>
      </trkpt>
      <trkpt lat="48.21078" lon="6.61272">
        <ele>405.6</ele>
        <time>2024-11-02T15:47:10Z</time>
      </trkpt>
      <trkpt lat="48.21088" lon="6.61275">
        <ele>405.1</ele>
        <time>2024-11-02T15:47:18Z</time>
      </trkpt>
      <trkpt lat="48.21097" lon="6.61278">
        <ele>404.5</ele>
        <time>2024-11-02T15:47:25Z</time>
      </trkpt>
      <trkpt lat="48.21107" lon="6.61281">
        <ele>403.8</ele>
        <time>2024-11-02T15:47:33Z</time>
      </trkpt>
      <trkpt lat="48.21117" lon="6.61283">
        <ele>403.3</ele>
        <time>2024-11-02T15:47:39Z</time>
      </trkpt>
      <trkpt lat="48.21127" lon="6.61285">
        <ele>402.8</ele>
        <time>2024-11-02T15:47:47Z</time>
      </trkpt>
      <trkpt lat="48.21137" lon="6.61285">
        <ele>402.4</ele>
        <time>2024-11-02T15:47:54Z</time>
      </trkpt>
      <trkpt lat="48.21146" lon="6.61286">
        <ele>402.1</ele>
        <time>2024-11-02T15:48:01Z</time>
      </trkpt>
      <trkpt lat="48.21155" lon="6.61287">
        <ele>401.8</ele>
        <time>2024-11-02T15:48:08Z</time>
      </trkpt>
      <trkpt lat="48.21165" lon="6.61288">
        <ele>401.5</ele>
        <time>2024-11-02T15:48:16Z</time>
      </trkpt>
      <trkpt lat="48.21175" lon="6.61292">
        <ele>401.2</ele>
        <time>2024-11-02T15:48:25Z</time>
      </trkpt>
      <trkpt lat="48.21185" lon="6.61294">
        <ele>401</ele>
        <time>2024-11-02T15:48:32Z</time>
      </trkpt>
      <trkpt lat="48.21194" lon="6.61294">
        <ele>400.8</ele>
        <time>2024-11-02T15:48:39Z</time>
      </trkpt>
      <trkpt lat="48.21204" lon="6.61292">
        <ele>400.6</ele>
        <time>2024-11-02T15:48:46Z</time>
      </trkpt>
      <trkpt lat="48.21213" lon="6.61291">
        <ele>400.4</ele>
        <time>2024-11-02T15:48:53Z</time>
      </trkpt>
      <trkpt lat="48.21223" lon="6.61291">
        <ele>400.2</ele>
        <time>2024-11-02T15:49:01Z</time>
      </trkpt>
      <trkpt lat="48.21231" lon="6.61283">
        <ele>400</ele>
        <time>2024-11-02T15:49:12Z</time>
      </trkpt>
      <trkpt lat="48.21237" lon="6.61272">
        <ele>399.8</ele>
        <time>2024-11-02T15:49:20Z</time>
      </trkpt>
      <trkpt lat="48.21246" lon="6.61275">
        <ele>399.6</ele>
        <time>2024-11-02T15:49:27Z</time>
      </trkpt>
      <trkpt lat="48.21256" lon="6.61278">
        <ele>399.5</ele>
        <time>2024-11-02T15:49:33Z</time>
      </trkpt>
      <trkpt lat="48.21265" lon="6.61282">
        <ele>399.3</ele>
        <time>2024-11-02T15:49:39Z</time>
      </trkpt>
      <trkpt lat="48.21275" lon="6.61286">
        <ele>399</ele>
        <time>2024-11-02T15:49:47Z</time>
      </trkpt>
      <trkpt lat="48.21284" lon="6.61288">
        <ele>398.9</ele>
        <time>2024-11-02T15:49:53Z</time>
      </trkpt>
      <trkpt lat="48.21293" lon="6.61289">
        <ele>398.8</ele>
        <time>2024-11-02T15:50:00Z</time>
      </trkpt>
      <trkpt lat="48.21303" lon="6.61288">
        <ele>398.7</ele>
        <time>2024-11-02T15:50:09Z</time>
      </trkpt>
      <trkpt lat="48.21312" lon="6.61285">
        <ele>398.5</ele>
        <time>2024-11-02T15:50:15Z</time>
      </trkpt>
      <trkpt lat="48.21323" lon="6.61283">
        <ele>398.2</ele>
        <time>2024-11-02T15:50:22Z</time>
      </trkpt>
      <trkpt lat="48.21331" lon="6.61279">
        <ele>398</ele>
        <time>2024-11-02T15:50:29Z</time>
      </trkpt>
      <trkpt lat="48.21341" lon="6.61274">
        <ele>397.7</ele>
        <time>2024-11-02T15:50:38Z</time>
      </trkpt>
      <trkpt lat="48.21351" lon="6.61269">
        <ele>397.5</ele>
        <time>2024-11-02T15:50:50Z</time>
      </trkpt>
      <trkpt lat="48.2136" lon="6.61264">
        <ele>397.2</ele>
        <time>2024-11-02T15:50:56Z</time>
      </trkpt>
      <trkpt lat="48.21368" lon="6.6126">
        <ele>397</ele>
        <time>2024-11-02T15:51:02Z</time>
      </trkpt>
      <trkpt lat="48.21378" lon="6.61257">
        <ele>396.7</ele>
        <time>2024-11-02T15:51:10Z</time>
      </trkpt>
      <trkpt lat="48.21387" lon="6.61254">
        <ele>396.5</ele>
        <time>2024-11-02T15:51:16Z</time>
      </trkpt>
      <trkpt lat="48.21396" lon="6.61254">
        <ele>396.2</ele>
        <time>2024-11-02T15:51:23Z</time>
      </trkpt>
      <trkpt lat="48.21406" lon="6.61255">
        <ele>395.9</ele>
        <time>2024-11-02T15:51:31Z</time>
      </trkpt>
      <trkpt lat="48.21416" lon="6.61256">
        <ele>395.6</ele>
        <time>2024-11-02T15:51:38Z</time>
      </trkpt>
      <trkpt lat="48.21426" lon="6.61255">
        <ele>395.2</ele>
        <time>2024-11-02T15:51:46Z</time>
      </trkpt>
      <trkpt lat="48.21435" lon="6.61254">
        <ele>394.8</ele>
        <time>2024-11-02T15:51:54Z</time>
      </trkpt>
      <trkpt lat="48.21443" lon="6.61262">
        <ele>394.3</ele>
        <time>2024-11-02T15:52:02Z</time>
      </trkpt>
      <trkpt lat="48.21453" lon="6.61264">
        <ele>393.6</ele>
        <time>2024-11-02T15:52:10Z</time>
      </trkpt>
      <trkpt lat="48.21462" lon="6.61267">
        <ele>392.9</ele>
        <time>2024-11-02T15:52:19Z</time>
      </trkpt>
      <trkpt lat="48.21471" lon="6.6127">
        <ele>392.2</ele>
        <time>2024-11-02T15:52:31Z</time>
      </trkpt>
      <trkpt lat="48.21481" lon="6.61273">
        <ele>391.5</ele>
        <time>2024-11-02T15:52:38Z</time>
      </trkpt>
      <trkpt lat="48.2149" lon="6.61274">
        <ele>390.8</ele>
        <time>2024-11-02T15:52:46Z</time>
      </trkpt>
      <trkpt lat="48.215" lon="6.61273">
        <ele>390.1</ele>
        <time>2024-11-02T15:52:55Z</time>
      </trkpt>
      <trkpt lat="48.21509" lon="6.61274">
        <ele>389.4</ele>
        <time>2024-11-02T15:53:04Z</time>
      </trkpt>
      <trkpt lat="48.21519" lon="6.6127">
        <ele>388.7</ele>
        <time>2024-11-02T15:53:11Z</time>
      </trkpt>
      <trkpt lat="48.21527" lon="6.61267">
        <ele>388.1</ele>
        <time>2024-11-02T15:53:19Z</time>
      </trkpt>
      <trkpt lat="48.21538" lon="6.61264">
        <ele>387.3</ele>
        <time>2024-11-02T15:53:32Z</time>
      </trkpt>
      <trkpt lat="48.21547" lon="6.61262">
        <ele>386.6</ele>
        <time>2024-11-02T15:53:41Z</time>
      </trkpt>
      <trkpt lat="48.21556" lon="6.6126">
        <ele>385.9</ele>
        <time>2024-11-02T15:53:49Z</time>
      </trkpt>
      <trkpt lat="48.21566" lon="6.61256">
        <ele>385.1</ele>
        <time>2024-11-02T15:53:55Z</time>
      </trkpt>
      <trkpt lat="48.21575" lon="6.61251">
        <ele>384.5</ele>
        <time>2024-11-02T15:54:02Z</time>
      </trkpt>
      <trkpt lat="48.21584" lon="6.61247">
        <ele>383.8</ele>
        <time>2024-11-02T15:54:09Z</time>
      </trkpt>
      <trkpt lat="48.21594" lon="6.61247">
        <ele>382.9</ele>
        <time>2024-11-02T15:54:17Z</time>
      </trkpt>
      <trkpt lat="48.21604" lon="6.61246">
        <ele>381.9</ele>
        <time>2024-11-02T15:54:27Z</time>
      </trkpt>
      <trkpt lat="48.21613" lon="6.6124">
        <ele>380.9</ele>
        <time>2024-11-02T15:54:34Z</time>
      </trkpt>
      <trkpt lat="48.21622" lon="6.61236">
        <ele>379.8</ele>
        <time>2024-11-02T15:54:40Z</time>
      </trkpt>
      <trkpt lat="48.2163" lon="6.61233">
        <ele>378.6</ele>
        <time>2024-11-02T15:54:50Z</time>
      </trkpt>
      <trkpt lat="48.21633" lon="6.61233">
        <ele>378.3</ele>
        <time>2024-11-02T15:54:56Z</time>
      </trkpt>
      <trkpt lat="48.21633" lon="6.61234">
        <ele>378.3</ele>
        <time>2024-11-02T15:54:57Z</time>
      </trkpt>
      <trkpt lat="48.21634" lon="6.61234">
        <ele>378.1</ele>
        <time>2024-11-02T15:54:58Z</time>
      </trkpt>
      <trkpt lat="48.21634" lon="6.61235">
        <ele>378.1</ele>
        <time>2024-11-02T15:54:59Z</time>
      </trkpt>
      <trkpt lat="48.21635" lon="6.61236">
        <ele>378</ele>
        <time>2024-11-02T15:55:00Z</time>
      </trkpt>
      <trkpt lat="48.21636" lon="6.61236">
        <ele>377.8</ele>
        <time>2024-11-02T15:55:01Z</time>
      </trkpt>
      <trkpt lat="48.21638" lon="6.61237">
        <ele>377.5</ele>
        <time>2024-11-02T15:55:07Z</time>
      </trkpt>
      <trkpt lat="48.21639" lon="6.61237">
        <ele>377.4</ele>
        <time>2024-11-02T15:55:08Z</time>
      </trkpt>
      <trkpt lat="48.2164" lon="6.61237">
        <ele>377.3</ele>
        <time>2024-11-02T15:55:09Z</time>
      </trkpt>
      <trkpt lat="48.21641" lon="6.61236">
        <ele>377.1</ele>
        <time>2024-11-02T15:55:10Z</time>
      </trkpt>
      <trkpt lat="48.21641" lon="6.61236">
        <ele>377.1</ele>
        <time>2024-11-02T15:55:13Z</time>
      </trkpt>
      <trkpt lat="48.21642" lon="6.61236">
        <ele>377</ele>
        <time>2024-11-02T15:55:14Z</time>
      </trkpt>
      <trkpt lat="48.21642" lon="6.61235">
        <ele>377</ele>
        <time>2024-11-02T15:55:15Z</time>
      </trkpt>
      <trkpt lat="48.21643" lon="6.61234">
        <ele>376.7</ele>
        <time>2024-11-02T15:55:16Z</time>
      </trkpt>
      <trkpt lat="48.21645" lon="6.61233">
        <ele>376.6</ele>
        <time>2024-11-02T15:55:17Z</time>
      </trkpt>
      <trkpt lat="48.21654" lon="6.61231">
        <ele>375.4</ele>
        <time>2024-11-02T15:55:27Z</time>
      </trkpt>
      <trkpt lat="48.21663" lon="6.61231">
        <ele>374.1</ele>
        <time>2024-11-02T15:55:41Z</time>
      </trkpt>
      <trkpt lat="48.21672" lon="6.61228">
        <ele>372.9</ele>
        <time>2024-11-02T15:55:51Z</time>
      </trkpt>
      <trkpt lat="48.21681" lon="6.61228">
        <ele>371.8</ele>
        <time>2024-11-02T15:56:06Z</time>
      </trkpt>
      <trkpt lat="48.2169" lon="6.61225">
        <ele>370.9</ele>
        <time>2024-11-02T15:56:17Z</time>
      </trkpt>
      <trkpt lat="48.21699" lon="6.61221">
        <ele>370.1</ele>
        <time>2024-11-02T15:56:25Z</time>
      </trkpt>
      <trkpt lat="48.21707" lon="6.61213">
        <ele>369.5</ele>
        <time>2024-11-02T15:56:33Z</time>
      </trkpt>
      <trkpt lat="48.21716" lon="6.6121">
        <ele>369.1</ele>
        <time>2024-11-02T15:56:39Z</time>
      </trkpt>
      <trkpt lat="48.21725" lon="6.61204">
        <ele>368.6</ele>
        <time>2024-11-02T15:56:45Z</time>
      </trkpt>
      <trkpt lat="48.21733" lon="6.61195">
        <ele>368.3</ele>
        <time>2024-11-02T15:56:52Z</time>
      </trkpt>
      <trkpt lat="48.2174" lon="6.61186">
        <ele>368</ele>
        <time>2024-11-02T15:57:00Z</time>
      </trkpt>
      <trkpt lat="48.21748" lon="6.61178">
        <ele>367.6</ele>
        <time>2024-11-02T15:57:09Z</time>
      </trkpt>
      <trkpt lat="48.21757" lon="6.61173">
        <ele>367.3</ele>
        <time>2024-11-02T15:57:16Z</time>
      </trkpt>
      <trkpt lat="48.21766" lon="6.61167">
        <ele>367</ele>
        <time>2024-11-02T15:57:24Z</time>
      </trkpt>
      <trkpt lat="48.21774" lon="6.61162">
        <ele>366.7</ele>
        <time>2024-11-02T15:57:31Z</time>
      </trkpt>
      <trkpt lat="48.2178" lon="6.61151">
        <ele>366.4</ele>
        <time>2024-11-02T15:57:38Z</time>
      </trkpt>
      <trkpt lat="48.21789" lon="6.61144">
        <ele>366</ele>
        <time>2024-11-02T15:57:49Z</time>
      </trkpt>
      <trkpt lat="48.21797" lon="6.61136">
        <ele>365.8</ele>
        <time>2024-11-02T15:57:58Z</time>
      </trkpt>
      <trkpt lat="48.21806" lon="6.61131">
        <ele>365.4</ele>
        <time>2024-11-02T15:58:07Z</time>
      </trkpt>
      <trkpt lat="48.21815" lon="6.61129">
        <ele>365.1</ele>
        <time>2024-11-02T15:58:16Z</time>
      </trkpt>
      <trkpt lat="48.21825" lon="6.61126">
        <ele>364.6</ele>
        <time>2024-11-02T15:58:26Z</time>
      </trkpt>
      <trkpt lat="48.21834" lon="6.61119">
        <ele>364.1</ele>
        <time>2024-11-02T15:58:35Z</time>
      </trkpt>
      <trkpt lat="48.21843" lon="6.61112">
        <ele>363.7</ele>
        <time>2024-11-02T15:58:44Z</time>
      </trkpt>
      <trkpt lat="48.2185" lon="6.61103">
        <ele>363.3</ele>
        <time>2024-11-02T15:58:51Z</time>
      </trkpt>
      <trkpt lat="48.21858" lon="6.61096">
        <ele>363</ele>
        <time>2024-11-02T15:58:58Z</time>
      </trkpt>
      <trkpt lat="48.21865" lon="6.61086">
        <ele>362.8</ele>
        <time>2024-11-02T15:59:06Z</time>
      </trkpt>
      <trkpt lat="48.21879" lon="6.61076">
        <ele>362.4</ele>
        <time>2024-11-02T15:59:18Z</time>
      </trkpt>
      <trkpt lat="48.21885" lon="6.61072">
        <ele>362.3</ele>
        <time>2024-11-02T15:59:25Z</time>
      </trkpt>
      <trkpt lat="48.21891" lon="6.61067">
        <ele>362.2</ele>
        <time>2024-11-02T15:59:34Z</time>
      </trkpt>
      <trkpt lat="48.21896" lon="6.61063">
        <ele>362.1</ele>
        <time>2024-11-02T15:59:42Z</time>
      </trkpt>
      <trkpt lat="48.21902" lon="6.61058">
        <ele>362.1</ele>
        <time>2024-11-02T15:59:49Z</time>
      </trkpt>
      <trkpt lat="48.21908" lon="6.61054">
        <ele>361.8</ele>
        <time>2024-11-02T15:59:57Z</time>
      </trkpt>
      <trkpt lat="48.21913" lon="6.6105">
        <ele>361.4</ele>
        <time>2024-11-02T15:59:57Z</time>
      </trkpt>
      <trkpt lat="48.21913" lon="6.6105">
        <ele>361.4</ele>
        <time>2024-11-02T15:59:57Z</time>
      </trkpt>
    </trkseg>
  </trk>
</gpx>